Wetterdaten: Freitag, 18.08.2017
Datum Zeit Temp. A. Pool Temp. Feuchte A. Luftdruck Regen Wind Richtung Richtung Sonnenschein ET UV Solar Taupunkt Windchill Windben Empfang
18.08.2017 00:00 19,9 C 24,4 C 83 % 1016,5 hPa 0,0 l/m 2,2 km/h (1 Bft) SO 135 0 min 0,000 mm 0,0 UV-I 0 W/m 16,9 C 19,9 C 4,8 km/h (1 Bft) 98,00 %
18.08.2017 00:02 19,9 C 24,4 C 83 % 1016,4 hPa 0,0 l/m 2,6 km/h (1 Bft) SO 135 0 min 0,000 mm 0,0 UV-I 0 W/m 16,9 C 19,9 C 4,8 km/h (1 Bft) 9,52 %
18.08.2017 00:04 19,9 C 24,4 C 83 % 1016,4 hPa 0,0 l/m 2,4 km/h (1 Bft) SO 135 0 min 0,000 mm 0,0 UV-I 0 W/m 16,9 C 19,9 C 4,8 km/h (1 Bft) 97,30 %
18.08.2017 00:06 19,9 C 24,4 C 83 % 1016,5 hPa 0,0 l/m 2,5 km/h (1 Bft) SO 135 0 min 0,000 mm 0,0 UV-I 0 W/m 16,9 C 19,9 C 3,2 km/h (1 Bft) 100,00 %
18.08.2017 00:08 19,8 C 24,4 C 83 % 1016,4 hPa 0,0 l/m 2,7 km/h (1 Bft) SO 135 0 min 0,000 mm 0,0 UV-I 0 W/m 16,8 C 19,8 C 3,2 km/h (1 Bft) 97,37 %
18.08.2017 00:10 19,8 C 24,4 C 83 % 1016,5 hPa 0,0 l/m 2,0 km/h (1 Bft) SO 135 0 min 0,000 mm 0,0 UV-I 0 W/m 16,8 C 19,8 C 3,2 km/h (1 Bft) 100,00 %
18.08.2017 00:12 19,8 C 24,4 C 84 % 1016,5 hPa 0,0 l/m 1,2 km/h (1 Bft) SO 135 0 min 0,000 mm 0,0 UV-I 0 W/m 17,0 C 19,8 C 3,2 km/h (1 Bft) 100,00 %
18.08.2017 00:14 19,7 C 24,4 C 84 % 1016,5 hPa 0,0 l/m 3,3 km/h (1 Bft) SO 141 0 min 0,000 mm 0,0 UV-I 0 W/m 16,9 C 19,7 C 4,8 km/h (1 Bft) 100,00 %
18.08.2017 00:16 19,6 C 24,4 C 84 % 1016,5 hPa 0,0 l/m 2,8 km/h (1 Bft) S-SO 157 0 min 0,000 mm 0,0 UV-I 0 W/m 16,8 C 19,6 C 8,0 km/h (2 Bft) 97,87 %
18.08.2017 00:18 19,6 C 24,4 C 85 % 1016,5 hPa 0,0 l/m 3,4 km/h (1 Bft) S-SO 157 0 min 0,000 mm 0,0 UV-I 0 W/m 17,0 C 19,6 C 4,8 km/h (1 Bft) 95,74 %
18.08.2017 00:20 19,5 C 24,4 C 85 % 1016,5 hPa 0,0 l/m 3,0 km/h (1 Bft) S-SO 157 0 min 0,000 mm 0,0 UV-I 0 W/m 16,9 C 19,5 C 4,8 km/h (1 Bft) 100,00 %
18.08.2017 00:22 19,4 C 24,4 C 85 % 1016,5 hPa 0,0 l/m 3,6 km/h (1 Bft) S-SO 157 0 min 0,000 mm 0,0 UV-I 0 W/m 16,8 C 19,4 C 4,8 km/h (1 Bft) 100,00 %
18.08.2017 00:24 19,4 C 24,4 C 85 % 1016,5 hPa 0,0 l/m 1,7 km/h (1 Bft) S-SO 157 0 min 0,000 mm 0,0 UV-I 0 W/m 16,8 C 19,4 C 3,2 km/h (1 Bft) 100,00 %
18.08.2017 00:26 19,3 C 24,4 C 85 % 1016,5 hPa 0,0 l/m 2,3 km/h (1 Bft) S-SO 157 0 min 0,000 mm 0,0 UV-I 0 W/m 16,7 C 19,3 C 3,2 km/h (1 Bft) 97,87 %
18.08.2017 00:28 19,3 C 24,4 C 86 % 1016,5 hPa 0,0 l/m 2,4 km/h (1 Bft) S-SO 157 0 min 0,000 mm 0,0 UV-I 0 W/m 16,9 C 19,3 C 3,2 km/h (1 Bft) 95,74 %
18.08.2017 00:30 19,3 C 24,4 C 86 % 1016,5 hPa 0,0 l/m 2,5 km/h (1 Bft) S-SO 157 0 min 0,000 mm 0,0 UV-I 0 W/m 16,9 C 19,3 C 3,2 km/h (1 Bft) 97,92 %
18.08.2017 00:32 19,3 C 24,4 C 86 % 1016,5 hPa 0,0 l/m 3,2 km/h (1 Bft) S-SO 157 0 min 0,000 mm 0,0 UV-I 0 W/m 16,9 C 19,3 C 4,8 km/h (1 Bft) 97,87 %
18.08.2017 00:34 19,3 C 24,4 C 86 % 1016,5 hPa 0,0 l/m 2,3 km/h (1 Bft) S-SO 157 0 min 0,000 mm 0,0 UV-I 0 W/m 16,9 C 19,3 C 3,2 km/h (1 Bft) 97,87 %
18.08.2017 00:36 19,3 C 24,4 C 86 % 1016,4 hPa 0,0 l/m 2,8 km/h (1 Bft) S-SO 157 0 min 0,000 mm 0,0 UV-I 0 W/m 16,9 C 19,3 C 3,2 km/h (1 Bft) 96,00 %
18.08.2017 00:38 19,3 C 24,4 C 86 % 1016,5 hPa 0,0 l/m 1,6 km/h (1 Bft) S-SO 157 0 min 0,000 mm 0,0 UV-I 0 W/m 16,9 C 19,3 C 3,2 km/h (1 Bft) 97,87 %
18.08.2017 00:40 19,3 C 24,4 C 86 % 1016,4 hPa 0,0 l/m 1,3 km/h (1 Bft) S-SO 157 0 min 0,000 mm 0,0 UV-I 0 W/m 16,9 C 19,3 C 3,2 km/h (1 Bft) 97,37 %
18.08.2017 00:42 19,3 C 24,4 C 86 % 1016,4 hPa 0,0 l/m 0,7 km/h (0 Bft) S-SO 157 0 min 0,000 mm 0,0 UV-I 0 W/m 16,9 C 19,3 C 3,2 km/h (1 Bft) 97,87 %
18.08.2017 00:44 19,2 C 24,4 C 86 % 1016,4 hPa 0,0 l/m 0,0 km/h (0 Bft) S-SO 157 0 min 0,000 mm 0,0 UV-I 0 W/m 16,8 C 19,2 C 1,6 km/h (1 Bft) 97,87 %
18.08.2017 00:46 19,2 C 24,4 C 86 % 1016,4 hPa 0,0 l/m 0,0 km/h (0 Bft) S-SO 157 0 min 0,000 mm 0,0 UV-I 0 W/m 16,8 C 19,2 C 0,0 km/h (0 Bft) 97,87 %
18.08.2017 00:48 19,2 C 24,4 C 86 % 1016,3 hPa 0,0 l/m 0,2 km/h (0 Bft) S-SO 157 0 min 0,000 mm 0,0 UV-I 0 W/m 16,8 C 19,2 C 1,6 km/h (1 Bft) 95,74 %
18.08.2017 00:50 19,1 C 24,4 C 86 % 1016,3 hPa 0,0 l/m 0,2 km/h (0 Bft) S-SO 157 0 min 0,000 mm 0,0 UV-I 0 W/m 16,7 C 19,1 C 1,6 km/h (1 Bft) 97,87 %
18.08.2017 00:52 19,1 C 24,4 C 86 % 1016,3 hPa 0,0 l/m 1,1 km/h (1 Bft) S-SO 157 0 min 0,000 mm 0,0 UV-I 0 W/m 16,7 C 19,1 C 3,2 km/h (1 Bft) 97,87 %
18.08.2017 00:54 19,1 C 24,4 C 86 % 1016,4 hPa 0,0 l/m 2,6 km/h (1 Bft) S-SO 158 0 min 0,000 mm 0,0 UV-I 0 W/m 16,7 C 19,1 C 4,8 km/h (1 Bft) 97,87 %
18.08.2017 00:56 19,1 C 24,4 C 86 % 1016,4 hPa 0,0 l/m 2,7 km/h (1 Bft) S-SO 158 0 min 0,000 mm 0,0 UV-I 0 W/m 16,7 C 19,1 C 4,8 km/h (1 Bft) 95,74 %
18.08.2017 00:58 19,1 C 24,4 C 86 % 1016,4 hPa 0,0 l/m 3,5 km/h (1 Bft) S-SO 158 0 min 0,000 mm 0,0 UV-I 0 W/m 16,7 C 19,1 C 4,8 km/h (1 Bft) 97,87 %
18.08.2017 01:00 19,1 C 24,4 C 86 % 1016,4 hPa 0,0 l/m 3,6 km/h (1 Bft) S-SO 159 0 min 0,000 mm 0,0 UV-I 0 W/m 16,7 C 19,1 C 8,0 km/h (2 Bft) 93,62 %
18.08.2017 01:02 19,1 C 24,4 C 86 % 1016,4 hPa 0,0 l/m 4,0 km/h (1 Bft) S-SO 159 0 min 0,000 mm 0,0 UV-I 0 W/m 16,7 C 19,1 C 6,4 km/h (2 Bft) 97,87 %
18.08.2017 01:04 19,1 C 24,4 C 86 % 1016,3 hPa 0,0 l/m 4,3 km/h (1 Bft) S-SO 159 0 min 0,000 mm 0,0 UV-I 0 W/m 16,7 C 19,1 C 8,0 km/h (2 Bft) 97,87 %
18.08.2017 01:06 19,1 C 24,4 C 86 % 1016,3 hPa 0,0 l/m 3,7 km/h (1 Bft) S-SO 159 0 min 0,000 mm 0,0 UV-I 0 W/m 16,7 C 19,1 C 6,4 km/h (2 Bft) 97,87 %
18.08.2017 01:08 19,1 C 24,4 C 86 % 1016,3 hPa 0,0 l/m 5,3 km/h (1 Bft) S-SO 159 0 min 0,000 mm 0,0 UV-I 0 W/m 16,7 C 19,1 C 8,0 km/h (2 Bft) 97,92 %
18.08.2017 01:10 19,1 C 24,4 C 86 % 1016,4 hPa 0,0 l/m 5,2 km/h (1 Bft) S-SO 161 0 min 0,000 mm 0,0 UV-I 0 W/m 16,7 C 19,1 C 6,4 km/h (2 Bft) 95,74 %
18.08.2017 01:12 19,1 C 24,4 C 86 % 1016,3 hPa 0,0 l/m 6,0 km/h (2 Bft) S-SO 161 0 min 0,000 mm 0,0 UV-I 0 W/m 16,7 C 19,1 C 8,0 km/h (2 Bft) 95,74 %
18.08.2017 01:14 19,1 C 24,4 C 86 % 1016,3 hPa 0,0 l/m 2,0 km/h (1 Bft) S-SO 161 0 min 0,000 mm 0,0 UV-I 0 W/m 16,7 C 19,1 C 8,0 km/h (2 Bft) 98,00 %
18.08.2017 01:16 19,1 C 24,4 C 86 % 1016,3 hPa 0,0 l/m 2,3 km/h (1 Bft) S-SO 161 0 min 0,000 mm 0,0 UV-I 0 W/m 16,7 C 19,1 C 6,4 km/h (2 Bft) 97,87 %
18.08.2017 01:18 19,1 C 24,4 C 86 % 1016,3 hPa 0,0 l/m 0,7 km/h (0 Bft) S-SO 161 0 min 0,000 mm 0,0 UV-I 0 W/m 16,7 C 19,1 C 3,2 km/h (1 Bft) 97,87 %
18.08.2017 01:20 19,0 C 24,4 C 86 % 1016,3 hPa 0,0 l/m 0,5 km/h (0 Bft) S-SO 161 0 min 0,000 mm 0,0 UV-I 0 W/m 16,6 C 19,0 C 1,6 km/h (1 Bft) 94,74 %
18.08.2017 01:22 19,0 C 24,4 C 86 % 1016,3 hPa 0,0 l/m 0,0 km/h (0 Bft) S-SO 161 0 min 0,000 mm 0,0 UV-I 0 W/m 16,6 C 19,0 C 0,0 km/h (0 Bft) 98,00 %
18.08.2017 01:24 18,9 C 24,4 C 86 % 1016,3 hPa 0,0 l/m 0,1 km/h (0 Bft) S-SO 161 0 min 0,000 mm 0,0 UV-I 0 W/m 16,5 C 18,9 C 1,6 km/h (1 Bft) 98,00 %
18.08.2017 01:26 18,9 C 24,4 C 87 % 1016,3 hPa 0,0 l/m 0,0 km/h (0 Bft) S-SO 161 0 min 0,000 mm 0,0 UV-I 0 W/m 16,7 C 18,9 C 0,0 km/h (0 Bft) 95,74 %
18.08.2017 01:28 18,8 C 24,4 C 87 % 1016,3 hPa 0,0 l/m 0,0 km/h (0 Bft) S-SO 161 0 min 0,000 mm 0,0 UV-I 0 W/m 16,6 C 18,8 C 0,0 km/h (0 Bft) 97,87 %
18.08.2017 01:30 18,7 C 24,4 C 87 % 1016,3 hPa 0,0 l/m 0,0 km/h (0 Bft) S-SO 161 0 min 0,000 mm 0,0 UV-I 0 W/m 16,5 C 18,7 C 0,0 km/h (0 Bft) 94,00 %
18.08.2017 01:32 18,7 C 24,4 C 87 % 1016,4 hPa 0,0 l/m 0,0 km/h (0 Bft) S-SO 161 0 min 0,000 mm 0,0 UV-I 0 W/m 16,5 C 18,7 C 0,0 km/h (0 Bft) 95,74 %
18.08.2017 01:34 18,7 C 24,4 C 87 % 1016,4 hPa 0,0 l/m 1,0 km/h (0 Bft) S-SO 161 0 min 0,000 mm 0,0 UV-I 0 W/m 16,5 C 18,7 C 3,2 km/h (1 Bft) 97,87 %
18.08.2017 01:36 18,6 C 24,4 C 87 % 1016,4 hPa 0,0 l/m 3,6 km/h (1 Bft) S-SO 159 0 min 0,000 mm 0,0 UV-I 0 W/m 16,4 C 18,6 C 6,4 km/h (2 Bft) 97,14 %
18.08.2017 01:38 18,5 C 24,4 C 88 % 1016,4 hPa 0,0 l/m 2,8 km/h (1 Bft) S-SO 159 0 min 0,000 mm 0,0 UV-I 0 W/m 16,5 C 18,5 C 3,2 km/h (1 Bft) 94,00 %
18.08.2017 01:40 18,4 C 24,4 C 88 % 1016,5 hPa 0,0 l/m 3,4 km/h (1 Bft) S-SO 159 0 min 0,000 mm 0,0 UV-I 0 W/m 16,4 C 18,4 C 6,4 km/h (2 Bft) 96,00 %
18.08.2017 01:42 18,4 C 24,4 C 88 % 1016,5 hPa 0,0 l/m 3,5 km/h (1 Bft) S-SO 159 0 min 0,000 mm 0,0 UV-I 0 W/m 16,4 C 18,4 C 6,4 km/h (2 Bft) 97,87 %
18.08.2017 01:44 18,4 C 24,4 C 89 % 1016,5 hPa 0,0 l/m 2,4 km/h (1 Bft) S-SO 159 0 min 0,000 mm 0,0 UV-I 0 W/m 16,6 C 18,4 C 3,2 km/h (1 Bft) 97,87 %
18.08.2017 01:46 18,4 C 24,4 C 88 % 1016,5 hPa 0,0 l/m 1,2 km/h (1 Bft) S-SO 159 0 min 0,000 mm 0,0 UV-I 0 W/m 16,4 C 18,4 C 3,2 km/h (1 Bft) 98,00 %
18.08.2017 01:48 18,4 C 24,4 C 89 % 1016,5 hPa 0,0 l/m 2,5 km/h (1 Bft) S-SO 159 0 min 0,000 mm 0,0 UV-I 0 W/m 16,6 C 18,4 C 6,4 km/h (2 Bft) 95,74 %
18.08.2017 01:50 18,4 C 24,4 C 89 % 1016,5 hPa 0,0 l/m 1,5 km/h (1 Bft) S-SO 159 0 min 0,000 mm 0,0 UV-I 0 W/m 16,6 C 18,4 C 3,2 km/h (1 Bft) 97,92 %
18.08.2017 01:52 18,4 C 24,4 C 89 % 1016,5 hPa 0,0 l/m 0,2 km/h (0 Bft) S-SO 159 0 min 0,000 mm 0,0 UV-I 0 W/m 16,6 C 18,4 C 1,6 km/h (1 Bft) 95,74 %
18.08.2017 01:54 18,4 C 24,4 C 89 % 1016,5 hPa 0,0 l/m 0,0 km/h (0 Bft) S-SO 159 0 min 0,000 mm 0,0 UV-I 0 W/m 16,6 C 18,4 C 0,0 km/h (0 Bft) 95,74 %
18.08.2017 01:56 18,4 C 24,4 C 89 % 1016,4 hPa 0,0 l/m 0,0 km/h (0 Bft) S-SO 159 0 min 0,000 mm 0,0 UV-I 0 W/m 16,6 C 18,4 C 0,0 km/h (0 Bft) 95,74 %
18.08.2017 01:58 18,4 C 24,4 C 89 % 1016,4 hPa 0,0 l/m 0,2 km/h (0 Bft) S-SO 159 0 min 0,000 mm 0,0 UV-I 0 W/m 16,6 C 18,4 C 1,6 km/h (1 Bft) 95,74 %
18.08.2017 02:00 18,4 C 24,4 C 89 % 1016,4 hPa 0,0 l/m 2,2 km/h (1 Bft) S-SO 159 0 min 0,000 mm 0,0 UV-I 0 W/m 16,6 C 18,4 C 3,2 km/h (1 Bft) 97,87 %
18.08.2017 02:02 18,4 C 24,4 C 89 % 1016,3 hPa 0,0 l/m 0,7 km/h (0 Bft) S-SO 159 0 min 0,000 mm 0,0 UV-I 0 W/m 16,6 C 18,4 C 3,2 km/h (1 Bft) 97,87 %
18.08.2017 02:04 18,4 C 24,4 C 89 % 1016,3 hPa 0,0 l/m 0,1 km/h (0 Bft) S-SO 159 0 min 0,000 mm 0,0 UV-I 0 W/m 16,6 C 18,4 C 1,6 km/h (1 Bft) 100,00 %
18.08.2017 02:06 18,4 C 24,4 C 89 % 1016,3 hPa 0,0 l/m 0,0 km/h (0 Bft) S-SO 159 0 min 0,000 mm 0,0 UV-I 0 W/m 16,6 C 18,4 C 0,0 km/h (0 Bft) 100,00 %
18.08.2017 02:08 18,4 C 24,4 C 89 % 1016,3 hPa 0,0 l/m 0,0 km/h (0 Bft) S-SO 159 0 min 0,000 mm 0,0 UV-I 0 W/m 16,6 C 18,4 C 0,0 km/h (0 Bft) 100,00 %
18.08.2017 02:10 18,3 C 23,9 C 89 % 1016,2 hPa 0,0 l/m 1,1 km/h (1 Bft) S-SO 159 0 min 0,000 mm 0,0 UV-I 0 W/m 16,5 C 18,3 C 3,2 km/h (1 Bft) 97,87 %
18.08.2017 02:12 18,3 C 24,4 C 89 % 1016,3 hPa 0,0 l/m 1,4 km/h (1 Bft) S-SO 159 0 min 0,000 mm 0,0 UV-I 0 W/m 16,5 C 18,3 C 3,2 km/h (1 Bft) 100,00 %
18.08.2017 02:14 18,3 C 23,9 C 89 % 1016,2 hPa 0,0 l/m 0,2 km/h (0 Bft) S-SO 159 0 min 0,000 mm 0,0 UV-I 0 W/m 16,5 C 18,3 C 1,6 km/h (1 Bft) 100,00 %
18.08.2017 02:16 18,2 C 23,9 C 89 % 1016,3 hPa 0,0 l/m 0,0 km/h (0 Bft) S-SO 159 0 min 0,000 mm 0,0 UV-I 0 W/m 16,4 C 18,2 C 1,6 km/h (1 Bft) 100,00 %
18.08.2017 02:18 18,1 C 23,9 C 89 % 1016,3 hPa 0,0 l/m 0,0 km/h (0 Bft) S-SO 159 0 min 0,000 mm 0,0 UV-I 0 W/m 16,3 C 18,1 C 0,0 km/h (0 Bft) 95,74 %
18.08.2017 02:20 18,0 C 23,9 C 89 % 1016,3 hPa 0,0 l/m 0,0 km/h (0 Bft) S-SO 159 0 min 0,000 mm 0,0 UV-I 0 W/m 16,2 C 18,0 C 0,0 km/h (0 Bft) 100,00 %
18.08.2017 02:22 17,9 C 23,9 C 89 % 1016,3 hPa 0,0 l/m 0,0 km/h (0 Bft) S-SO 159 0 min 0,000 mm 0,0 UV-I 0 W/m 16,1 C 17,9 C 0,0 km/h (0 Bft) 97,87 %
18.08.2017 02:24 17,9 C 23,9 C 89 % 1016,4 hPa 0,0 l/m 0,0 km/h (0 Bft) S-SO 159 0 min 0,000 mm 0,0 UV-I 0 W/m 16,1 C 17,9 C 0,0 km/h (0 Bft) 97,87 %
18.08.2017 02:26 17,9 C 23,9 C 90 % 1016,3 hPa 0,0 l/m 0,0 km/h (0 Bft) S-SO 159 0 min 0,000 mm 0,0 UV-I 0 W/m 16,2 C 17,9 C 0,0 km/h (0 Bft) 97,87 %
18.08.2017 02:28 17,9 C 23,9 C 90 % 1016,4 hPa 0,0 l/m 0,0 km/h (0 Bft) S-SO 159 0 min 0,000 mm 0,0 UV-I 0 W/m 16,2 C 17,9 C 0,0 km/h (0 Bft) 100,00 %
18.08.2017 02:30 17,8 C 23,9 C 90 % 1016,3 hPa 0,0 l/m 0,0 km/h (0 Bft) S-SO 159 0 min 0,000 mm 0,0 UV-I 0 W/m 16,1 C 17,8 C 0,0 km/h (0 Bft) 97,87 %
18.08.2017 02:32 17,8 C 23,9 C 90 % 1016,3 hPa 0,0 l/m 0,0 km/h (0 Bft) S-SO 159 0 min 0,000 mm 0,0 UV-I 0 W/m 16,1 C 17,8 C 0,0 km/h (0 Bft) 97,87 %
18.08.2017 02:34 17,8 C 23,9 C 90 % 1016,3 hPa 0,0 l/m 1,2 km/h (1 Bft) S-SO 159 0 min 0,000 mm 0,0 UV-I 0 W/m 16,1 C 17,8 C 3,2 km/h (1 Bft) 93,62 %
18.08.2017 02:36 17,8 C 23,9 C 90 % 1016,3 hPa 0,0 l/m 4,2 km/h (1 Bft) S-SO 159 0 min 0,000 mm 0,0 UV-I 0 W/m 16,1 C 17,8 C 6,4 km/h (2 Bft) 95,74 %
18.08.2017 02:38 17,7 C 23,9 C 90 % 1016,3 hPa 0,0 l/m 2,7 km/h (1 Bft) S-SO 159 0 min 0,000 mm 0,0 UV-I 0 W/m 16,0 C 17,7 C 3,2 km/h (1 Bft) 95,74 %
18.08.2017 02:40 17,7 C 23,9 C 90 % 1016,3 hPa 0,0 l/m 1,9 km/h (1 Bft) S-SO 159 0 min 0,000 mm 0,0 UV-I 0 W/m 16,0 C 17,7 C 3,2 km/h (1 Bft) 93,62 %
18.08.2017 02:42 17,7 C 23,9 C 90 % 1016,3 hPa 0,0 l/m 0,8 km/h (0 Bft) S-SO 159 0 min 0,000 mm 0,0 UV-I 0 W/m 16,0 C 17,7 C 3,2 km/h (1 Bft) 95,74 %
18.08.2017 02:44 17,7 C 23,9 C 90 % 1016,3 hPa 0,0 l/m 0,0 km/h (0 Bft) S-SO 159 0 min 0,000 mm 0,0 UV-I 0 W/m 16,0 C 17,7 C 1,6 km/h (1 Bft) 97,87 %
18.08.2017 02:46 17,6 C 23,9 C 90 % 1016,3 hPa 0,0 l/m 0,0 km/h (0 Bft) S-SO 159 0 min 0,000 mm 0,0 UV-I 0 W/m 15,9 C 17,6 C 0,0 km/h (0 Bft) 97,87 %
18.08.2017 02:48 17,6 C 23,9 C 91 % 1016,3 hPa 0,0 l/m 0,0 km/h (0 Bft) S-SO 159 0 min 0,000 mm 0,0 UV-I 0 W/m 16,1 C 17,6 C 0,0 km/h (0 Bft) 95,74 %
18.08.2017 02:50 17,5 C 23,9 C 91 % 1016,2 hPa 0,0 l/m 0,0 km/h (0 Bft) S-SO 159 0 min 0,000 mm 0,0 UV-I 0 W/m 16,0 C 17,5 C 0,0 km/h (0 Bft) 95,74 %
18.08.2017 02:52 17,5 C 23,9 C 91 % 1016,3 hPa 0,0 l/m 0,0 km/h (0 Bft) S-SO 159 0 min 0,000 mm 0,0 UV-I 0 W/m 16,0 C 17,5 C 0,0 km/h (0 Bft) 95,74 %
18.08.2017 02:54 17,5 C 23,9 C 91 % 1016,3 hPa 0,0 l/m 0,0 km/h (0 Bft) S-SO 159 0 min 0,000 mm 0,0 UV-I 0 W/m 16,0 C 17,5 C 0,0 km/h (0 Bft) 97,14 %
18.08.2017 02:56 17,4 C 23,9 C 91 % 1016,2 hPa 0,0 l/m 0,0 km/h (0 Bft) S-SO 159 0 min 0,000 mm 0,0 UV-I 0 W/m 15,9 C 17,4 C 0,0 km/h (0 Bft) 98,00 %
18.08.2017 02:58 17,4 C 23,9 C 91 % 1016,2 hPa 0,0 l/m 0,0 km/h (0 Bft) S-SO 159 0 min 0,000 mm 0,0 UV-I 0 W/m 15,9 C 17,4 C 0,0 km/h (0 Bft) 97,87 %
18.08.2017 03:00 17,4 C 23,9 C 91 % 1016,2 hPa 0,0 l/m 0,4 km/h (0 Bft) S-SO 159 0 min 0,000 mm 0,0 UV-I 0 W/m 15,9 C 17,4 C 1,6 km/h (1 Bft) 97,92 %
18.08.2017 03:02 17,4 C 23,9 C 91 % 1016,2 hPa 0,0 l/m 0,0 km/h (0 Bft) S-SO 159 0 min 0,000 mm 0,0 UV-I 0 W/m 15,9 C 17,4 C 0,0 km/h (0 Bft) 100,00 %
18.08.2017 03:04 17,4 C 23,9 C 91 % 1016,2 hPa 0,0 l/m 0,0 km/h (0 Bft) S-SO 159 0 min 0,000 mm 0,0 UV-I 0 W/m 15,9 C 17,4 C 0,0 km/h (0 Bft) 100,00 %
18.08.2017 03:06 17,4 C 23,9 C 91 % 1016,2 hPa 0,0 l/m 0,6 km/h (0 Bft) S-SO 159 0 min 0,000 mm 0,0 UV-I 0 W/m 15,9 C 17,4 C 1,6 km/h (1 Bft) 100,00 %
18.08.2017 03:08 17,3 C 23,9 C 91 % 1016,2 hPa 0,0 l/m 1,2 km/h (1 Bft) S-SO 159 0 min 0,000 mm 0,0 UV-I 0 W/m 15,8 C 17,3 C 3,2 km/h (1 Bft) 95,83 %
18.08.2017 03:10 17,3 C 23,9 C 91 % 1016,2 hPa 0,0 l/m 0,0 km/h (0 Bft) S-SO 159 0 min 0,000 mm 0,0 UV-I 0 W/m 15,8 C 17,3 C 0,0 km/h (0 Bft) 97,92 %
18.08.2017 03:12 17,3 C 23,9 C 91 % 1016,2 hPa 0,0 l/m 0,0 km/h (0 Bft) S-SO 159 0 min 0,000 mm 0,0 UV-I 0 W/m 15,8 C 17,3 C 0,0 km/h (0 Bft) 97,37 %
18.08.2017 03:14 17,3 C 23,9 C 91 % 1016,1 hPa 0,0 l/m 0,0 km/h (0 Bft) S-SO 159 0 min 0,000 mm 0,0 UV-I 0 W/m 15,8 C 17,3 C 1,6 km/h (1 Bft) 96,00 %
18.08.2017 03:16 17,3 C 23,9 C 91 % 1016,1 hPa 0,0 l/m 1,2 km/h (1 Bft) S-SO 159 0 min 0,000 mm 0,0 UV-I 0 W/m 15,8 C 17,3 C 3,2 km/h (1 Bft) 100,00 %
18.08.2017 03:18 17,2 C 23,9 C 92 % 1016,1 hPa 0,0 l/m 1,7 km/h (1 Bft) S-SO 159 0 min 0,000 mm 0,0 UV-I 0 W/m 15,9 C 17,2 C 3,2 km/h (1 Bft) 100,00 %
18.08.2017 03:20 17,2 C 23,9 C 91 % 1016,1 hPa 0,0 l/m 0,0 km/h (0 Bft) S-SO 159 0 min 0,000 mm 0,0 UV-I 0 W/m 15,7 C 17,2 C 0,0 km/h (0 Bft) 100,00 %
18.08.2017 03:22 17,2 C 23,9 C 91 % 1016,1 hPa 0,0 l/m 0,0 km/h (0 Bft) S-SO 159 0 min 0,000 mm 0,0 UV-I 0 W/m 15,7 C 17,2 C 0,0 km/h (0 Bft) 97,37 %
18.08.2017 03:24 17,2 C 23,9 C 92 % 1016,1 hPa 0,0 l/m 0,0 km/h (0 Bft) S-SO 159 0 min 0,000 mm 0,0 UV-I 0 W/m 15,9 C 17,2 C 0,0 km/h (0 Bft) 100,00 %
18.08.2017 03:26 17,2 C 23,9 C 92 % 1016,1 hPa 0,0 l/m 0,0 km/h (0 Bft) S-SO 159 0 min 0,000 mm 0,0 UV-I 0 W/m 15,9 C 17,2 C 0,0 km/h (0 Bft) 97,87 %
18.08.2017 03:28 17,2 C 23,9 C 92 % 1016,1 hPa 0,0 l/m 0,0 km/h (0 Bft) S-SO 159 0 min 0,000 mm 0,0 UV-I 0 W/m 15,9 C 17,2 C 0,0 km/h (0 Bft) 100,00 %
18.08.2017 03:30 17,2 C 23,9 C 92 % 1016,1 hPa 0,0 l/m 0,0 km/h (0 Bft) S-SO 159 0 min 0,000 mm 0,0 UV-I 0 W/m 15,9 C 17,2 C 0,0 km/h (0 Bft) 100,00 %
18.08.2017 03:32 17,1 C 23,9 C 92 % 1016,2 hPa 0,0 l/m 0,0 km/h (0 Bft) S-SO 159 0 min 0,000 mm 0,0 UV-I 0 W/m 15,8 C 17,1 C 0,0 km/h (0 Bft) 100,00 %
18.08.2017 03:34 17,1 C 23,9 C 92 % 1016,2 hPa 0,0 l/m 0,0 km/h (0 Bft) S-SO 159 0 min 0,000 mm 0,0 UV-I 0 W/m 15,8 C 17,1 C 0,0 km/h (0 Bft) 97,87 %
18.08.2017 03:36 17,2 C 23,9 C 92 % 1016,2 hPa 0,0 l/m 0,0 km/h (0 Bft) S-SO 159 0 min 0,000 mm 0,0 UV-I 0 W/m 15,9 C 17,2 C 0,0 km/h (0 Bft) 100,00 %
18.08.2017 03:38 17,1 C 23,9 C 92 % 1016,2 hPa 0,0 l/m 0,0 km/h (0 Bft) S-SO 159 0 min 0,000 mm 0,0 UV-I 0 W/m 15,8 C 17,1 C 0,0 km/h (0 Bft) 97,87 %
18.08.2017 03:40 17,1 C 23,9 C 92 % 1016,2 hPa 0,0 l/m 0,0 km/h (0 Bft) S-SO 159 0 min 0,000 mm 0,0 UV-I 0 W/m 15,8 C 17,1 C 0,0 km/h (0 Bft) 97,87 %
18.08.2017 03:42 17,1 C 23,9 C 92 % 1016,2 hPa 0,0 l/m 0,0 km/h (0 Bft) S-SO 159 0 min 0,000 mm 0,0 UV-I 0 W/m 15,8 C 17,1 C 0,0 km/h (0 Bft) 97,87 %
18.08.2017 03:44 17,1 C 23,9 C 92 % 1016,2 hPa 0,0 l/m 0,1 km/h (0 Bft) S-SO 159 0 min 0,000 mm 0,0 UV-I 0 W/m 15,8 C 17,1 C 1,6 km/h (1 Bft) 100,00 %
18.08.2017 03:46 17,0 C 23,9 C 92 % 1016,2 hPa 0,0 l/m 0,5 km/h (0 Bft) S-SO 159 0 min 0,000 mm 0,0 UV-I 0 W/m 15,7 C 17,0 C 1,6 km/h (1 Bft) 95,74 %
18.08.2017 03:48 17,0 C 23,9 C 92 % 1016,2 hPa 0,0 l/m 0,0 km/h (0 Bft) S-SO 159 0 min 0,000 mm 0,0 UV-I 0 W/m 15,7 C 17,0 C 0,0 km/h (0 Bft) 100,00 %
18.08.2017 03:50 17,0 C 23,9 C 92 % 1016,2 hPa 0,0 l/m 0,0 km/h (0 Bft) S-SO 159 0 min 0,000 mm 0,0 UV-I 0 W/m 15,7 C 17,0 C 0,0 km/h (0 Bft) 100,00 %
18.08.2017 03:52 17,0 C 23,9 C 92 % 1016,2 hPa 0,0 l/m 0,0 km/h (0 Bft) S-SO 159 0 min 0,000 mm 0,0 UV-I 0 W/m 15,7 C 17,0 C 0,0 km/h (0 Bft) 100,00 %
18.08.2017 03:54 17,0 C 23,9 C 92 % 1016,2 hPa 0,0 l/m 0,0 km/h (0 Bft) S-SO 159 0 min 0,000 mm 0,0 UV-I 0 W/m 15,7 C 17,0 C 0,0 km/h (0 Bft) 100,00 %
18.08.2017 03:56 17,0 C 23,9 C 92 % 1016,2 hPa 0,0 l/m 0,0 km/h (0 Bft) S-SO 159 0 min 0,000 mm 0,0 UV-I 0 W/m 15,7 C 17,0 C 0,0 km/h (0 Bft) 100,00 %
18.08.2017 03:59 16,9 C 23,9 C 92 % 1016,2 hPa 0,0 l/m 0,0 km/h (0 Bft) S-SO 159 0 min 0,000 mm 0,0 UV-I 0 W/m 15,6 C 16,9 C 0,0 km/h (0 Bft) 98,57 %
18.08.2017 04:00 16,9 C 23,9 C 92 % 1016,2 hPa 0,0 l/m 0,0 km/h (0 Bft) S-SO 159 0 min 0,000 mm 0,0 UV-I 0 W/m 15,6 C 16,9 C 0,0 km/h (0 Bft) 100,00 %
18.08.2017 04:02 16,9 C 23,9 C 92 % 1016,2 hPa 0,0 l/m 0,0 km/h (0 Bft) S-SO 159 0 min 0,000 mm 0,0 UV-I 0 W/m 15,6 C 16,9 C 1,6 km/h (1 Bft) 100,00 %
18.08.2017 04:04 16,9 C 23,9 C 92 % 1016,2 hPa 0,0 l/m 0,0 km/h (0 Bft) S-SO 159 0 min 0,000 mm 0,0 UV-I 0 W/m 15,6 C 16,9 C 0,0 km/h (0 Bft) 100,00 %
18.08.2017 04:06 16,9 C 23,9 C 92 % 1016,1 hPa 0,0 l/m 0,0 km/h (0 Bft) S-SO 159 0 min 0,000 mm 0,0 UV-I 0 W/m 15,6 C 16,9 C 0,0 km/h (0 Bft) 100,00 %
18.08.2017 04:08 16,9 C 23,9 C 92 % 1016,1 hPa 0,0 l/m 0,0 km/h (0 Bft) S-SO 159 0 min 0,000 mm 0,0 UV-I 0 W/m 15,6 C 16,9 C 0,0 km/h (0 Bft) 100,00 %
18.08.2017 04:10 16,9 C 23,9 C 92 % 1016,0 hPa 0,0 l/m 0,0 km/h (0 Bft) S-SO 159 0 min 0,000 mm 0,0 UV-I 0 W/m 15,6 C 16,9 C 0,0 km/h (0 Bft) 100,00 %
18.08.2017 04:12 16,9 C 23,9 C 92 % 1016,1 hPa 0,0 l/m 0,0 km/h (0 Bft) S-SO 159 0 min 0,000 mm 0,0 UV-I 0 W/m 15,6 C 16,9 C 0,0 km/h (0 Bft) 97,87 %
18.08.2017 04:14 16,9 C 23,9 C 92 % 1016,1 hPa 0,0 l/m 0,0 km/h (0 Bft) S-SO 159 0 min 0,000 mm 0,0 UV-I 0 W/m 15,6 C 16,9 C 0,0 km/h (0 Bft) 100,00 %
18.08.2017 04:16 16,9 C 23,9 C 92 % 1016,1 hPa 0,0 l/m 0,0 km/h (0 Bft) S-SO 159 0 min 0,000 mm 0,0 UV-I 0 W/m 15,6 C 16,9 C 0,0 km/h (0 Bft) 100,00 %
18.08.2017 04:18 16,9 C 23,9 C 92 % 1016,0 hPa 0,0 l/m 0,0 km/h (0 Bft) S-SO 159 0 min 0,000 mm 0,0 UV-I 0 W/m 15,6 C 16,9 C 0,0 km/h (0 Bft) 97,87 %
18.08.2017 04:20 16,9 C 23,9 C 92 % 1016,0 hPa 0,0 l/m 0,0 km/h (0 Bft) S-SO 159 0 min 0,000 mm 0,0 UV-I 0 W/m 15,6 C 16,9 C 0,0 km/h (0 Bft) 100,00 %
18.08.2017 04:22 16,9 C 23,9 C 92 % 1016,0 hPa 0,0 l/m 0,0 km/h (0 Bft) S-SO 159 0 min 0,000 mm 0,0 UV-I 0 W/m 15,6 C 16,9 C 0,0 km/h (0 Bft) 100,00 %
18.08.2017 04:24 16,9 C 23,9 C 92 % 1016,0 hPa 0,0 l/m 0,0 km/h (0 Bft) S-SO 159 0 min 0,000 mm 0,0 UV-I 0 W/m 15,6 C 16,9 C 0,0 km/h (0 Bft) 100,00 %
18.08.2017 04:26 16,9 C 23,9 C 92 % 1016,0 hPa 0,0 l/m 0,0 km/h (0 Bft) S-SO 159 0 min 0,000 mm 0,0 UV-I 0 W/m 15,6 C 16,9 C 0,0 km/h (0 Bft) 95,74 %
18.08.2017 04:28 16,8 C 23,9 C 92 % 1016,1 hPa 0,0 l/m 0,0 km/h (0 Bft) S-SO 159 0 min 0,000 mm 0,0 UV-I 0 W/m 15,5 C 16,8 C 0,0 km/h (0 Bft) 95,74 %
18.08.2017 04:30 16,8 C 23,9 C 92 % 1016,0 hPa 0,0 l/m 0,0 km/h (0 Bft) S-SO 159 0 min 0,000 mm 0,0 UV-I 0 W/m 15,5 C 16,8 C 0,0 km/h (0 Bft) 98,00 %
18.08.2017 04:32 16,8 C 23,9 C 92 % 1016,0 hPa 0,0 l/m 0,0 km/h (0 Bft) S-SO 159 0 min 0,000 mm 0,0 UV-I 0 W/m 15,5 C 16,8 C 0,0 km/h (0 Bft) 97,87 %
18.08.2017 04:34 16,8 C 23,9 C 92 % 1015,9 hPa 0,0 l/m 0,0 km/h (0 Bft) S-SO 159 0 min 0,000 mm 0,0 UV-I 0 W/m 15,5 C 16,8 C 0,0 km/h (0 Bft) 97,87 %
18.08.2017 04:36 16,8 C 23,9 C 92 % 1015,9 hPa 0,0 l/m 0,0 km/h (0 Bft) S-SO 159 0 min 0,000 mm 0,0 UV-I 0 W/m 15,5 C 16,8 C 0,0 km/h (0 Bft) 95,74 %
18.08.2017 04:38 16,8 C 23,9 C 92 % 1015,9 hPa 0,0 l/m 0,0 km/h (0 Bft) S-SO 159 0 min 0,000 mm 0,0 UV-I 0 W/m 15,5 C 16,8 C 0,0 km/h (0 Bft) 91,49 %
18.08.2017 04:40 16,8 C 23,9 C 92 % 1015,9 hPa 0,0 l/m 0,0 km/h (0 Bft) S-SO 159 0 min 0,000 mm 0,0 UV-I 0 W/m 15,5 C 16,8 C 0,0 km/h (0 Bft) 91,49 %
18.08.2017 04:42 16,8 C 23,9 C 91 % 1015,9 hPa 0,0 l/m 0,0 km/h (0 Bft) S-SO 159 0 min 0,000 mm 0,0 UV-I 0 W/m 15,3 C 16,8 C 0,0 km/h (0 Bft) 95,74 %
18.08.2017 04:44 16,7 C 23,9 C 91 % 1015,9 hPa 0,0 l/m 0,0 km/h (0 Bft) S-SO 159 0 min 0,000 mm 0,0 UV-I 0 W/m 15,2 C 16,7 C 0,0 km/h (0 Bft) 93,62 %
18.08.2017 04:46 16,7 C 23,9 C 91 % 1015,9 hPa 0,0 l/m 0,0 km/h (0 Bft) S-SO 159 0 min 0,000 mm 0,0 UV-I 0 W/m 15,2 C 16,7 C 0,0 km/h (0 Bft) 95,74 %
18.08.2017 04:48 16,7 C 23,9 C 91 % 1015,9 hPa 0,0 l/m 0,0 km/h (0 Bft) S-SO 159 0 min 0,000 mm 0,0 UV-I 0 W/m 15,2 C 16,7 C 0,0 km/h (0 Bft) 95,74 %
18.08.2017 04:50 16,7 C 23,9 C 91 % 1015,9 hPa 0,0 l/m 0,0 km/h (0 Bft) S-SO 159 0 min 0,000 mm 0,0 UV-I 0 W/m 15,2 C 16,7 C 0,0 km/h (0 Bft) 91,43 %
18.08.2017 04:52 16,7 C 23,9 C 91 % 1015,9 hPa 0,0 l/m 0,0 km/h (0 Bft) S-SO 159 0 min 0,000 mm 0,0 UV-I 0 W/m 15,2 C 16,7 C 0,0 km/h (0 Bft) 96,77 %
18.08.2017 04:54 16,7 C 23,9 C 91 % 1015,9 hPa 0,0 l/m 0,0 km/h (0 Bft) S-SO 159 0 min 0,000 mm 0,0 UV-I 0 W/m 15,2 C 16,7 C 0,0 km/h (0 Bft) 94,74 %
18.08.2017 04:56 16,7 C 23,9 C 91 % 1015,9 hPa 0,0 l/m 0,0 km/h (0 Bft) S-SO 159 0 min 0,000 mm 0,0 UV-I 0 W/m 15,2 C 16,7 C 0,0 km/h (0 Bft) 95,74 %
18.08.2017 04:58 16,7 C 23,9 C 91 % 1015,9 hPa 0,0 l/m 0,0 km/h (0 Bft) S-SO 159 0 min 0,000 mm 0,0 UV-I 0 W/m 15,2 C 16,7 C 0,0 km/h (0 Bft) 93,62 %
18.08.2017 05:00 16,7 C 23,9 C 91 % 1015,9 hPa 0,0 l/m 0,0 km/h (0 Bft) S-SO 159 0 min 0,000 mm 0,0 UV-I 0 W/m 15,2 C 16,7 C 0,0 km/h (0 Bft) 97,92 %
18.08.2017 05:02 16,7 C 23,9 C 92 % 1016,0 hPa 0,0 l/m 0,0 km/h (0 Bft) S-SO 159 0 min 0,000 mm 0,0 UV-I 0 W/m 15,4 C 16,7 C 0,0 km/h (0 Bft) 95,74 %
18.08.2017 05:04 16,7 C 23,9 C 92 % 1015,9 hPa 0,0 l/m 0,0 km/h (0 Bft) S-SO 159 0 min 0,000 mm 0,0 UV-I 0 W/m 15,4 C 16,7 C 0,0 km/h (0 Bft) 97,87 %
18.08.2017 05:06 16,7 C 23,9 C 92 % 1015,9 hPa 0,0 l/m 0,0 km/h (0 Bft) S-SO 159 0 min 0,000 mm 0,0 UV-I 0 W/m 15,4 C 16,7 C 0,0 km/h (0 Bft) 97,87 %
18.08.2017 05:08 16,6 C 23,9 C 92 % 1016,0 hPa 0,0 l/m 0,0 km/h (0 Bft) S-SO 159 0 min 0,000 mm 0,0 UV-I 0 W/m 15,3 C 16,6 C 0,0 km/h (0 Bft) 93,62 %
18.08.2017 05:10 16,6 C 23,9 C 92 % 1015,9 hPa 0,0 l/m 0,0 km/h (0 Bft) S-SO 159 0 min 0,000 mm 0,0 UV-I 0 W/m 15,3 C 16,6 C 0,0 km/h (0 Bft) 98,00 %
18.08.2017 05:12 16,6 C 23,9 C 92 % 1015,9 hPa 0,0 l/m 0,0 km/h (0 Bft) S-SO 159 0 min 0,000 mm 0,0 UV-I 0 W/m 15,3 C 16,6 C 0,0 km/h (0 Bft) 97,87 %
18.08.2017 05:14 16,6 C 23,9 C 92 % 1015,9 hPa 0,0 l/m 0,0 km/h (0 Bft) S-SO 159 0 min 0,000 mm 0,0 UV-I 0 W/m 15,3 C 16,6 C 0,0 km/h (0 Bft) 97,87 %
18.08.2017 05:16 16,6 C 23,9 C 92 % 1015,9 hPa 0,0 l/m 0,0 km/h (0 Bft) S-SO 159 0 min 0,000 mm 0,0 UV-I 0 W/m 15,3 C 16,6 C 0,0 km/h (0 Bft) 97,87 %
18.08.2017 05:18 16,5 C 23,9 C 92 % 1016,0 hPa 0,0 l/m 0,0 km/h (0 Bft) S-SO 159 0 min 0,000 mm 0,0 UV-I 0 W/m 15,2 C 16,5 C 0,0 km/h (0 Bft) 97,87 %
18.08.2017 05:20 16,5 C 23,9 C 92 % 1016,1 hPa 0,0 l/m 0,0 km/h (0 Bft) S-SO 159 0 min 0,000 mm 0,0 UV-I 0 W/m 15,2 C 16,5 C 0,0 km/h (0 Bft) 96,00 %
18.08.2017 05:22 16,5 C 23,9 C 92 % 1016,1 hPa 0,0 l/m 0,0 km/h (0 Bft) S-SO 159 0 min 0,000 mm 0,0 UV-I 0 W/m 15,2 C 16,5 C 0,0 km/h (0 Bft) 97,87 %
18.08.2017 05:24 16,5 C 23,9 C 92 % 1016,1 hPa 0,0 l/m 0,0 km/h (0 Bft) S-SO 159 0 min 0,000 mm 0,0 UV-I 0 W/m 15,2 C 16,5 C 0,0 km/h (0 Bft) 95,74 %
18.08.2017 05:26 16,5 C 23,9 C 92 % 1016,2 hPa 0,0 l/m 0,0 km/h (0 Bft) S-SO 159 0 min 0,000 mm 0,0 UV-I 0 W/m 15,2 C 16,5 C 0,0 km/h (0 Bft) 93,62 %
18.08.2017 05:28 16,4 C 23,9 C 92 % 1016,2 hPa 0,0 l/m 0,0 km/h (0 Bft) S-SO 159 0 min 0,000 mm 0,0 UV-I 0 W/m 15,1 C 16,4 C 0,0 km/h (0 Bft) 97,87 %
18.08.2017 05:30 16,4 C 23,9 C 92 % 1016,1 hPa 0,0 l/m 0,0 km/h (0 Bft) S-SO 159 0 min 0,000 mm 0,0 UV-I 0 W/m 15,1 C 16,4 C 0,0 km/h (0 Bft) 93,62 %
18.08.2017 05:32 16,4 C 23,9 C 92 % 1016,1 hPa 0,0 l/m 0,0 km/h (0 Bft) S-SO 159 0 min 0,000 mm 0,0 UV-I 0 W/m 15,1 C 16,4 C 0,0 km/h (0 Bft) 100,00 %
18.08.2017 05:34 16,4 C 23,9 C 92 % 1016,1 hPa 0,0 l/m 0,0 km/h (0 Bft) S-SO 159 0 min 0,000 mm 0,0 UV-I 0 W/m 15,1 C 16,4 C 0,0 km/h (0 Bft) 97,87 %
18.08.2017 05:36 16,4 C 23,9 C 92 % 1016,1 hPa 0,0 l/m 0,0 km/h (0 Bft) S-SO 159 0 min 0,000 mm 0,0 UV-I 0 W/m 15,1 C 16,4 C 0,0 km/h (0 Bft) 96,00 %
18.08.2017 05:38 16,4 C 23,9 C 92 % 1016,1 hPa 0,0 l/m 0,0 km/h (0 Bft) S-SO 159 0 min 0,000 mm 0,0 UV-I 0 W/m 15,1 C 16,4 C 0,0 km/h (0 Bft) 97,87 %
18.08.2017 05:40 16,4 C 23,9 C 92 % 1016,2 hPa 0,0 l/m 0,0 km/h (0 Bft) S-SO 159 0 min 0,000 mm 0,0 UV-I 0 W/m 15,1 C 16,4 C 0,0 km/h (0 Bft) 100,00 %
18.08.2017 05:42 16,3 C 23,9 C 92 % 1016,2 hPa 0,0 l/m 0,0 km/h (0 Bft) S-SO 159 0 min 0,000 mm 0,0 UV-I 0 W/m 15,0 C 16,3 C 0,0 km/h (0 Bft) 100,00 %
18.08.2017 05:44 16,3 C 23,9 C 92 % 1016,2 hPa 0,0 l/m 0,0 km/h (0 Bft) S-SO 159 0 min 0,000 mm 0,0 UV-I 0 W/m 15,0 C 16,3 C 0,0 km/h (0 Bft) 100,00 %
18.08.2017 05:46 16,3 C 23,9 C 92 % 1016,2 hPa 0,0 l/m 0,0 km/h (0 Bft) S-SO 159 0 min 0,000 mm 0,0 UV-I 0 W/m 15,0 C 16,3 C 0,0 km/h (0 Bft) 100,00 %
18.08.2017 05:48 16,3 C 23,9 C 92 % 1016,2 hPa 0,0 l/m 0,0 km/h (0 Bft) S-SO 159 0 min 0,000 mm 0,0 UV-I 0 W/m 15,0 C 16,3 C 0,0 km/h (0 Bft) 100,00 %
18.08.2017 05:50 16,3 C 23,9 C 92 % 1016,2 hPa 0,0 l/m 0,0 km/h (0 Bft) S-SO 159 0 min 0,000 mm 0,0 UV-I 1 W/m 15,0 C 16,3 C 0,0 km/h (0 Bft) 97,87 %
18.08.2017 05:52 16,3 C 23,9 C 92 % 1016,2 hPa 0,0 l/m 0,0 km/h (0 Bft) S-SO 159 0 min 0,000 mm 0,0 UV-I 5 W/m 15,0 C 16,3 C 0,0 km/h (0 Bft) 97,87 %
18.08.2017 05:54 16,3 C 23,9 C 92 % 1016,1 hPa 0,0 l/m 0,0 km/h (0 Bft) S-SO 159 0 min 0,000 mm 0,0 UV-I 7 W/m 15,0 C 16,3 C 0,0 km/h (0 Bft) 97,87 %
18.08.2017 05:56 16,3 C 23,9 C 92 % 1016,2 hPa 0,0 l/m 0,0 km/h (0 Bft) S-SO 159 0 min 0,000 mm 0,0 UV-I 7 W/m 15,0 C 16,3 C 0,0 km/h (0 Bft) 100,00 %
18.08.2017 05:58 16,3 C 23,9 C 92 % 1016,2 hPa 0,0 l/m 0,0 km/h (0 Bft) S-SO 159 0 min 0,000 mm 0,0 UV-I 8 W/m 15,0 C 16,3 C 0,0 km/h (0 Bft) 100,00 %
18.08.2017 06:00 16,3 C 23,9 C 92 % 1016,2 hPa 0,0 l/m 0,0 km/h (0 Bft) S-SO 159 0 min 0,000 mm 0,0 UV-I 9 W/m 15,0 C 16,3 C 0,0 km/h (0 Bft) 100,00 %
18.08.2017 06:02 16,2 C 23,9 C 92 % 1016,2 hPa 0,0 l/m 0,0 km/h (0 Bft) S-SO 159 0 min 0,000 mm 0,0 UV-I 9 W/m 14,9 C 16,2 C 0,0 km/h (0 Bft) 100,00 %
18.08.2017 06:04 16,2 C 23,9 C 92 % 1016,3 hPa 0,0 l/m 0,0 km/h (0 Bft) S-SO 159 0 min 0,000 mm 0,0 UV-I 9 W/m 14,9 C 16,2 C 0,0 km/h (0 Bft) 97,87 %
18.08.2017 06:06 16,2 C 23,9 C 92 % 1016,2 hPa 0,0 l/m 0,0 km/h (0 Bft) S-SO 159 0 min 0,000 mm 0,0 UV-I 9 W/m 14,9 C 16,2 C 0,0 km/h (0 Bft) 97,87 %
18.08.2017 06:08 16,2 C 23,9 C 92 % 1016,3 hPa 0,0 l/m 0,0 km/h (0 Bft) S-SO 159 0 min 0,000 mm 0,0 UV-I 11 W/m 14,9 C 16,2 C 0,0 km/h (0 Bft) 100,00 %
18.08.2017 06:10 16,2 C 23,9 C 92 % 1016,3 hPa 0,0 l/m 0,0 km/h (0 Bft) S-SO 159 0 min 0,000 mm 0,0 UV-I 12 W/m 14,9 C 16,2 C 0,0 km/h (0 Bft) 100,00 %
18.08.2017 06:12 16,2 C 23,9 C 93 % 1016,3 hPa 0,0 l/m 0,0 km/h (0 Bft) S-SO 159 0 min 0,000 mm 0,0 UV-I 13 W/m 15,1 C 16,2 C 0,0 km/h (0 Bft) 100,00 %
18.08.2017 06:14 16,2 C 23,9 C 93 % 1016,3 hPa 0,0 l/m 0,0 km/h (0 Bft) S-SO 159 2 min 0,000 mm 0,0 UV-I 15 W/m 15,1 C 16,2 C 0,0 km/h (0 Bft) 100,00 %
18.08.2017 06:16 16,2 C 23,9 C 93 % 1016,3 hPa 0,0 l/m 0,0 km/h (0 Bft) S-SO 159 2 min 0,000 mm 0,0 UV-I 18 W/m 15,1 C 16,2 C 0,0 km/h (0 Bft) 100,00 %
18.08.2017 06:18 16,2 C 23,9 C 93 % 1016,4 hPa 0,0 l/m 0,0 km/h (0 Bft) S-SO 159 2 min 0,000 mm 0,0 UV-I 21 W/m 15,1 C 16,2 C 0,0 km/h (0 Bft) 97,92 %
18.08.2017 06:20 16,1 C 23,9 C 93 % 1016,4 hPa 0,0 l/m 0,0 km/h (0 Bft) S-SO 159 2 min 0,000 mm 0,0 UV-I 22 W/m 15,0 C 16,1 C 0,0 km/h (0 Bft) 97,96 %
18.08.2017 06:22 16,1 C 23,9 C 93 % 1016,4 hPa 0,0 l/m 0,0 km/h (0 Bft) S-SO 159 2 min 0,000 mm 0,0 UV-I 26 W/m 15,0 C 16,1 C 0,0 km/h (0 Bft) 97,92 %
18.08.2017 06:24 16,1 C 23,9 C 93 % 1016,4 hPa 0,0 l/m 0,0 km/h (0 Bft) S-SO 159 2 min 0,000 mm 0,0 UV-I 31 W/m 15,0 C 16,1 C 0,0 km/h (0 Bft) 97,87 %
18.08.2017 06:26 16,0 C 23,9 C 93 % 1016,3 hPa 0,0 l/m 0,0 km/h (0 Bft) S-SO 159 2 min 0,000 mm 0,0 UV-I 29 W/m 14,9 C 16,0 C 0,0 km/h (0 Bft) 95,74 %
18.08.2017 06:28 16,0 C 23,9 C 93 % 1016,3 hPa 0,0 l/m 0,0 km/h (0 Bft) S-SO 159 0 min 0,000 mm 0,0 UV-I 30 W/m 14,9 C 16,0 C 0,0 km/h (0 Bft) 97,87 %
18.08.2017 06:30 15,9 C 23,9 C 93 % 1016,4 hPa 0,0 l/m 0,0 km/h (0 Bft) S-SO 159 0 min 0,000 mm 0,0 UV-I 32 W/m 14,8 C 15,9 C 0,0 km/h (0 Bft) 93,62 %
18.08.2017 06:32 15,9 C 23,9 C 93 % 1016,4 hPa 0,0 l/m 0,0 km/h (0 Bft) S-SO 159 2 min 0,000 mm 0,0 UV-I 39 W/m 14,8 C 15,9 C 0,0 km/h (0 Bft) 95,74 %
18.08.2017 06:34 15,9 C 23,9 C 93 % 1016,5 hPa 0,0 l/m 0,0 km/h (0 Bft) S-SO 159 2 min 0,000 mm 0,0 UV-I 42 W/m 14,8 C 15,9 C 0,0 km/h (0 Bft) 97,87 %
18.08.2017 06:36 15,9 C 23,9 C 93 % 1016,4 hPa 0,0 l/m 0,0 km/h (0 Bft) S-SO 159 2 min 0,000 mm 0,0 UV-I 44 W/m 14,8 C 15,9 C 0,0 km/h (0 Bft) 97,87 %
18.08.2017 06:38 15,9 C 23,9 C 93 % 1016,5 hPa 0,0 l/m 0,0 km/h (0 Bft) S-SO 159 0 min 0,000 mm 0,0 UV-I 44 W/m 14,8 C 15,9 C 0,0 km/h (0 Bft) 94,00 %
18.08.2017 06:40 15,9 C 23,9 C 93 % 1016,5 hPa 0,0 l/m 0,7 km/h (0 Bft) S-SO 159 0 min 0,000 mm 0,0 UV-I 48 W/m 14,8 C 15,9 C 1,6 km/h (1 Bft) 97,87 %
18.08.2017 06:42 15,9 C 23,9 C 94 % 1016,6 hPa 0,0 l/m 0,5 km/h (0 Bft) S-SO 159 2 min 0,000 mm 0,0 UV-I 56 W/m 14,9 C 15,9 C 1,6 km/h (1 Bft) 97,87 %
18.08.2017 06:44 16,0 C 23,9 C 94 % 1016,5 hPa 0,0 l/m 0,0 km/h (0 Bft) S-SO 159 2 min 0,000 mm 0,0 UV-I 59 W/m 15,0 C 16,0 C 1,6 km/h (1 Bft) 95,74 %
18.08.2017 06:46 16,1 C 23,9 C 94 % 1016,5 hPa 0,0 l/m 0,0 km/h (0 Bft) S-SO 159 2 min 0,000 mm 0,0 UV-I 61 W/m 15,1 C 16,1 C 0,0 km/h (0 Bft) 93,62 %
18.08.2017 06:48 16,2 C 23,9 C 94 % 1016,5 hPa 0,0 l/m 0,0 km/h (0 Bft) S-SO 159 0 min 0,000 mm 0,0 UV-I 59 W/m 15,2 C 16,2 C 0,0 km/h (0 Bft) 97,37 %
18.08.2017 06:50 16,2 C 23,9 C 94 % 1016,5 hPa 0,0 l/m 0,0 km/h (0 Bft) S-SO 159 0 min 0,000 mm 0,0 UV-I 55 W/m 15,2 C 16,2 C 0,0 km/h (0 Bft) 97,87 %
18.08.2017 06:52 16,3 C 23,9 C 94 % 1016,6 hPa 0,0 l/m 0,0 km/h (0 Bft) S-SO 159 0 min 0,000 mm 0,0 UV-I 53 W/m 15,3 C 16,3 C 0,0 km/h (0 Bft) 95,74 %
18.08.2017 06:54 16,3 C 23,9 C 94 % 1016,5 hPa 0,0 l/m 0,0 km/h (0 Bft) S-SO 159 0 min 0,000 mm 0,0 UV-I 66 W/m 15,3 C 16,3 C 0,0 km/h (0 Bft) 97,87 %
18.08.2017 06:56 16,3 C 23,9 C 94 % 1016,6 hPa 0,0 l/m 0,0 km/h (0 Bft) S-SO 159 2 min 0,000 mm 0,0 UV-I 81 W/m 15,3 C 16,3 C 0,0 km/h (0 Bft) 97,87 %
18.08.2017 06:58 16,3 C 23,9 C 94 % 1016,6 hPa 0,0 l/m 0,0 km/h (0 Bft) S-SO 159 2 min 0,000 mm 0,0 UV-I 89 W/m 15,3 C 16,3 C 0,0 km/h (0 Bft) 95,83 %
18.08.2017 07:00 16,4 C 23,9 C 94 % 1016,6 hPa 0,0 l/m 0,0 km/h (0 Bft) S-SO 159 2 min 0,025 mm 0,0 UV-I 80 W/m 15,4 C 16,4 C 0,0 km/h (0 Bft) 97,87 %
18.08.2017 07:02 16,4 C 23,9 C 93 % 1016,6 hPa 0,0 l/m 0,0 km/h (0 Bft) S-SO 159 2 min 0,000 mm 0,0 UV-I 83 W/m 15,3 C 16,4 C 0,0 km/h (0 Bft) 100,00 %
18.08.2017 07:04 16,4 C 23,9 C 93 % 1016,6 hPa 0,0 l/m 0,0 km/h (0 Bft) S-SO 159 2 min 0,000 mm 0,0 UV-I 96 W/m 15,3 C 16,4 C 0,0 km/h (0 Bft) 100,00 %
18.08.2017 07:06 16,4 C 23,9 C 94 % 1016,5 hPa 0,0 l/m 0,0 km/h (0 Bft) S-SO 159 2 min 0,000 mm 0,0 UV-I 96 W/m 15,4 C 16,4 C 0,0 km/h (0 Bft) 100,00 %
18.08.2017 07:08 16,5 C 23,9 C 94 % 1016,5 hPa 0,0 l/m 0,0 km/h (0 Bft) S-SO 159 2 min 0,000 mm 0,0 UV-I 98 W/m 15,5 C 16,5 C 0,0 km/h (0 Bft) 100,00 %
18.08.2017 07:10 16,5 C 23,9 C 94 % 1016,5 hPa 0,0 l/m 0,0 km/h (0 Bft) S-SO 159 2 min 0,000 mm 0,0 UV-I 117 W/m 15,5 C 16,5 C 0,0 km/h (0 Bft) 100,00 %
18.08.2017 07:12 16,6 C 23,9 C 94 % 1016,4 hPa 0,0 l/m 0,0 km/h (0 Bft) S-SO 159 2 min 0,000 mm 0,0 UV-I 138 W/m 15,6 C 16,6 C 0,0 km/h (0 Bft) 100,00 %
18.08.2017 07:14 16,7 C 23,9 C 94 % 1016,4 hPa 0,0 l/m 0,0 km/h (0 Bft) S-SO 159 2 min 0,000 mm 0,0 UV-I 123 W/m 15,7 C 16,7 C 0,0 km/h (0 Bft) 100,00 %
18.08.2017 07:16 16,7 C 23,9 C 94 % 1016,4 hPa 0,0 l/m 1,5 km/h (1 Bft) S-SO 159 0 min 0,000 mm 0,0 UV-I 104 W/m 15,7 C 16,7 C 3,2 km/h (1 Bft) 100,00 %
18.08.2017 07:18 16,9 C 23,9 C 94 % 1016,4 hPa 0,0 l/m 0,4 km/h (0 Bft) S-SO 159 0 min 0,000 mm 0,0 UV-I 104 W/m 15,9 C 16,9 C 1,6 km/h (1 Bft) 97,87 %
18.08.2017 07:20 17,0 C 23,9 C 94 % 1016,4 hPa 0,0 l/m 0,6 km/h (0 Bft) S-SO 159 2 min 0,000 mm 0,0 UV-I 119 W/m 16,0 C 17,0 C 3,2 km/h (1 Bft) 100,00 %
18.08.2017 07:22 17,2 C 23,9 C 94 % 1016,4 hPa 0,0 l/m 0,0 km/h (0 Bft) S-SO 159 0 min 0,000 mm 0,0 UV-I 99 W/m 16,2 C 17,2 C 0,0 km/h (0 Bft) 100,00 %
18.08.2017 07:24 17,3 C 23,9 C 93 % 1016,5 hPa 0,0 l/m 0,0 km/h (0 Bft) S-SO 159 0 min 0,000 mm 0,0 UV-I 100 W/m 16,2 C 17,3 C 0,0 km/h (0 Bft) 100,00 %
18.08.2017 07:26 17,3 C 23,9 C 93 % 1016,4 hPa 0,0 l/m 0,0 km/h (0 Bft) S-SO 159 0 min 0,000 mm 0,0 UV-I 114 W/m 16,2 C 17,3 C 0,0 km/h (0 Bft) 100,00 %
18.08.2017 07:28 17,4 C 23,9 C 93 % 1016,5 hPa 0,0 l/m 0,0 km/h (0 Bft) S-SO 159 0 min 0,000 mm 0,0 UV-I 117 W/m 16,3 C 17,4 C 0,0 km/h (0 Bft) 100,00 %
18.08.2017 07:30 17,4 C 23,9 C 93 % 1016,5 hPa 0,0 l/m 0,0 km/h (0 Bft) S-SO 159 0 min 0,000 mm 0,0 UV-I 95 W/m 16,3 C 17,4 C 0,0 km/h (0 Bft) 100,00 %
18.08.2017 07:32 17,5 C 23,9 C 93 % 1016,5 hPa 0,0 l/m 0,0 km/h (0 Bft) S-SO 159 0 min 0,000 mm 0,0 UV-I 99 W/m 16,4 C 17,5 C 0,0 km/h (0 Bft) 100,00 %
18.08.2017 07:34 17,6 C 23,9 C 93 % 1016,5 hPa 0,0 l/m 0,0 km/h (0 Bft) S-SO 159 2 min 0,000 mm 0,0 UV-I 154 W/m 16,5 C 17,6 C 0,0 km/h (0 Bft) 100,00 %
18.08.2017 07:36 17,7 C 23,9 C 93 % 1016,5 hPa 0,0 l/m 0,0 km/h (0 Bft) S-SO 159 2 min 0,000 mm 0,0 UV-I 193 W/m 16,6 C 17,7 C 0,0 km/h (0 Bft) 97,87 %
18.08.2017 07:38 17,8 C 23,9 C 92 % 1016,5 hPa 0,0 l/m 0,0 km/h (0 Bft) S-SO 159 2 min 0,000 mm 0,0 UV-I 203 W/m 16,5 C 17,8 C 0,0 km/h (0 Bft) 97,87 %
18.08.2017 07:40 17,9 C 23,9 C 92 % 1016,5 hPa 0,0 l/m 0,0 km/h (0 Bft) S-SO 159 2 min 0,000 mm 0,0 UV-I 207 W/m 16,6 C 17,9 C 0,0 km/h (0 Bft) 100,00 %
18.08.2017 07:42 17,9 C 23,9 C 92 % 1016,5 hPa 0,0 l/m 0,0 km/h (0 Bft) S-SO 159 2 min 0,000 mm 0,0 UV-I 187 W/m 16,6 C 17,9 C 0,0 km/h (0 Bft) 100,00 %
18.08.2017 07:44 18,1 C 23,9 C 91 % 1016,4 hPa 0,0 l/m 0,0 km/h (0 Bft) S-SO 159 2 min 0,000 mm 0,0 UV-I 185 W/m 16,6 C 18,1 C 0,0 km/h (0 Bft) 100,00 %
18.08.2017 07:46 18,2 C 23,9 C 91 % 1016,5 hPa 0,0 l/m 0,0 km/h (0 Bft) S-SO 159 2 min 0,000 mm 0,0 UV-I 186 W/m 16,7 C 18,2 C 0,0 km/h (0 Bft) 100,00 %
18.08.2017 07:48 18,3 C 23,9 C 91 % 1016,5 hPa 0,0 l/m 0,0 km/h (0 Bft) S-SO 159 2 min 0,000 mm 0,0 UV-I 207 W/m 16,8 C 18,3 C 0,0 km/h (0 Bft) 97,87 %
18.08.2017 07:50 18,4 C 23,9 C 90 % 1016,5 hPa 0,0 l/m 0,0 km/h (0 Bft) S-SO 159 2 min 0,000 mm 0,5 UV-I 203 W/m 16,7 C 18,4 C 0,0 km/h (0 Bft) 100,00 %
18.08.2017 07:52 18,4 C 23,9 C 89 % 1016,5 hPa 0,0 l/m 0,0 km/h (0 Bft) S-SO 159 2 min 0,000 mm 0,5 UV-I 187 W/m 16,6 C 18,4 C 0,0 km/h (0 Bft) 97,87 %
18.08.2017 07:54 18,4 C 23,9 C 89 % 1016,4 hPa 0,0 l/m 0,0 km/h (0 Bft) S-SO 159 2 min 0,000 mm 0,5 UV-I 186 W/m 16,6 C 18,4 C 0,0 km/h (0 Bft) 100,00 %
18.08.2017 07:56 18,4 C 23,9 C 89 % 1016,5 hPa 0,0 l/m 0,0 km/h (0 Bft) S-SO 159 2 min 0,000 mm 0,5 UV-I 198 W/m 16,6 C 18,4 C 0,0 km/h (0 Bft) 97,87 %
18.08.2017 07:58 18,4 C 23,9 C 89 % 1016,5 hPa 0,0 l/m 0,0 km/h (0 Bft) S-SO 159 2 min 0,000 mm 0,5 UV-I 213 W/m 16,6 C 18,4 C 0,0 km/h (0 Bft) 97,87 %
18.08.2017 08:00 18,6 C 23,9 C 89 % 1016,5 hPa 0,0 l/m 0,0 km/h (0 Bft) S-SO 159 2 min 0,077 mm 0,6 UV-I 209 W/m 16,7 C 18,6 C 0,0 km/h (0 Bft) 100,00 %
18.08.2017 08:02 18,7 C 23,9 C 89 % 1016,5 hPa 0,0 l/m 0,0 km/h (0 Bft) S-SO 159 2 min 0,000 mm 0,6 UV-I 221 W/m 16,8 C 18,7 C 0,0 km/h (0 Bft) 97,87 %
18.08.2017 08:04 18,8 C 23,9 C 89 % 1016,5 hPa 0,0 l/m 0,0 km/h (0 Bft) S-SO 159 2 min 0,000 mm 0,6 UV-I 254 W/m 16,9 C 18,8 C 0,0 km/h (0 Bft) 100,00 %
18.08.2017 08:06 19,0 C 23,9 C 89 % 1016,5 hPa 0,0 l/m 0,0 km/h (0 Bft) S-SO 159 2 min 0,000 mm 0,7 UV-I 265 W/m 17,1 C 19,0 C 1,6 km/h (1 Bft) 97,87 %
18.08.2017 08:08 19,2 C 23,9 C 89 % 1016,5 hPa 0,0 l/m 0,0 km/h (0 Bft) S-SO 159 2 min 0,000 mm 0,7 UV-I 278 W/m 17,3 C 19,2 C 0,0 km/h (0 Bft) 100,00 %
18.08.2017 08:10 19,3 C 23,9 C 88 % 1016,5 hPa 0,0 l/m 0,0 km/h (0 Bft) S-SO 159 2 min 0,000 mm 0,7 UV-I 258 W/m 17,3 C 19,3 C 0,0 km/h (0 Bft) 95,74 %
18.08.2017 08:12 19,4 C 23,9 C 87 % 1016,5 hPa 0,0 l/m 1,0 km/h (0 Bft) O-NO 68 2 min 0,000 mm 0,7 UV-I 265 W/m 17,2 C 19,4 C 4,8 km/h (1 Bft) 97,87 %
18.08.2017 08:14 19,5 C 23,9 C 87 % 1016,5 hPa 0,0 l/m 1,4 km/h (1 Bft) O-NO 68 2 min 0,000 mm 0,8 UV-I 257 W/m 17,3 C 19,5 C 3,2 km/h (1 Bft) 97,87 %
18.08.2017 08:16 19,6 C 23,9 C 87 % 1016,5 hPa 0,0 l/m 0,7 km/h (0 Bft) O-NO 68 2 min 0,000 mm 0,8 UV-I 279 W/m 17,4 C 19,6 C 3,2 km/h (1 Bft) 97,22 %
18.08.2017 08:18 19,7 C 23,9 C 87 % 1016,5 hPa 0,0 l/m 0,0 km/h (0 Bft) O-NO 68 2 min 0,000 mm 0,8 UV-I 300 W/m 17,5 C 19,7 C 0,0 km/h (0 Bft) 95,83 %
18.08.2017 08:20 19,7 C 23,9 C 87 % 1016,5 hPa 0,0 l/m 0,0 km/h (0 Bft) O-NO 68 2 min 0,000 mm 0,9 UV-I 335 W/m 17,5 C 19,7 C 0,0 km/h (0 Bft) 95,74 %
18.08.2017 08:22 19,8 C 23,9 C 86 % 1016,5 hPa 0,0 l/m 0,0 km/h (0 Bft) O-NO 68 2 min 0,000 mm 0,9 UV-I 334 W/m 17,4 C 19,8 C 0,0 km/h (0 Bft) 95,74 %
18.08.2017 08:24 19,9 C 23,9 C 87 % 1016,5 hPa 0,0 l/m 0,0 km/h (0 Bft) O-NO 68 2 min 0,000 mm 0,9 UV-I 350 W/m 17,7 C 19,9 C 1,6 km/h (1 Bft) 97,83 %
18.08.2017 08:26 19,9 C 23,9 C 86 % 1016,5 hPa 0,0 l/m 0,1 km/h (0 Bft) O-NO 68 2 min 0,000 mm 1,0 UV-I 359 W/m 17,5 C 19,9 C 1,6 km/h (1 Bft) 97,87 %
18.08.2017 08:28 19,9 C 23,9 C 86 % 1016,5 hPa 0,0 l/m 0,0 km/h (0 Bft) O-NO 68 2 min 0,000 mm 1,0 UV-I 367 W/m 17,5 C 19,9 C 1,6 km/h (1 Bft) 97,92 %
18.08.2017 08:30 20,1 C 23,9 C 87 % 1016,5 hPa 0,0 l/m 0,1 km/h (0 Bft) O-NO 68 2 min 0,000 mm 1,0 UV-I 358 W/m 17,9 C 20,1 C 1,6 km/h (1 Bft) 95,74 %
18.08.2017 08:32 20,2 C 23,9 C 86 % 1016,5 hPa 0,0 l/m 0,0 km/h (0 Bft) O-NO 68 2 min 0,000 mm 1,0 UV-I 327 W/m 17,8 C 20,2 C 0,0 km/h (0 Bft) 94,00 %
18.08.2017 08:34 20,2 C 23,9 C 86 % 1016,5 hPa 0,0 l/m 0,3 km/h (0 Bft) N 11 2 min 0,000 mm 1,1 UV-I 359 W/m 17,8 C 20,2 C 3,2 km/h (1 Bft) 94,00 %
18.08.2017 08:36 20,3 C 23,9 C 86 % 1016,5 hPa 0,0 l/m 0,2 km/h (0 Bft) N 11 2 min 0,000 mm 1,1 UV-I 345 W/m 17,9 C 20,3 C 3,2 km/h (1 Bft) 95,74 %
18.08.2017 08:38 20,4 C 23,9 C 86 % 1016,5 hPa 0,0 l/m 0,1 km/h (0 Bft) N 11 2 min 0,000 mm 1,1 UV-I 336 W/m 18,0 C 20,4 C 1,6 km/h (1 Bft) 92,11 %
18.08.2017 08:40 20,4 C 23,9 C 85 % 1016,5 hPa 0,0 l/m 0,0 km/h (0 Bft) N 11 2 min 0,000 mm 1,1 UV-I 353 W/m 17,8 C 20,4 C 1,6 km/h (1 Bft) 93,62 %
18.08.2017 08:42 20,6 C 23,9 C 86 % 1016,5 hPa 0,0 l/m 3,0 km/h (1 Bft) N-NO 32 2 min 0,000 mm 1,2 UV-I 398 W/m 18,2 C 20,6 C 6,4 km/h (2 Bft) 91,49 %
18.08.2017 08:44 20,7 C 23,9 C 86 % 1016,4 hPa 0,0 l/m 2,4 km/h (1 Bft) N-NO 30 2 min 0,000 mm 1,3 UV-I 395 W/m 18,3 C 20,7 C 4,8 km/h (1 Bft) 91,49 %
18.08.2017 08:46 20,8 C 23,9 C 84 % 1016,4 hPa 0,0 l/m 3,3 km/h (1 Bft) NO 34 2 min 0,000 mm 1,3 UV-I 339 W/m 18,0 C 20,8 C 4,8 km/h (1 Bft) 97,87 %
18.08.2017 08:48 20,8 C 23,9 C 85 % 1016,4 hPa 0,0 l/m 2,4 km/h (1 Bft) N-NO 31 2 min 0,000 mm 1,3 UV-I 354 W/m 18,2 C 20,8 C 4,8 km/h (1 Bft) 96,00 %
18.08.2017 08:50 20,9 C 23,9 C 84 % 1016,4 hPa 0,0 l/m 2,9 km/h (1 Bft) N-NO 31 2 min 0,000 mm 1,3 UV-I 367 W/m 18,1 C 20,9 C 6,4 km/h (2 Bft) 95,74 %
18.08.2017 08:52 20,9 C 23,9 C 84 % 1016,3 hPa 0,0 l/m 1,0 km/h (0 Bft) N-NO 31 2 min 0,000 mm 1,3 UV-I 345 W/m 18,1 C 20,9 C 3,2 km/h (1 Bft) 89,36 %
18.08.2017 08:54 20,9 C 23,9 C 85 % 1016,4 hPa 0,0 l/m 1,9 km/h (1 Bft) N-NO 31 2 min 0,000 mm 1,3 UV-I 305 W/m 18,3 C 20,9 C 4,8 km/h (1 Bft) 93,62 %
18.08.2017 08:56 20,9 C 23,9 C 84 % 1016,3 hPa 0,0 l/m 3,2 km/h (1 Bft) N-NO 29 2 min 0,000 mm 1,2 UV-I 263 W/m 18,1 C 20,9 C 4,8 km/h (1 Bft) 93,62 %
18.08.2017 08:58 20,9 C 23,9 C 83 % 1016,3 hPa 0,0 l/m 2,1 km/h (1 Bft) N-NO 29 2 min 0,000 mm 1,3 UV-I 306 W/m 17,9 C 20,9 C 4,8 km/h (1 Bft) 93,75 %
18.08.2017 09:00 20,9 C 23,9 C 84 % 1016,3 hPa 0,0 l/m 3,2 km/h (1 Bft) N-NO 29 2 min 0,000 mm 1,3 UV-I 335 W/m 18,1 C 20,9 C 4,8 km/h (1 Bft) 95,74 %
18.08.2017 09:02 21,0 C 23,9 C 83 % 1016,3 hPa 0,0 l/m 2,0 km/h (1 Bft) N-NO 29 2 min 0,177 mm 1,3 UV-I 355 W/m 18,0 C 21,0 C 6,4 km/h (2 Bft) 91,49 %
18.08.2017 09:04 21,0 C 23,9 C 83 % 1016,3 hPa 0,0 l/m 1,7 km/h (1 Bft) N-NO 29 2 min 0,000 mm 1,4 UV-I 359 W/m 18,0 C 21,0 C 4,8 km/h (1 Bft) 95,74 %
18.08.2017 09:06 21,0 C 23,9 C 84 % 1016,3 hPa 0,0 l/m 0,5 km/h (0 Bft) N-NO 29 2 min 0,000 mm 1,3 UV-I 317 W/m 18,2 C 21,0 C 4,8 km/h (1 Bft) 97,87 %
18.08.2017 09:08 21,0 C 23,9 C 83 % 1016,3 hPa 0,0 l/m 2,3 km/h (1 Bft) N-NO 29 2 min 0,000 mm 1,3 UV-I 269 W/m 18,0 C 21,0 C 6,4 km/h (2 Bft) 97,87 %
18.08.2017 09:10 21,0 C 23,9 C 84 % 1016,3 hPa 0,0 l/m 1,8 km/h (1 Bft) N-NO 15 2 min 0,000 mm 1,4 UV-I 284 W/m 18,2 C 21,0 C 6,4 km/h (2 Bft) 97,87 %
18.08.2017 09:12 21,1 C 23,9 C 84 % 1016,3 hPa 0,0 l/m 0,2 km/h (0 Bft) N-NO 15 2 min 0,000 mm 1,5 UV-I 346 W/m 18,3 C 21,1 C 1,6 km/h (1 Bft) 97,87 %
18.08.2017 09:14 21,2 C 23,9 C 84 % 1016,3 hPa 0,0 l/m 0,8 km/h (0 Bft) N-NO 15 2 min 0,000 mm 1,6 UV-I 401 W/m 18,4 C 21,2 C 3,2 km/h (1 Bft) 100,00 %
18.08.2017 09:16 21,3 C 23,9 C 83 % 1016,3 hPa 0,0 l/m 0,8 km/h (0 Bft) N-NO 15 2 min 0,000 mm 1,6 UV-I 404 W/m 18,3 C 21,3 C 3,2 km/h (1 Bft) 98,00 %
18.08.2017 09:18 21,3 C 23,9 C 83 % 1016,3 hPa 0,0 l/m 3,1 km/h (1 Bft) N-NO 15 2 min 0,000 mm 1,7 UV-I 429 W/m 18,3 C 21,3 C 4,8 km/h (1 Bft) 100,00 %
18.08.2017 09:20 21,4 C 23,9 C 83 % 1016,2 hPa 0,0 l/m 0,7 km/h (0 Bft) N 9 2 min 0,000 mm 1,8 UV-I 446 W/m 18,4 C 21,4 C 3,2 km/h (1 Bft) 97,87 %
18.08.2017 09:22 21,5 C 23,9 C 83 % 1016,2 hPa 0,0 l/m 1,5 km/h (1 Bft) N-NO 13 2 min 0,000 mm 1,7 UV-I 405 W/m 18,5 C 21,5 C 4,8 km/h (1 Bft) 100,00 %
18.08.2017 09:24 21,6 C 23,9 C 82 % 1016,2 hPa 0,0 l/m 2,6 km/h (1 Bft) N-NO 32 2 min 0,000 mm 1,8 UV-I 375 W/m 18,4 C 21,6 C 8,0 km/h (2 Bft) 97,87 %
18.08.2017 09:26 21,6 C 23,9 C 82 % 1016,2 hPa 0,0 l/m 3,6 km/h (1 Bft) N-NO 22 2 min 0,000 mm 1,8 UV-I 403 W/m 18,4 C 21,6 C 8,0 km/h (2 Bft) 100,00 %
18.08.2017 09:28 21,6 C 23,9 C 82 % 1016,2 hPa 0,0 l/m 0,3 km/h (0 Bft) N-NO 22 2 min 0,000 mm 2,0 UV-I 481 W/m 18,4 C 21,6 C 1,6 km/h (1 Bft) 100,00 %
18.08.2017 09:30 21,7 C 23,9 C 83 % 1016,2 hPa 0,0 l/m 1,0 km/h (0 Bft) N-NO 20 2 min 0,000 mm 2,1 UV-I 502 W/m 18,7 C 21,7 C 6,4 km/h (2 Bft) 97,87 %
18.08.2017 09:32 21,9 C 23,9 C 82 % 1016,2 hPa 0,0 l/m 3,9 km/h (1 Bft) NO 35 2 min 0,000 mm 2,1 UV-I 494 W/m 18,7 C 21,9 C 8,0 km/h (2 Bft) 100,00 %
18.08.2017 09:34 22,1 C 23,9 C 82 % 1016,2 hPa 0,0 l/m 1,0 km/h (0 Bft) NO 35 2 min 0,000 mm 2,1 UV-I 487 W/m 18,9 C 22,1 C 4,8 km/h (1 Bft) 100,00 %
18.08.2017 09:36 22,1 C 23,9 C 81 % 1016,2 hPa 0,0 l/m 1,7 km/h (1 Bft) NO 34 2 min 0,000 mm 2,2 UV-I 513 W/m 18,7 C 22,1 C 4,8 km/h (1 Bft) 100,00 %
18.08.2017 09:38 22,1 C 23,9 C 79 % 1016,2 hPa 0,0 l/m 1,0 km/h (0 Bft) NO 34 2 min 0,000 mm 2,2 UV-I 498 W/m 18,3 C 22,1 C 3,2 km/h (1 Bft) 100,00 %
18.08.2017 09:40 22,0 C 23,9 C 80 % 1016,2 hPa 0,0 l/m 1,2 km/h (1 Bft) NO 34 2 min 0,000 mm 2,2 UV-I 450 W/m 18,4 C 22,0 C 3,2 km/h (1 Bft) 100,00 %
18.08.2017 09:42 22,1 C 23,9 C 81 % 1016,2 hPa 0,0 l/m 2,0 km/h (1 Bft) NO 34 2 min 0,000 mm 2,2 UV-I 463 W/m 18,7 C 22,1 C 4,8 km/h (1 Bft) 100,00 %
18.08.2017 09:44 22,2 C 23,9 C 82 % 1016,2 hPa 0,0 l/m 1,8 km/h (1 Bft) NO 34 2 min 0,000 mm 2,3 UV-I 495 W/m 19,0 C 22,2 C 4,8 km/h (1 Bft) 100,00 %
18.08.2017 09:46 22,3 C 23,9 C 81 % 1016,2 hPa 0,0 l/m 3,0 km/h (1 Bft) N-NO 26 2 min 0,000 mm 2,2 UV-I 444 W/m 18,9 C 22,3 C 6,4 km/h (2 Bft) 97,87 %
18.08.2017 09:48 22,2 C 23,9 C 80 % 1016,2 hPa 0,0 l/m 1,5 km/h (1 Bft) N-NO 18 2 min 0,000 mm 2,3 UV-I 473 W/m 18,6 C 22,2 C 4,8 km/h (1 Bft) 97,87 %
18.08.2017 09:50 22,2 C 23,9 C 79 % 1016,2 hPa 0,0 l/m 1,4 km/h (1 Bft) N 360 2 min 0,000 mm 2,4 UV-I 508 W/m 18,4 C 22,2 C 4,8 km/h (1 Bft) 100,00 %
18.08.2017 09:52 22,2 C 23,9 C 79 % 1016,2 hPa 0,0 l/m 2,4 km/h (1 Bft) NO 38 2 min 0,000 mm 2,3 UV-I 477 W/m 18,4 C 22,2 C 6,4 km/h (2 Bft) 95,74 %
18.08.2017 09:54 22,3 C 23,9 C 80 % 1016,2 hPa 0,0 l/m 5,7 km/h (1 Bft) N-NO 29 2 min 0,000 mm 2,4 UV-I 491 W/m 18,7 C 22,3 C 8,0 km/h (2 Bft) 100,00 %
18.08.2017 09:56 22,3 C 23,9 C 79 % 1016,2 hPa 0,0 l/m 2,4 km/h (1 Bft) N-NO 29 2 min 0,000 mm 2,4 UV-I 467 W/m 18,5 C 22,3 C 4,8 km/h (1 Bft) 100,00 %
18.08.2017 09:58 22,4 C 23,9 C 80 % 1016,1 hPa 0,0 l/m 2,8 km/h (1 Bft) NO 34 2 min 0,000 mm 2,4 UV-I 456 W/m 18,8 C 22,4 C 6,4 km/h (2 Bft) 100,00 %
18.08.2017 10:00 22,5 C 23,9 C 80 % 1016,1 hPa 0,0 l/m 2,2 km/h (1 Bft) N-NO 33 2 min 0,254 mm 2,5 UV-I 487 W/m 18,9 C 22,5 C 6,4 km/h (2 Bft) 100,00 %
18.08.2017 10:02 22,6 C 23,9 C 79 % 1016,1 hPa 0,0 l/m 2,0 km/h (1 Bft) N-NO 19 2 min 0,000 mm 2,7 UV-I 534 W/m 18,8 C 22,6 C 4,8 km/h (1 Bft) 97,87 %
18.08.2017 10:04 22,7 C 23,9 C 81 % 1016,1 hPa 0,0 l/m 2,1 km/h (1 Bft) N-NO 22 2 min 0,000 mm 2,8 UV-I 556 W/m 19,3 C 22,7 C 4,8 km/h (1 Bft) 100,00 %
18.08.2017 10:06 22,7 C 23,9 C 79 % 1016,1 hPa 0,0 l/m 2,2 km/h (1 Bft) N-NO 22 2 min 0,000 mm 2,9 UV-I 583 W/m 18,9 C 22,7 C 8,0 km/h (2 Bft) 100,00 %
18.08.2017 10:08 22,7 C 23,9 C 80 % 1016,1 hPa 0,0 l/m 5,1 km/h (1 Bft) N-NO 30 2 min 0,000 mm 2,9 UV-I 574 W/m 19,1 C 22,7 C 8,0 km/h (2 Bft) 100,00 %
18.08.2017 10:10 22,7 C 23,9 C 80 % 1016,1 hPa 0,0 l/m 3,8 km/h (1 Bft) N-NO 27 2 min 0,000 mm 3,0 UV-I 588 W/m 19,1 C 22,7 C 6,4 km/h (2 Bft) 100,00 %
18.08.2017 10:12 22,8 C 23,9 C 78 % 1016,1 hPa 0,0 l/m 0,9 km/h (0 Bft) N 355 2 min 0,000 mm 3,0 UV-I 588 W/m 18,8 C 22,8 C 3,2 km/h (1 Bft) 100,00 %
18.08.2017 10:14 22,8 C 23,9 C 79 % 1016,0 hPa 0,0 l/m 1,3 km/h (1 Bft) N-NW 348 2 min 0,000 mm 2,9 UV-I 536 W/m 19,0 C 22,8 C 3,2 km/h (1 Bft) 100,00 %
18.08.2017 10:16 22,8 C 23,9 C 81 % 1016,0 hPa 0,0 l/m 1,3 km/h (1 Bft) N 360 2 min 0,000 mm 2,8 UV-I 496 W/m 19,4 C 22,8 C 3,2 km/h (1 Bft) 97,87 %
18.08.2017 10:18 22,9 C 23,9 C 80 % 1016,0 hPa 0,0 l/m 2,4 km/h (1 Bft) N-NO 17 2 min 0,000 mm 2,8 UV-I 465 W/m 19,3 C 22,9 C 8,0 km/h (2 Bft) 100,00 %
18.08.2017 10:20 22,9 C 23,9 C 80 % 1016,0 hPa 0,0 l/m 0,4 km/h (0 Bft) N 5 2 min 0,000 mm 2,8 UV-I 451 W/m 19,3 C 22,9 C 1,6 km/h (1 Bft) 100,00 %
18.08.2017 10:22 22,8 C 23,9 C 78 % 1015,9 hPa 0,0 l/m 1,6 km/h (1 Bft) N 350 2 min 0,000 mm 2,9 UV-I 465 W/m 18,8 C 22,8 C 3,2 km/h (1 Bft) 97,87 %
18.08.2017 10:24 22,8 C 23,9 C 81 % 1015,9 hPa 0,0 l/m 1,1 km/h (1 Bft) N-NW 346 2 min 0,000 mm 3,3 UV-I 549 W/m 19,4 C 22,8 C 3,2 km/h (1 Bft) 100,00 %
18.08.2017 10:26 23,2 C 23,9 C 82 % 1015,9 hPa 0,0 l/m 0,8 km/h (0 Bft) N-NW 345 2 min 0,000 mm 3,2 UV-I 557 W/m 19,9 C 23,2 C 3,2 km/h (1 Bft) 97,87 %
18.08.2017 10:28 23,2 C 23,9 C 78 % 1015,9 hPa 0,0 l/m 1,4 km/h (1 Bft) N-NW 333 2 min 0,000 mm 3,4 UV-I 625 W/m 19,1 C 23,2 C 3,2 km/h (1 Bft) 100,00 %
18.08.2017 10:30 23,3 C 23,9 C 78 % 1015,8 hPa 0,0 l/m 4,2 km/h (1 Bft) NO 49 2 min 0,000 mm 3,5 UV-I 632 W/m 19,2 C 23,3 C 8,0 km/h (2 Bft) 96,00 %
18.08.2017 10:32 23,4 C 23,9 C 80 % 1015,8 hPa 0,0 l/m 2,7 km/h (1 Bft) N-NW 344 2 min 0,000 mm 3,5 UV-I 617 W/m 19,7 C 23,4 C 8,0 km/h (2 Bft) 97,87 %
18.08.2017 10:34 23,4 C 23,9 C 78 % 1015,8 hPa 0,0 l/m 0,4 km/h (0 Bft) N-NW 342 2 min 0,000 mm 3,5 UV-I 627 W/m 19,3 C 23,4 C 3,2 km/h (1 Bft) 93,62 %
18.08.2017 10:36 23,5 C 23,9 C 78 % 1015,8 hPa 0,0 l/m 5,1 km/h (1 Bft) N-NO 22 2 min 0,000 mm 3,5 UV-I 602 W/m 19,4 C 23,5 C 8,0 km/h (2 Bft) 97,87 %
18.08.2017 10:38 23,5 C 23,9 C 78 % 1015,7 hPa 0,0 l/m 3,0 km/h (1 Bft) N-NO 29 2 min 0,000 mm 3,7 UV-I 652 W/m 19,4 C 23,5 C 4,8 km/h (1 Bft) 97,87 %
18.08.2017 10:40 23,6 C 23,9 C 77 % 1015,7 hPa 0,0 l/m 0,9 km/h (0 Bft) NO 42 2 min 0,000 mm 3,7 UV-I 644 W/m 19,3 C 23,6 C 3,2 km/h (1 Bft) 97,87 %
18.08.2017 10:42 23,7 C 23,9 C 78 % 1015,7 hPa 0,0 l/m 2,4 km/h (1 Bft) N-NO 18 2 min 0,000 mm 3,7 UV-I 628 W/m 19,6 C 23,7 C 8,0 km/h (2 Bft) 97,87 %
18.08.2017 10:44 23,8 C 23,9 C 77 % 1015,7 hPa 0,0 l/m 2,8 km/h (1 Bft) N-NO 28 2 min 0,000 mm 3,8 UV-I 651 W/m 19,5 C 23,8 C 8,0 km/h (2 Bft) 95,74 %
18.08.2017 10:46 23,8 C 23,9 C 76 % 1015,7 hPa 0,0 l/m 5,0 km/h (1 Bft) N-NO 32 2 min 0,000 mm 3,9 UV-I 665 W/m 19,3 C 23,8 C 8,0 km/h (2 Bft) 97,87 %
18.08.2017 10:48 23,8 C 23,9 C 77 % 1015,6 hPa 0,0 l/m 3,0 km/h (1 Bft) N-NO 30 2 min 0,000 mm 3,9 UV-I 672 W/m 19,5 C 23,8 C 9,7 km/h (2 Bft) 98,11 %
18.08.2017 10:50 23,9 C 23,9 C 75 % 1015,6 hPa 0,0 l/m 5,0 km/h (1 Bft) N-NO 26 2 min 0,000 mm 4,0 UV-I 675 W/m 19,2 C 23,9 C 11,3 km/h (2 Bft) 93,62 %
18.08.2017 10:52 23,9 C 23,9 C 77 % 1015,6 hPa 0,0 l/m 4,1 km/h (1 Bft) NO 36 2 min 0,000 mm 4,0 UV-I 675 W/m 19,6 C 23,9 C 6,4 km/h (2 Bft) 97,87 %
18.08.2017 10:54 24,0 C 23,9 C 74 % 1015,6 hPa 0,0 l/m 1,6 km/h (1 Bft) N-NO 19 2 min 0,000 mm 4,1 UV-I 676 W/m 19,1 C 24,0 C 6,4 km/h (2 Bft) 97,44 %
18.08.2017 10:56 24,1 C 23,9 C 76 % 1015,5 hPa 0,0 l/m 0,8 km/h (0 Bft) N-NO 14 2 min 0,000 mm 4,1 UV-I 683 W/m 19,6 C 24,1 C 3,2 km/h (1 Bft) 97,87 %
18.08.2017 10:58 24,3 C 23,9 C 75 % 1015,5 hPa 0,0 l/m 0,7 km/h (0 Bft) N-NW 347 2 min 0,000 mm 4,1 UV-I 680 W/m 19,6 C 24,3 C 1,6 km/h (1 Bft) 95,74 %
18.08.2017 11:00 24,5 C 23,9 C 74 % 1015,5 hPa 0,0 l/m 5,9 km/h (2 Bft) O-NO 71 2 min 0,381 mm 4,2 UV-I 686 W/m 19,6 C 24,5 C 9,7 km/h (2 Bft) 100,00 %
18.08.2017 11:02 24,6 C 23,9 C 74 % 1015,5 hPa 0,0 l/m 5,8 km/h (2 Bft) O-NO 60 2 min 0,000 mm 4,2 UV-I 687 W/m 19,6 C 24,6 C 8,0 km/h (2 Bft) 100,00 %
18.08.2017 11:04 24,6 C 23,9 C 71 % 1015,5 hPa 0,0 l/m 4,9 km/h (1 Bft) O 84 2 min 0,000 mm 4,3 UV-I 683 W/m 19,0 C 24,6 C 8,0 km/h (2 Bft) 100,00 %
18.08.2017 11:06 24,7 C 23,9 C 75 % 1015,4 hPa 0,0 l/m 6,6 km/h (2 Bft) N 11 2 min 0,000 mm 4,3 UV-I 691 W/m 20,0 C 24,7 C 9,7 km/h (2 Bft) 100,00 %
18.08.2017 11:08 24,7 C 23,9 C 71 % 1015,4 hPa 0,0 l/m 5,0 km/h (1 Bft) N-NO 30 2 min 0,000 mm 4,4 UV-I 696 W/m 19,1 C 24,7 C 8,0 km/h (2 Bft) 100,00 %
18.08.2017 11:10 24,7 C 23,9 C 70 % 1015,4 hPa 0,0 l/m 2,5 km/h (1 Bft) NO 44 2 min 0,000 mm 4,4 UV-I 682 W/m 18,8 C 24,7 C 4,8 km/h (1 Bft) 100,00 %
18.08.2017 11:12 24,7 C 23,9 C 73 % 1015,4 hPa 0,0 l/m 5,4 km/h (1 Bft) NO 45 2 min 0,000 mm 4,3 UV-I 665 W/m 19,5 C 24,7 C 8,0 km/h (2 Bft) 97,87 %
18.08.2017 11:14 24,6 C 23,9 C 70 % 1015,4 hPa 0,0 l/m 4,1 km/h (1 Bft) NO 40 2 min 0,000 mm 4,4 UV-I 692 W/m 18,8 C 24,6 C 6,4 km/h (2 Bft) 100,00 %
18.08.2017 11:16 24,7 C 23,9 C 71 % 1015,4 hPa 0,0 l/m 9,1 km/h (2 Bft) O-NO 73 2 min 0,000 mm 4,5 UV-I 709 W/m 19,1 C 24,0 C 12,9 km/h (3 Bft) 100,00 %
18.08.2017 11:18 24,7 C 23,9 C 70 % 1015,3 hPa 0,0 l/m 4,7 km/h (1 Bft) O-SO 114 2 min 0,000 mm 4,6 UV-I 712 W/m 18,8 C 24,7 C 8,0 km/h (2 Bft) 97,87 %
18.08.2017 11:20 24,7 C 23,9 C 71 % 1015,4 hPa 0,0 l/m 5,4 km/h (1 Bft) NO 49 2 min 0,000 mm 4,6 UV-I 700 W/m 19,1 C 24,7 C 11,3 km/h (2 Bft) 100,00 %
18.08.2017 11:22 24,8 C 23,9 C 71 % 1015,3 hPa 0,0 l/m 7,2 km/h (2 Bft) NO 46 2 min 0,000 mm 4,6 UV-I 698 W/m 19,2 C 24,6 C 9,7 km/h (2 Bft) 100,00 %
18.08.2017 11:24 24,9 C 23,9 C 70 % 1015,3 hPa 0,0 l/m 8,1 km/h (2 Bft) O 100 2 min 0,000 mm 4,7 UV-I 704 W/m 19,0 C 24,5 C 11,3 km/h (2 Bft) 100,00 %
18.08.2017 11:26 24,9 C 24,4 C 70 % 1015,2 hPa 0,0 l/m 4,3 km/h (1 Bft) O-NO 59 2 min 0,000 mm 4,7 UV-I 718 W/m 19,0 C 24,9 C 11,3 km/h (2 Bft) 96,00 %
18.08.2017 11:28 25,0 C 23,9 C 68 % 1015,2 hPa 0,0 l/m 5,4 km/h (1 Bft) O 84 2 min 0,000 mm 4,8 UV-I 720 W/m 18,7 C 25,0 C 8,0 km/h (2 Bft) 98,11 %
18.08.2017 11:30 25,1 C 24,4 C 68 % 1015,3 hPa 0,0 l/m 7,4 km/h (2 Bft) O-NO 68 2 min 0,000 mm 4,8 UV-I 710 W/m 18,8 C 24,9 C 12,9 km/h (3 Bft) 97,87 %
18.08.2017 11:32 25,2 C 24,4 C 68 % 1015,2 hPa 0,0 l/m 8,5 km/h (2 Bft) O 82 2 min 0,000 mm 4,9 UV-I 724 W/m 18,9 C 24,7 C 12,9 km/h (3 Bft) 100,00 %
18.08.2017 11:34 25,1 C 24,4 C 67 % 1015,2 hPa 0,0 l/m 6,0 km/h (2 Bft) O-SO 105 2 min 0,000 mm 4,9 UV-I 708 W/m 18,5 C 25,1 C 11,3 km/h (2 Bft) 100,00 %
18.08.2017 11:36 25,1 C 24,4 C 69 % 1015,2 hPa 0,0 l/m 5,2 km/h (1 Bft) NO 46 2 min 0,000 mm 4,9 UV-I 742 W/m 19,0 C 25,1 C 9,7 km/h (2 Bft) 100,00 %
18.08.2017 11:38 25,1 C 24,4 C 72 % 1015,1 hPa 0,0 l/m 2,5 km/h (1 Bft) O-NO 67 2 min 0,000 mm 5,0 UV-I 748 W/m 19,7 C 25,1 C 9,7 km/h (2 Bft) 100,00 %
18.08.2017 11:40 25,3 C 24,4 C 69 % 1015,1 hPa 0,0 l/m 6,5 km/h (2 Bft) O 89 2 min 0,000 mm 5,0 UV-I 744 W/m 19,2 C 25,3 C 9,7 km/h (2 Bft) 100,00 %
18.08.2017 11:42 25,3 C 24,4 C 70 % 1015,1 hPa 0,0 l/m 7,3 km/h (2 Bft) NO 55 2 min 0,000 mm 5,0 UV-I 744 W/m 19,4 C 25,1 C 9,7 km/h (2 Bft) 97,87 %
18.08.2017 11:44 25,4 C 24,4 C 72 % 1015,0 hPa 0,0 l/m 5,5 km/h (1 Bft) NO 46 2 min 0,000 mm 5,1 UV-I 747 W/m 20,0 C 25,4 C 8,0 km/h (2 Bft) 97,87 %
18.08.2017 11:46 25,5 C 24,4 C 67 % 1015,0 hPa 0,0 l/m 5,1 km/h (1 Bft) NO 55 2 min 0,000 mm 5,1 UV-I 737 W/m 18,9 C 25,5 C 9,7 km/h (2 Bft) 100,00 %
18.08.2017 11:48 25,6 C 24,4 C 65 % 1015,0 hPa 0,0 l/m 7,6 km/h (2 Bft) N-NO 33 2 min 0,000 mm 5,1 UV-I 736 W/m 18,5 C 25,3 C 12,9 km/h (3 Bft) 100,00 %
18.08.2017 11:50 25,8 C 24,4 C 66 % 1015,0 hPa 0,0 l/m 6,8 km/h (2 Bft) NO 39 2 min 0,000 mm 5,2 UV-I 750 W/m 19,0 C 25,7 C 11,3 km/h (2 Bft) 100,00 %
18.08.2017 11:52 25,9 C 24,4 C 65 % 1014,9 hPa 0,0 l/m 4,7 km/h (1 Bft) NO 41 2 min 0,000 mm 5,2 UV-I 753 W/m 18,8 C 25,9 C 9,7 km/h (2 Bft) 100,00 %
18.08.2017 11:54 25,9 C 24,4 C 66 % 1014,9 hPa 0,0 l/m 4,4 km/h (1 Bft) NO 36 2 min 0,000 mm 5,1 UV-I 718 W/m 19,0 C 25,9 C 8,0 km/h (2 Bft) 97,87 %
18.08.2017 11:56 25,9 C 24,4 C 68 % 1014,9 hPa 0,0 l/m 7,9 km/h (2 Bft) O-NO 61 2 min 0,000 mm 5,2 UV-I 740 W/m 19,5 C 25,6 C 12,9 km/h (3 Bft) 97,87 %
18.08.2017 11:58 25,8 C 24,4 C 66 % 1014,9 hPa 0,0 l/m 4,6 km/h (1 Bft) O-NO 73 2 min 0,000 mm 5,3 UV-I 749 W/m 19,0 C 25,8 C 9,7 km/h (2 Bft) 97,87 %
18.08.2017 12:00 25,7 C 24,4 C 68 % 1014,9 hPa 0,0 l/m 4,2 km/h (1 Bft) O-NO 61 2 min 0,000 mm 5,3 UV-I 759 W/m 19,3 C 25,7 C 8,0 km/h (2 Bft) 97,87 %
18.08.2017 12:02 25,7 C 24,4 C 67 % 1014,8 hPa 0,0 l/m 6,6 km/h (2 Bft) O-NO 70 2 min 0,483 mm 5,4 UV-I 764 W/m 19,1 C 25,7 C 12,9 km/h (3 Bft) 95,74 %
18.08.2017 12:04 25,8 C 24,4 C 68 % 1014,8 hPa 0,0 l/m 5,4 km/h (1 Bft) O-NO 76 2 min 0,000 mm 5,4 UV-I 764 W/m 19,4 C 25,8 C 12,9 km/h (3 Bft) 95,74 %
18.08.2017 12:06 25,9 C 24,4 C 71 % 1014,8 hPa 0,0 l/m 5,8 km/h (2 Bft) O-NO 72 2 min 0,000 mm 5,3 UV-I 761 W/m 20,2 C 25,9 C 9,7 km/h (2 Bft) 94,74 %
18.08.2017 12:08 26,1 C 24,4 C 66 % 1014,7 hPa 0,0 l/m 8,0 km/h (2 Bft) NO 51 2 min 0,000 mm 5,5 UV-I 779 W/m 19,2 C 25,8 C 12,9 km/h (3 Bft) 96,00 %
18.08.2017 12:10 26,1 C 24,4 C 66 % 1014,7 hPa 0,0 l/m 5,7 km/h (1 Bft) NO 45 2 min 0,000 mm 5,5 UV-I 782 W/m 19,2 C 26,1 C 8,0 km/h (2 Bft) 97,87 %
18.08.2017 12:12 26,0 C 24,4 C 67 % 1014,7 hPa 0,0 l/m 4,5 km/h (1 Bft) O 82 2 min 0,000 mm 5,6 UV-I 789 W/m 19,4 C 26,0 C 8,0 km/h (2 Bft) 97,96 %
18.08.2017 12:14 26,1 C 24,4 C 69 % 1014,6 hPa 0,0 l/m 6,7 km/h (2 Bft) NO 41 2 min 0,000 mm 5,6 UV-I 786 W/m 20,0 C 26,0 C 11,3 km/h (2 Bft) 97,44 %
18.08.2017 12:16 26,3 C 24,4 C 66 % 1014,6 hPa 0,0 l/m 6,5 km/h (2 Bft) NO 50 2 min 0,000 mm 5,6 UV-I 785 W/m 19,4 C 26,3 C 9,7 km/h (2 Bft) 96,23 %
18.08.2017 12:18 26,4 C 24,4 C 68 % 1014,5 hPa 0,0 l/m 9,1 km/h (2 Bft) NO 40 2 min 0,000 mm 5,6 UV-I 779 W/m 20,0 C 25,9 C 16,1 km/h (3 Bft) 95,74 %
18.08.2017 12:20 26,4 C 24,4 C 64 % 1014,5 hPa 0,0 l/m 6,1 km/h (2 Bft) NO 35 2 min 0,000 mm 5,6 UV-I 785 W/m 19,0 C 26,4 C 16,1 km/h (3 Bft) 97,87 %
18.08.2017 12:22 26,4 C 24,4 C 65 % 1014,5 hPa 0,0 l/m 9,7 km/h (2 Bft) O-NO 69 2 min 0,000 mm 5,7 UV-I 793 W/m 19,3 C 25,8 C 16,1 km/h (3 Bft) 95,12 %
18.08.2017 12:24 26,4 C 24,4 C 65 % 1014,5 hPa 0,0 l/m 10,3 km/h (2 Bft) O-NO 67 2 min 0,000 mm 5,7 UV-I 792 W/m 19,3 C 25,7 C 16,1 km/h (3 Bft) 94,00 %
18.08.2017 12:26 26,5 C 24,4 C 66 % 1014,4 hPa 0,0 l/m 8,3 km/h (2 Bft) NO 42 2 min 0,000 mm 5,8 UV-I 793 W/m 19,6 C 26,1 C 14,5 km/h (3 Bft) 93,62 %
18.08.2017 12:28 26,6 C 24,4 C 65 % 1014,4 hPa 0,0 l/m 9,1 km/h (2 Bft) NO 55 2 min 0,000 mm 5,8 UV-I 798 W/m 19,5 C 26,1 C 16,1 km/h (3 Bft) 93,62 %
18.08.2017 12:30 26,7 C 24,4 C 65 % 1014,3 hPa 0,0 l/m 7,4 km/h (2 Bft) O-NO 58 2 min 0,000 mm 5,8 UV-I 796 W/m 19,6 C 26,5 C 16,1 km/h (3 Bft) 96,00 %
18.08.2017 12:32 26,9 C 24,4 C 64 % 1014,3 hPa 0,0 l/m 10,8 km/h (2 Bft) NO 53 2 min 0,000 mm 5,8 UV-I 798 W/m 19,5 C 26,1 C 17,7 km/h (3 Bft) 96,00 %
18.08.2017 12:34 26,9 C 24,4 C 64 % 1014,3 hPa 0,0 l/m 6,7 km/h (2 Bft) NO 46 2 min 0,000 mm 5,8 UV-I 798 W/m 19,5 C 26,8 C 12,9 km/h (3 Bft) 95,12 %
18.08.2017 12:36 27,0 C 24,4 C 64 % 1014,2 hPa 0,0 l/m 8,5 km/h (2 Bft) NO 51 2 min 0,000 mm 5,8 UV-I 798 W/m 19,6 C 26,6 C 14,5 km/h (3 Bft) 95,74 %
18.08.2017 12:38 27,0 C 24,4 C 65 % 1014,2 hPa 0,0 l/m 9,0 km/h (2 Bft) NO 54 2 min 0,000 mm 5,8 UV-I 799 W/m 19,8 C 26,5 C 12,9 km/h (3 Bft) 93,62 %
18.08.2017 12:40 27,1 C 24,4 C 64 % 1014,2 hPa 0,0 l/m 7,6 km/h (2 Bft) O-NO 63 2 min 0,000 mm 5,9 UV-I 800 W/m 19,7 C 26,9 C 12,9 km/h (3 Bft) 95,74 %
18.08.2017 12:42 27,2 C 24,4 C 62 % 1014,2 hPa 0,0 l/m 8,8 km/h (2 Bft) O 85 2 min 0,000 mm 5,9 UV-I 801 W/m 19,3 C 26,8 C 14,5 km/h (3 Bft) 96,00 %
18.08.2017 12:44 27,2 C 24,4 C 61 % 1014,1 hPa 0,0 l/m 12,4 km/h (3 Bft) O-NO 70 2 min 0,000 mm 5,9 UV-I 802 W/m 19,0 C 26,3 C 19,3 km/h (3 Bft) 93,62 %
18.08.2017 12:46 27,2 C 24,4 C 61 % 1014,1 hPa 0,0 l/m 10,0 km/h (2 Bft) O-NO 76 2 min 0,000 mm 5,9 UV-I 802 W/m 19,0 C 26,6 C 17,7 km/h (3 Bft) 95,74 %
18.08.2017 12:48 27,2 C 24,4 C 62 % 1014,1 hPa 0,0 l/m 11,3 km/h (2 Bft) O-NO 61 2 min 0,000 mm 5,9 UV-I 802 W/m 19,3 C 26,4 C 14,5 km/h (3 Bft) 95,74 %
18.08.2017 12:50 27,3 C 24,4 C 61 % 1014,1 hPa 0,0 l/m 13,1 km/h (3 Bft) O-NO 75 2 min 0,000 mm 5,9 UV-I 802 W/m 19,1 C 26,3 C 17,7 km/h (3 Bft) 93,62 %
18.08.2017 12:52 27,3 C 24,4 C 63 % 1014,0 hPa 0,0 l/m 11,8 km/h (2 Bft) O-NO 57 2 min 0,000 mm 5,9 UV-I 803 W/m 19,6 C 26,5 C 19,3 km/h (3 Bft) 93,62 %
18.08.2017 12:54 27,3 C 24,4 C 63 % 1014,0 hPa 0,0 l/m 13,3 km/h (3 Bft) NO 46 2 min 0,000 mm 5,9 UV-I 802 W/m 19,6 C 26,3 C 20,9 km/h (4 Bft) 97,92 %
18.08.2017 12:56 27,4 C 24,4 C 62 % 1014,0 hPa 0,0 l/m 10,0 km/h (2 Bft) NO 38 2 min 0,000 mm 5,9 UV-I 801 W/m 19,5 C 26,8 C 16,1 km/h (3 Bft) 100,00 %
18.08.2017 12:58 27,4 C 25,0 C 65 % 1014,0 hPa 0,0 l/m 13,0 km/h (3 Bft) NO 40 2 min 0,000 mm 5,9 UV-I 800 W/m 20,2 C 26,4 C 17,7 km/h (3 Bft) 100,00 %
18.08.2017 13:00 27,5 C 25,0 C 59 % 1014,0 hPa 0,0 l/m 13,0 km/h (3 Bft) O-NO 69 2 min 0,559 mm 5,9 UV-I 795 W/m 18,8 C 26,5 C 19,3 km/h (3 Bft) 100,00 %
18.08.2017 13:02 27,5 C 25,0 C 60 % 1014,0 hPa 0,0 l/m 10,3 km/h (2 Bft) O 88 2 min 0,000 mm 5,9 UV-I 793 W/m 19,0 C 26,9 C 16,1 km/h (3 Bft) 97,87 %
18.08.2017 13:04 27,5 C 25,0 C 58 % 1014,0 hPa 0,0 l/m 16,7 km/h (3 Bft) O-NO 70 2 min 0,000 mm 5,9 UV-I 803 W/m 18,5 C 26,2 C 25,7 km/h (4 Bft) 100,00 %
18.08.2017 13:06 27,6 C 25,0 C 60 % 1014,0 hPa 0,0 l/m 13,1 km/h (3 Bft) O-NO 67 2 min 0,000 mm 5,9 UV-I 803 W/m 19,1 C 26,7 C 17,7 km/h (3 Bft) 100,00 %
18.08.2017 13:08 27,6 C 25,0 C 61 % 1014,0 hPa 0,0 l/m 10,6 km/h (2 Bft) N-NO 32 2 min 0,000 mm 5,9 UV-I 802 W/m 19,4 C 27,0 C 14,5 km/h (3 Bft) 100,00 %
18.08.2017 13:10 27,7 C 25,0 C 59 % 1014,0 hPa 0,0 l/m 11,6 km/h (2 Bft) O 79 2 min 0,000 mm 6,0 UV-I 803 W/m 18,9 C 26,9 C 16,1 km/h (3 Bft) 100,00 %
18.08.2017 13:12 27,7 C 25,0 C 60 % 1014,0 hPa 0,0 l/m 14,7 km/h (3 Bft) O 84 2 min 0,000 mm 5,9 UV-I 800 W/m 19,2 C 26,6 C 19,3 km/h (3 Bft) 95,74 %
18.08.2017 13:14 27,7 C 25,0 C 60 % 1013,9 hPa 0,0 l/m 8,4 km/h (2 Bft) O 79 2 min 0,000 mm 5,9 UV-I 797 W/m 19,2 C 27,4 C 17,7 km/h (3 Bft) 98,00 %
18.08.2017 13:16 27,8 C 25,0 C 60 % 1013,9 hPa 0,0 l/m 6,5 km/h (2 Bft) O-SO 111 2 min 0,000 mm 5,9 UV-I 798 W/m 19,3 C 27,8 C 14,5 km/h (3 Bft) 97,37 %
18.08.2017 13:18 27,9 C 25,0 C 64 % 1013,8 hPa 0,0 l/m 9,7 km/h (2 Bft) NO 34 2 min 0,000 mm 5,9 UV-I 799 W/m 20,4 C 27,4 C 16,1 km/h (3 Bft) 98,00 %
18.08.2017 13:20 28,2 C 25,0 C 61 % 1013,7 hPa 0,0 l/m 11,1 km/h (2 Bft) NO 45 2 min 0,000 mm 5,9 UV-I 799 W/m 19,9 C 27,6 C 17,7 km/h (3 Bft) 97,87 %
18.08.2017 13:22 28,2 C 25,0 C 59 % 1013,7 hPa 0,0 l/m 9,5 km/h (2 Bft) NO 48 2 min 0,000 mm 5,9 UV-I 799 W/m 19,4 C 27,8 C 16,1 km/h (3 Bft) 100,00 %
18.08.2017 13:24 28,2 C 25,0 C 57 % 1013,6 hPa 0,0 l/m 13,2 km/h (3 Bft) O-NO 67 2 min 0,000 mm 5,9 UV-I 799 W/m 18,9 C 27,4 C 17,7 km/h (3 Bft) 100,00 %
18.08.2017 13:26 28,2 C 25,0 C 59 % 1013,6 hPa 0,0 l/m 15,0 km/h (3 Bft) O-NO 74 2 min 0,000 mm 5,9 UV-I 797 W/m 19,4 C 27,2 C 20,9 km/h (4 Bft) 100,00 %
18.08.2017 13:28 28,1 C 25,0 C 58 % 1013,5 hPa 0,0 l/m 13,0 km/h (3 Bft) O 87 2 min 0,000 mm 5,9 UV-I 798 W/m 19,0 C 27,3 C 19,3 km/h (3 Bft) 96,00 %
18.08.2017 13:30 28,0 C 25,0 C 57 % 1013,4 hPa 0,0 l/m 10,5 km/h (2 Bft) NO 53 2 min 0,000 mm 5,9 UV-I 798 W/m 18,7 C 27,4 C 17,7 km/h (3 Bft) 100,00 %
18.08.2017 13:32 28,1 C 25,0 C 60 % 1013,4 hPa 0,0 l/m 8,3 km/h (2 Bft) NO 42 2 min 0,000 mm 5,9 UV-I 797 W/m 19,6 C 27,8 C 16,1 km/h (3 Bft) 100,00 %
18.08.2017 13:34 28,2 C 25,0 C 59 % 1013,4 hPa 0,0 l/m 10,7 km/h (2 Bft) O-NO 65 2 min 0,000 mm 5,9 UV-I 796 W/m 19,4 C 27,6 C 20,9 km/h (4 Bft) 100,00 %
18.08.2017 13:36 28,2 C 25,0 C 59 % 1013,3 hPa 0,0 l/m 15,1 km/h (3 Bft) NO 52 2 min 0,000 mm 5,9 UV-I 795 W/m 19,4 C 27,2 C 20,9 km/h (4 Bft) 100,00 %
18.08.2017 13:38 28,2 C 25,0 C 56 % 1013,3 hPa 0,0 l/m 8,6 km/h (2 Bft) N 11 2 min 0,000 mm 5,9 UV-I 793 W/m 18,6 C 27,9 C 14,5 km/h (3 Bft) 100,00 %
18.08.2017 13:40 28,3 C 25,0 C 58 % 1013,3 hPa 0,0 l/m 10,1 km/h (2 Bft) NO 48 2 min 0,000 mm 5,9 UV-I 792 W/m 19,2 C 27,8 C 14,5 km/h (3 Bft) 100,00 %
18.08.2017 13:42 28,4 C 25,0 C 60 % 1013,2 hPa 0,0 l/m 9,0 km/h (2 Bft) NO 41 2 min 0,000 mm 5,9 UV-I 793 W/m 19,9 C 28,0 C 12,9 km/h (3 Bft) 100,00 %
18.08.2017 13:44 28,5 C 25,0 C 56 % 1013,3 hPa 0,0 l/m 8,1 km/h (2 Bft) O 89 2 min 0,000 mm 5,9 UV-I 793 W/m 18,8 C 28,3 C 12,9 km/h (3 Bft) 97,87 %
18.08.2017 13:46 28,4 C 25,0 C 56 % 1013,2 hPa 0,0 l/m 8,5 km/h (2 Bft) O-NO 59 2 min 0,000 mm 5,8 UV-I 792 W/m 18,8 C 28,1 C 17,7 km/h (3 Bft) 100,00 %
18.08.2017 13:48 28,6 C 25,0 C 58 % 1013,2 hPa 0,0 l/m 14,4 km/h (3 Bft) NO 51 2 min 0,000 mm 5,8 UV-I 789 W/m 19,5 C 27,7 C 19,3 km/h (3 Bft) 100,00 %
18.08.2017 13:50 28,7 C 25,0 C 57 % 1013,2 hPa 0,0 l/m 8,6 km/h (2 Bft) O-NO 58 2 min 0,000 mm 5,8 UV-I 788 W/m 19,3 C 28,4 C 16,1 km/h (3 Bft) 100,00 %
18.08.2017 13:52 28,7 C 25,0 C 56 % 1013,1 hPa 0,0 l/m 10,1 km/h (2 Bft) O-NO 78 2 min 0,000 mm 5,8 UV-I 785 W/m 19,0 C 28,2 C 16,1 km/h (3 Bft) 97,87 %
18.08.2017 13:54 28,7 C 25,0 C 55 % 1013,1 hPa 0,0 l/m 8,4 km/h (2 Bft) O 94 2 min 0,000 mm 5,8 UV-I 784 W/m 18,7 C 28,4 C 14,5 km/h (3 Bft) 97,87 %
18.08.2017 13:56 28,7 C 25,0 C 56 % 1013,0 hPa 0,0 l/m 9,1 km/h (2 Bft) O-NO 68 2 min 0,000 mm 5,8 UV-I 781 W/m 19,0 C 28,4 C 17,7 km/h (3 Bft) 100,00 %
18.08.2017 13:58 28,7 C 25,0 C 59 % 1013,0 hPa 0,0 l/m 5,3 km/h (1 Bft) NO 53 2 min 0,000 mm 5,7 UV-I 778 W/m 19,9 C 28,7 C 8,0 km/h (2 Bft) 100,00 %
18.08.2017 14:00 28,8 C 25,0 C 60 % 1013,0 hPa 0,0 l/m 8,2 km/h (2 Bft) NO 44 2 min 0,000 mm 5,7 UV-I 777 W/m 20,2 C 28,6 C 16,1 km/h (3 Bft) 97,87 %
18.08.2017 14:02 28,8 C 25,0 C 57 % 1012,9 hPa 0,0 l/m 8,1 km/h (2 Bft) N 5 2 min 0,584 mm 5,6 UV-I 774 W/m 19,4 C 28,6 C 14,5 km/h (3 Bft) 97,87 %
18.08.2017 14:04 28,8 C 25,0 C 58 % 1012,9 hPa 0,0 l/m 5,0 km/h (1 Bft) N-NO 25 2 min 0,000 mm 4,2 UV-I 774 W/m 19,7 C 28,8 C 12,9 km/h (3 Bft) 95,74 %
18.08.2017 14:06 28,9 C 25,0 C 58 % 1012,9 hPa 0,0 l/m 8,5 km/h (2 Bft) NO 36 2 min 0,000 mm 5,5 UV-I 773 W/m 19,8 C 28,6 C 14,5 km/h (3 Bft) 98,00 %
18.08.2017 14:08 29,0 C 25,0 C 59 % 1012,9 hPa 0,0 l/m 9,3 km/h (2 Bft) NO 40 2 min 0,000 mm 5,6 UV-I 771 W/m 20,2 C 28,7 C 14,5 km/h (3 Bft) 100,00 %
18.08.2017 14:10 29,1 C 25,0 C 55 % 1012,9 hPa 0,0 l/m 5,9 km/h (2 Bft) NO 42 2 min 0,000 mm 5,6 UV-I 773 W/m 19,1 C 29,1 C 8,0 km/h (2 Bft) 98,00 %
18.08.2017 14:12 29,0 C 25,0 C 56 % 1012,9 hPa 0,0 l/m 6,6 km/h (2 Bft) NO 40 2 min 0,000 mm 5,5 UV-I 763 W/m 19,3 C 29,0 C 11,3 km/h (2 Bft) 97,87 %
18.08.2017 14:14 29,0 C 25,0 C 55 % 1012,9 hPa 0,0 l/m 7,7 km/h (2 Bft) NO 43 2 min 0,000 mm 5,5 UV-I 767 W/m 19,0 C 28,8 C 12,9 km/h (3 Bft) 97,87 %
18.08.2017 14:16 28,9 C 25,0 C 56 % 1012,9 hPa 0,0 l/m 4,7 km/h (1 Bft) NO 46 2 min 0,000 mm 5,5 UV-I 765 W/m 19,2 C 28,9 C 6,4 km/h (2 Bft) 95,74 %
18.08.2017 14:18 29,0 C 25,0 C 57 % 1012,9 hPa 0,0 l/m 4,7 km/h (1 Bft) NO 45 2 min 0,000 mm 5,4 UV-I 761 W/m 19,6 C 29,0 C 8,0 km/h (2 Bft) 97,87 %
18.08.2017 14:20 29,1 C 25,0 C 56 % 1012,9 hPa 0,0 l/m 6,6 km/h (2 Bft) NO 36 2 min 0,000 mm 5,4 UV-I 760 W/m 19,4 C 29,1 C 12,9 km/h (3 Bft) 100,00 %
18.08.2017 14:22 29,1 C 25,0 C 56 % 1012,8 hPa 0,0 l/m 6,1 km/h (2 Bft) N-NO 28 2 min 0,000 mm 5,3 UV-I 754 W/m 19,4 C 29,1 C 14,5 km/h (3 Bft) 95,74 %
18.08.2017 14:24 29,1 C 25,0 C 57 % 1012,9 hPa 0,0 l/m 8,3 km/h (2 Bft) N-NW 345 2 min 0,000 mm 5,3 UV-I 754 W/m 19,7 C 28,9 C 14,5 km/h (3 Bft) 95,74 %
18.08.2017 14:26 29,2 C 25,0 C 54 % 1012,8 hPa 0,0 l/m 10,2 km/h (2 Bft) NO 38 2 min 0,000 mm 5,3 UV-I 754 W/m 18,9 C 28,8 C 16,1 km/h (3 Bft) 93,62 %
18.08.2017 14:28 29,2 C 25,0 C 55 % 1012,8 hPa 0,0 l/m 5,5 km/h (1 Bft) N-NO 15 2 min 0,000 mm 5,2 UV-I 748 W/m 19,2 C 29,2 C 12,9 km/h (3 Bft) 95,74 %
18.08.2017 14:30 29,3 C 25,0 C 57 % 1012,8 hPa 0,0 l/m 7,3 km/h (2 Bft) NO 42 2 min 0,000 mm 5,2 UV-I 749 W/m 19,9 C 29,2 C 14,5 km/h (3 Bft) 97,87 %
18.08.2017 14:32 29,4 C 25,0 C 53 % 1012,7 hPa 0,0 l/m 3,5 km/h (1 Bft) NO 44 2 min 0,000 mm 5,2 UV-I 750 W/m 18,8 C 29,4 C 9,7 km/h (2 Bft) 97,87 %
18.08.2017 14:34 29,3 C 25,0 C 55 % 1012,7 hPa 0,0 l/m 1,4 km/h (1 Bft) N-NO 30 2 min 0,000 mm 5,1 UV-I 749 W/m 19,3 C 29,3 C 9,7 km/h (2 Bft) 97,87 %
18.08.2017 14:36 29,4 C 25,0 C 52 % 1012,8 hPa 0,0 l/m 8,6 km/h (2 Bft) O-NO 60 2 min 0,000 mm 5,1 UV-I 748 W/m 18,5 C 29,2 C 14,5 km/h (3 Bft) 97,87 %
18.08.2017 14:38 29,6 C 25,0 C 53 % 1012,7 hPa 0,0 l/m 10,9 km/h (2 Bft) NO 50 2 min 0,000 mm 5,1 UV-I 746 W/m 19,0 C 29,2 C 14,5 km/h (3 Bft) 97,87 %
18.08.2017 14:40 29,6 C 25,0 C 53 % 1012,7 hPa 0,0 l/m 8,2 km/h (2 Bft) O-NO 61 2 min 0,000 mm 5,1 UV-I 745 W/m 19,0 C 29,4 C 12,9 km/h (3 Bft) 95,74 %
18.08.2017 14:42 29,6 C 25,0 C 52 % 1012,6 hPa 0,0 l/m 6,3 km/h (2 Bft) NO 53 2 min 0,000 mm 5,0 UV-I 741 W/m 18,7 C 29,6 C 12,9 km/h (3 Bft) 97,87 %
18.08.2017 14:44 29,6 C 25,0 C 55 % 1012,5 hPa 0,0 l/m 5,1 km/h (1 Bft) O-NO 65 2 min 0,000 mm 4,9 UV-I 737 W/m 19,6 C 29,6 C 8,0 km/h (2 Bft) 97,87 %
18.08.2017 14:46 29,6 C 25,6 C 52 % 1012,5 hPa 0,0 l/m 5,8 km/h (2 Bft) O-NO 67 2 min 0,000 mm 4,9 UV-I 731 W/m 18,7 C 29,6 C 12,9 km/h (3 Bft) 93,62 %
18.08.2017 14:48 29,7 C 25,6 C 51 % 1012,5 hPa 0,0 l/m 14,3 km/h (3 Bft) O-NO 58 2 min 0,000 mm 4,9 UV-I 727 W/m 18,5 C 29,0 C 19,3 km/h (3 Bft) 98,00 %
18.08.2017 14:50 29,8 C 25,6 C 53 % 1012,5 hPa 0,0 l/m 8,6 km/h (2 Bft) NO 45 2 min 0,000 mm 4,8 UV-I 727 W/m 19,2 C 29,6 C 12,9 km/h (3 Bft) 97,87 %
18.08.2017 14:52 29,8 C 25,6 C 50 % 1012,4 hPa 0,0 l/m 8,5 km/h (2 Bft) O-NO 61 2 min 0,000 mm 4,8 UV-I 726 W/m 18,2 C 29,6 C 12,9 km/h (3 Bft) 97,92 %
18.08.2017 14:54 29,8 C 25,6 C 51 % 1012,4 hPa 0,0 l/m 6,1 km/h (2 Bft) O 100 2 min 0,000 mm 4,8 UV-I 722 W/m 18,5 C 29,8 C 9,7 km/h (2 Bft) 97,37 %
18.08.2017 14:56 29,8 C 25,6 C 54 % 1012,3 hPa 0,0 l/m 5,9 km/h (2 Bft) O 94 2 min 0,000 mm 4,7 UV-I 720 W/m 19,5 C 29,8 C 12,9 km/h (3 Bft) 100,00 %
18.08.2017 14:58 29,8 C 25,6 C 50 % 1012,3 hPa 0,0 l/m 7,4 km/h (2 Bft) O-NO 78 2 min 0,000 mm 4,7 UV-I 719 W/m 18,2 C 29,7 C 14,5 km/h (3 Bft) 100,00 %
18.08.2017 15:00 29,8 C 25,6 C 48 % 1012,3 hPa 0,0 l/m 12,8 km/h (3 Bft) O-NO 59 2 min 0,559 mm 4,6 UV-I 696 W/m 17,6 C 29,3 C 17,7 km/h (3 Bft) 100,00 %
18.08.2017 15:02 29,9 C 25,6 C 50 % 1012,3 hPa 0,0 l/m 11,3 km/h (2 Bft) NO 51 2 min 0,000 mm 4,6 UV-I 709 W/m 18,3 C 29,5 C 16,1 km/h (3 Bft) 97,87 %
18.08.2017 15:04 29,8 C 25,6 C 49 % 1012,2 hPa 0,0 l/m 4,1 km/h (1 Bft) O-SO 103 2 min 0,000 mm 4,5 UV-I 706 W/m 17,9 C 29,8 C 8,0 km/h (2 Bft) 95,74 %
18.08.2017 15:06 29,9 C 25,6 C 49 % 1012,2 hPa 0,0 l/m 8,0 km/h (2 Bft) O-NO 60 2 min 0,000 mm 4,3 UV-I 638 W/m 18,0 C 29,7 C 11,3 km/h (2 Bft) 97,87 %
18.08.2017 15:08 29,9 C 25,6 C 49 % 1012,2 hPa 0,0 l/m 7,1 km/h (2 Bft) O-NO 65 2 min 0,000 mm 4,4 UV-I 700 W/m 18,0 C 29,8 C 14,5 km/h (3 Bft) 97,87 %
18.08.2017 15:10 29,9 C 25,6 C 50 % 1012,2 hPa 0,0 l/m 12,4 km/h (3 Bft) N-NO 31 2 min 0,000 mm 4,4 UV-I 689 W/m 18,3 C 29,4 C 16,1 km/h (3 Bft) 97,87 %
18.08.2017 15:12 29,9 C 25,6 C 51 % 1012,2 hPa 0,0 l/m 9,8 km/h (2 Bft) NO 36 2 min 0,000 mm 4,3 UV-I 685 W/m 18,6 C 29,6 C 14,5 km/h (3 Bft) 96,00 %
18.08.2017 15:14 29,9 C 25,6 C 51 % 1012,2 hPa 0,0 l/m 8,2 km/h (2 Bft) O-NO 59 2 min 0,000 mm 4,2 UV-I 679 W/m 18,6 C 29,7 C 12,9 km/h (3 Bft) 97,87 %
18.08.2017 15:16 30,1 C 25,6 C 54 % 1012,1 hPa 0,0 l/m 7,3 km/h (2 Bft) N-NO 19 2 min 0,000 mm 4,2 UV-I 675 W/m 19,7 C 30,0 C 14,5 km/h (3 Bft) 93,62 %
18.08.2017 15:18 30,1 C 25,6 C 51 % 1012,0 hPa 0,0 l/m 6,4 km/h (2 Bft) O-NO 78 2 min 0,000 mm 4,2 UV-I 670 W/m 18,8 C 30,1 C 12,9 km/h (3 Bft) 96,00 %
18.08.2017 15:20 30,1 C 25,6 C 48 % 1012,0 hPa 0,0 l/m 4,3 km/h (1 Bft) NO 49 2 min 0,000 mm 4,1 UV-I 668 W/m 17,9 C 30,1 C 6,4 km/h (2 Bft) 95,74 %
18.08.2017 15:22 29,9 C 25,6 C 51 % 1012,0 hPa 0,0 l/m 3,3 km/h (1 Bft) NO 37 2 min 0,000 mm 4,1 UV-I 665 W/m 18,6 C 29,9 C 6,4 km/h (2 Bft) 95,74 %
18.08.2017 15:24 29,9 C 25,6 C 53 % 1011,9 hPa 0,0 l/m 8,5 km/h (2 Bft) NO 35 2 min 0,000 mm 4,0 UV-I 658 W/m 19,3 C 29,7 C 12,9 km/h (3 Bft) 97,87 %
18.08.2017 15:26 30,2 C 25,6 C 53 % 1011,9 hPa 0,0 l/m 5,2 km/h (1 Bft) O-NO 67 2 min 0,000 mm 4,0 UV-I 655 W/m 19,5 C 30,2 C 14,5 km/h (3 Bft) 97,22 %
18.08.2017 15:28 30,3 C 25,6 C 54 % 1011,9 hPa 0,0 l/m 4,4 km/h (1 Bft) NO 48 2 min 0,000 mm 3,9 UV-I 651 W/m 19,9 C 30,3 C 14,5 km/h (3 Bft) 96,15 %
18.08.2017 15:30 30,3 C 25,6 C 50 % 1011,9 hPa 0,0 l/m 8,8 km/h (2 Bft) N-NO 29 2 min 0,000 mm 3,9 UV-I 648 W/m 18,7 C 30,1 C 14,5 km/h (3 Bft) 97,87 %
18.08.2017 15:32 30,2 C 25,6 C 52 % 1011,9 hPa 0,0 l/m 6,3 km/h (2 Bft) O-NO 61 2 min 0,000 mm 3,8 UV-I 645 W/m 19,2 C 30,2 C 11,3 km/h (2 Bft) 97,87 %
18.08.2017 15:34 30,2 C 25,6 C 52 % 1011,9 hPa 0,0 l/m 5,8 km/h (2 Bft) N-NO 28 2 min 0,000 mm 3,8 UV-I 642 W/m 19,2 C 30,2 C 11,3 km/h (2 Bft) 97,87 %
18.08.2017 15:36 30,2 C 25,6 C 50 % 1011,8 hPa 0,0 l/m 2,9 km/h (1 Bft) N 11 2 min 0,000 mm 3,7 UV-I 640 W/m 18,6 C 30,2 C 8,0 km/h (2 Bft) 98,00 %
18.08.2017 15:38 30,2 C 25,6 C 50 % 1011,8 hPa 0,0 l/m 1,1 km/h (1 Bft) N 360 2 min 0,000 mm 3,6 UV-I 636 W/m 18,6 C 30,2 C 4,8 km/h (1 Bft) 95,92 %
18.08.2017 15:40 30,3 C 25,6 C 51 % 1011,8 hPa 0,0 l/m 3,6 km/h (1 Bft) NO 45 2 min 0,000 mm 3,7 UV-I 641 W/m 19,0 C 30,3 C 16,1 km/h (3 Bft) 97,87 %
18.08.2017 15:42 30,3 C 25,6 C 52 % 1011,8 hPa 0,0 l/m 7,2 km/h (2 Bft) NO 55 2 min 0,000 mm 3,6 UV-I 644 W/m 19,3 C 30,2 C 16,1 km/h (3 Bft) 97,22 %
18.08.2017 15:44 30,3 C 25,6 C 51 % 1011,7 hPa 0,0 l/m 11,5 km/h (2 Bft) NO 42 2 min 0,000 mm 3,6 UV-I 633 W/m 19,0 C 29,9 C 17,7 km/h (3 Bft) 97,87 %
18.08.2017 15:46 30,3 C 25,6 C 49 % 1011,7 hPa 0,0 l/m 9,1 km/h (2 Bft) NO 51 2 min 0,000 mm 3,5 UV-I 633 W/m 18,4 C 30,1 C 16,1 km/h (3 Bft) 97,87 %
18.08.2017 15:48 30,3 C 25,6 C 49 % 1011,7 hPa 0,0 l/m 3,6 km/h (1 Bft) O-NO 58 2 min 0,000 mm 3,5 UV-I 623 W/m 18,4 C 30,3 C 8,0 km/h (2 Bft) 100,00 %
18.08.2017 15:50 30,3 C 25,6 C 51 % 1011,8 hPa 0,0 l/m 5,4 km/h (1 Bft) N-NO 29 2 min 0,000 mm 3,4 UV-I 604 W/m 19,0 C 30,3 C 8,0 km/h (2 Bft) 100,00 %
18.08.2017 15:52 30,4 C 25,6 C 51 % 1011,7 hPa 0,0 l/m 7,0 km/h (2 Bft) N-NO 29 2 min 0,000 mm 3,4 UV-I 607 W/m 19,1 C 30,4 C 14,5 km/h (3 Bft) 100,00 %
18.08.2017 15:54 30,4 C 25,6 C 50 % 1011,7 hPa 0,0 l/m 8,6 km/h (2 Bft) N 11 2 min 0,000 mm 3,3 UV-I 599 W/m 18,8 C 30,2 C 14,5 km/h (3 Bft) 100,00 %
18.08.2017 15:56 30,5 C 25,6 C 51 % 1011,7 hPa 0,0 l/m 8,9 km/h (2 Bft) NO 43 2 min 0,000 mm 3,2 UV-I 593 W/m 19,2 C 30,3 C 14,5 km/h (3 Bft) 100,00 %
18.08.2017 15:58 30,4 C 25,6 C 49 % 1011,7 hPa 0,0 l/m 3,5 km/h (1 Bft) N-NO 28 2 min 0,000 mm 3,2 UV-I 587 W/m 18,5 C 30,4 C 9,7 km/h (2 Bft) 100,00 %
18.08.2017 16:00 30,3 C 25,6 C 49 % 1011,6 hPa 0,0 l/m 2,4 km/h (1 Bft) N-NO 17 2 min 0,482 mm 3,1 UV-I 579 W/m 18,4 C 30,3 C 8,0 km/h (2 Bft) 100,00 %
18.08.2017 16:02 30,3 C 25,6 C 54 % 1011,6 hPa 0,0 l/m 8,1 km/h (2 Bft) NO 38 2 min 0,000 mm 3,1 UV-I 576 W/m 19,9 C 30,2 C 12,9 km/h (3 Bft) 95,74 %
18.08.2017 16:04 30,3 C 25,6 C 49 % 1011,6 hPa 0,0 l/m 7,6 km/h (2 Bft) O 94 2 min 0,000 mm 3,1 UV-I 573 W/m 18,4 C 30,2 C 11,3 km/h (2 Bft) 100,00 %
18.08.2017 16:06 30,3 C 25,6 C 50 % 1011,5 hPa 0,0 l/m 8,7 km/h (2 Bft) O 95 2 min 0,000 mm 3,0 UV-I 569 W/m 18,7 C 30,1 C 12,9 km/h (3 Bft) 96,15 %
18.08.2017 16:08 30,3 C 25,6 C 49 % 1011,5 hPa 0,0 l/m 5,6 km/h (1 Bft) O-NO 70 2 min 0,000 mm 3,0 UV-I 565 W/m 18,4 C 30,3 C 8,0 km/h (2 Bft) 100,00 %
18.08.2017 16:10 30,3 C 25,6 C 50 % 1011,5 hPa 0,0 l/m 9,3 km/h (2 Bft) NO 53 2 min 0,000 mm 2,9 UV-I 560 W/m 18,7 C 30,1 C 12,9 km/h (3 Bft) 100,00 %
18.08.2017 16:12 30,3 C 25,6 C 51 % 1011,5 hPa 0,0 l/m 7,1 km/h (2 Bft) O-NO 57 2 min 0,000 mm 2,9 UV-I 555 W/m 19,0 C 30,2 C 9,7 km/h (2 Bft) 97,87 %
18.08.2017 16:14 30,3 C 25,6 C 51 % 1011,5 hPa 0,0 l/m 4,6 km/h (1 Bft) NO 56 2 min 0,000 mm 2,8 UV-I 547 W/m 19,0 C 30,3 C 8,0 km/h (2 Bft) 96,00 %
18.08.2017 16:16 30,4 C 25,6 C 49 % 1011,5 hPa 0,0 l/m 3,0 km/h (1 Bft) NO 49 2 min 0,000 mm 2,7 UV-I 541 W/m 18,5 C 30,4 C 4,8 km/h (1 Bft) 97,87 %
18.08.2017 16:18 30,3 C 25,6 C 48 % 1011,4 hPa 0,0 l/m 5,0 km/h (1 Bft) N-NO 33 2 min 0,000 mm 2,7 UV-I 538 W/m 18,0 C 30,3 C 12,9 km/h (3 Bft) 97,87 %
18.08.2017 16:20 30,3 C 25,6 C 49 % 1011,4 hPa 0,0 l/m 9,6 km/h (2 Bft) NO 38 2 min 0,000 mm 2,7 UV-I 533 W/m 18,4 C 30,0 C 14,5 km/h (3 Bft) 100,00 %
18.08.2017 16:22 30,3 C 25,6 C 50 % 1011,4 hPa 0,0 l/m 4,6 km/h (1 Bft) NO 34 2 min 0,000 mm 2,6 UV-I 526 W/m 18,7 C 30,3 C 9,7 km/h (2 Bft) 97,56 %
18.08.2017 16:24 30,4 C 25,6 C 50 % 1011,3 hPa 0,0 l/m 1,7 km/h (1 Bft) W-NW 284 2 min 0,000 mm 2,5 UV-I 523 W/m 18,8 C 30,4 C 4,8 km/h (1 Bft) 97,87 %
18.08.2017 16:26 30,6 C 25,6 C 49 % 1011,3 hPa 0,0 l/m 5,8 km/h (2 Bft) NO 35 2 min 0,000 mm 2,5 UV-I 519 W/m 18,6 C 30,6 C 11,3 km/h (2 Bft) 98,08 %
18.08.2017 16:28 30,7 C 25,6 C 49 % 1011,3 hPa 0,0 l/m 8,2 km/h (2 Bft) O-NO 61 2 min 0,000 mm 2,5 UV-I 516 W/m 18,7 C 30,6 C 12,9 km/h (3 Bft) 95,74 %
18.08.2017 16:30 30,5 C 25,6 C 49 % 1011,2 hPa 0,0 l/m 5,5 km/h (1 Bft) O-NO 57 2 min 0,000 mm 2,4 UV-I 513 W/m 18,6 C 30,5 C 8,0 km/h (2 Bft) 97,87 %
18.08.2017 16:32 30,4 C 25,6 C 49 % 1011,2 hPa 0,0 l/m 4,9 km/h (1 Bft) O-NO 69 2 min 0,000 mm 2,4 UV-I 506 W/m 18,5 C 30,4 C 8,0 km/h (2 Bft) 97,87 %
18.08.2017 16:34 30,4 C 25,6 C 48 % 1011,2 hPa 0,0 l/m 5,0 km/h (1 Bft) O 94 2 min 0,000 mm 2,3 UV-I 502 W/m 18,1 C 30,4 C 9,7 km/h (2 Bft) 95,74 %
18.08.2017 16:36 30,4 C 25,6 C 51 % 1011,1 hPa 0,0 l/m 6,3 km/h (2 Bft) NO 46 2 min 0,000 mm 2,3 UV-I 496 W/m 19,1 C 30,4 C 9,7 km/h (2 Bft) 97,87 %
18.08.2017 16:38 30,4 C 25,6 C 49 % 1011,1 hPa 0,0 l/m 4,6 km/h (1 Bft) NO 49 2 min 0,000 mm 2,2 UV-I 493 W/m 18,5 C 30,4 C 9,7 km/h (2 Bft) 97,87 %
18.08.2017 16:40 30,3 C 25,6 C 49 % 1011,1 hPa 0,0 l/m 3,8 km/h (1 Bft) NO 40 2 min 0,000 mm 2,2 UV-I 486 W/m 18,4 C 30,3 C 8,0 km/h (2 Bft) 95,74 %
18.08.2017 16:42 30,4 C 25,6 C 51 % 1011,1 hPa 0,0 l/m 6,8 km/h (2 Bft) N-NO 26 2 min 0,000 mm 2,2 UV-I 478 W/m 19,1 C 30,4 C 16,1 km/h (3 Bft) 97,87 %
18.08.2017 16:44 30,4 C 26,1 C 49 % 1011,0 hPa 0,0 l/m 8,0 km/h (2 Bft) N-NO 19 2 min 0,000 mm 2,1 UV-I 475 W/m 18,5 C 30,3 C 12,9 km/h (3 Bft) 97,87 %
18.08.2017 16:46 30,4 C 25,6 C 50 % 1011,0 hPa 0,0 l/m 7,6 km/h (2 Bft) N-NO 19 2 min 0,000 mm 2,1 UV-I 473 W/m 18,8 C 30,3 C 14,5 km/h (3 Bft) 97,44 %
18.08.2017 16:48 30,4 C 25,6 C 51 % 1011,0 hPa 0,0 l/m 6,2 km/h (2 Bft) O-NO 59 2 min 0,000 mm 2,0 UV-I 470 W/m 19,1 C 30,4 C 8,0 km/h (2 Bft) 97,87 %
18.08.2017 16:50 30,4 C 26,1 C 51 % 1011,0 hPa 0,0 l/m 8,6 km/h (2 Bft) O-NO 59 2 min 0,000 mm 2,0 UV-I 464 W/m 19,1 C 30,2 C 16,1 km/h (3 Bft) 100,00 %
18.08.2017 16:52 30,5 C 26,1 C 48 % 1011,0 hPa 0,0 l/m 6,9 km/h (2 Bft) NO 51 2 min 0,000 mm 2,0 UV-I 462 W/m 18,2 C 30,5 C 11,3 km/h (2 Bft) 97,87 %
18.08.2017 16:54 30,5 C 26,1 C 48 % 1010,9 hPa 0,0 l/m 8,6 km/h (2 Bft) NO 50 2 min 0,000 mm 1,9 UV-I 459 W/m 18,2 C 30,3 C 14,5 km/h (3 Bft) 97,87 %
18.08.2017 16:56 30,4 C 26,1 C 47 % 1010,9 hPa 0,0 l/m 11,9 km/h (2 Bft) O-NO 67 2 min 0,000 mm 1,9 UV-I 436 W/m 17,8 C 30,0 C 19,3 km/h (3 Bft) 100,00 %
18.08.2017 16:58 30,4 C 26,1 C 50 % 1010,9 hPa 0,0 l/m 7,4 km/h (2 Bft) N-NO 28 2 min 0,000 mm 1,9 UV-I 402 W/m 18,8 C 30,3 C 16,1 km/h (3 Bft) 100,00 %
18.08.2017 17:00 30,4 C 26,1 C 51 % 1010,8 hPa 0,0 l/m 11,9 km/h (2 Bft) N-NO 24 2 min 0,000 mm 1,8 UV-I 424 W/m 19,1 C 30,0 C 17,7 km/h (3 Bft) 97,87 %
18.08.2017 17:03 30,3 C 26,1 C 49 % 1010,7 hPa 0,0 l/m 8,6 km/h (2 Bft) N-NO 26 3 min 0,407 mm 1,7 UV-I 406 W/m 18,4 C 30,1 C 12,9 km/h (3 Bft) 100,00 %
18.08.2017 17:04 30,3 C 26,1 C 50 % 1010,7 hPa 0,0 l/m 10,2 km/h (2 Bft) N-NO 33 1 min 0,000 mm 1,7 UV-I 396 W/m 18,7 C 30,0 C 14,5 km/h (3 Bft) 100,00 %
18.08.2017 17:06 30,2 C 26,1 C 48 % 1010,7 hPa 0,0 l/m 7,0 km/h (2 Bft) O-NO 72 2 min 0,000 mm 1,7 UV-I 384 W/m 17,9 C 30,1 C 14,5 km/h (3 Bft) 100,00 %
18.08.2017 17:08 30,3 C 26,1 C 50 % 1010,8 hPa 0,0 l/m 5,8 km/h (2 Bft) O-NO 78 2 min 0,000 mm 1,6 UV-I 375 W/m 18,7 C 30,3 C 11,3 km/h (2 Bft) 100,00 %
18.08.2017 17:10 30,4 C 26,1 C 50 % 1010,8 hPa 0,0 l/m 4,6 km/h (1 Bft) N-NO 23 2 min 0,000 mm 1,6 UV-I 411 W/m 18,8 C 30,4 C 8,0 km/h (2 Bft) 100,00 %
18.08.2017 17:12 30,6 C 26,1 C 51 % 1010,7 hPa 0,0 l/m 4,5 km/h (1 Bft) NO 41 2 min 0,000 mm 1,5 UV-I 405 W/m 19,3 C 30,6 C 8,0 km/h (2 Bft) 100,00 %
18.08.2017 17:14 30,6 C 26,1 C 48 % 1010,7 hPa 0,0 l/m 5,6 km/h (1 Bft) NO 43 2 min 0,000 mm 1,3 UV-I 399 W/m 18,3 C 30,6 C 8,0 km/h (2 Bft) 100,00 %
18.08.2017 17:16 30,6 C 26,1 C 47 % 1010,7 hPa 0,0 l/m 7,4 km/h (2 Bft) O-NO 65 2 min 0,000 mm 1,5 UV-I 394 W/m 18,0 C 30,5 C 9,7 km/h (2 Bft) 97,14 %
18.08.2017 17:18 30,6 C 26,1 C 48 % 1010,7 hPa 0,0 l/m 8,9 km/h (2 Bft) O-NO 65 2 min 0,000 mm 1,4 UV-I 386 W/m 18,3 C 30,4 C 12,9 km/h (3 Bft) 100,00 %
18.08.2017 17:20 30,6 C 26,1 C 47 % 1010,6 hPa 0,0 l/m 5,5 km/h (1 Bft) N-NO 25 2 min 0,000 mm 1,4 UV-I 378 W/m 18,0 C 30,6 C 9,7 km/h (2 Bft) 100,00 %
18.08.2017 17:22 30,6 C 26,1 C 48 % 1010,6 hPa 0,0 l/m 8,0 km/h (2 Bft) N-NO 20 2 min 0,000 mm 1,4 UV-I 372 W/m 18,3 C 30,5 C 12,9 km/h (3 Bft) 100,00 %
18.08.2017 17:24 30,5 C 26,1 C 49 % 1010,6 hPa 0,0 l/m 8,0 km/h (2 Bft) NO 43 2 min 0,000 mm 1,3 UV-I 361 W/m 18,6 C 30,4 C 12,9 km/h (3 Bft) 98,39 %
18.08.2017 17:26 30,4 C 26,1 C 48 % 1010,5 hPa 0,0 l/m 8,0 km/h (2 Bft) NO 38 2 min 0,000 mm 1,3 UV-I 346 W/m 18,1 C 30,3 C 11,3 km/h (2 Bft) 100,00 %
18.08.2017 17:28 30,4 C 26,1 C 48 % 1010,5 hPa 0,0 l/m 6,3 km/h (2 Bft) O-NO 74 2 min 0,000 mm 1,3 UV-I 343 W/m 18,1 C 30,4 C 9,7 km/h (2 Bft) 100,00 %
18.08.2017 17:30 30,4 C 26,1 C 48 % 1010,5 hPa 0,0 l/m 5,9 km/h (2 Bft) NO 51 2 min 0,000 mm 1,2 UV-I 358 W/m 18,1 C 30,4 C 9,7 km/h (2 Bft) 100,00 %
18.08.2017 17:32 30,4 C 26,1 C 51 % 1010,5 hPa 0,0 l/m 6,2 km/h (2 Bft) NO 40 2 min 0,000 mm 1,2 UV-I 352 W/m 19,1 C 30,4 C 9,7 km/h (2 Bft) 100,00 %
18.08.2017 17:34 30,5 C 26,1 C 48 % 1010,5 hPa 0,0 l/m 8,8 km/h (2 Bft) O-NO 62 2 min 0,000 mm 1,2 UV-I 345 W/m 18,2 C 30,3 C 14,5 km/h (3 Bft) 100,00 %
18.08.2017 17:36 30,5 C 26,1 C 49 % 1010,5 hPa 0,0 l/m 7,4 km/h (2 Bft) NO 44 2 min 0,000 mm 1,1 UV-I 338 W/m 18,6 C 30,4 C 11,3 km/h (2 Bft) 98,00 %
18.08.2017 17:38 30,5 C 26,1 C 50 % 1010,5 hPa 0,0 l/m 5,4 km/h (1 Bft) O-NO 66 2 min 0,000 mm 1,1 UV-I 332 W/m 18,9 C 30,5 C 8,0 km/h (2 Bft) 97,87 %
18.08.2017 17:40 30,5 C 26,1 C 49 % 1010,4 hPa 0,0 l/m 6,0 km/h (2 Bft) NO 34 2 min 0,000 mm 1,1 UV-I 325 W/m 18,6 C 30,5 C 12,9 km/h (3 Bft) 96,00 %
18.08.2017 17:42 30,4 C 26,1 C 50 % 1010,4 hPa 0,0 l/m 4,7 km/h (1 Bft) N-NO 33 2 min 0,000 mm 1,1 UV-I 321 W/m 18,8 C 30,4 C 9,7 km/h (2 Bft) 97,87 %
18.08.2017 17:44 30,4 C 26,1 C 52 % 1010,4 hPa 0,0 l/m 5,6 km/h (1 Bft) O-NO 67 2 min 0,000 mm 1,0 UV-I 316 W/m 19,4 C 30,4 C 9,7 km/h (2 Bft) 95,74 %
18.08.2017 17:46 30,4 C 26,1 C 49 % 1010,3 hPa 0,0 l/m 6,7 km/h (2 Bft) NO 51 2 min 0,000 mm 1,0 UV-I 310 W/m 18,5 C 30,4 C 11,3 km/h (2 Bft) 97,37 %
18.08.2017 17:48 30,3 C 26,1 C 50 % 1010,3 hPa 0,0 l/m 6,8 km/h (2 Bft) NO 35 2 min 0,000 mm 1,0 UV-I 302 W/m 18,7 C 30,3 C 11,3 km/h (2 Bft) 97,87 %
18.08.2017 17:50 30,2 C 26,1 C 49 % 1010,3 hPa 0,0 l/m 7,4 km/h (2 Bft) NO 44 2 min 0,000 mm 0,9 UV-I 296 W/m 18,3 C 30,1 C 14,5 km/h (3 Bft) 95,74 %
18.08.2017 17:52 30,1 C 26,1 C 50 % 1010,3 hPa 0,0 l/m 6,5 km/h (2 Bft) N-NO 28 2 min 0,000 mm 0,9 UV-I 292 W/m 18,5 C 30,1 C 9,7 km/h (2 Bft) 97,87 %
18.08.2017 17:54 30,1 C 26,1 C 51 % 1010,3 hPa 0,0 l/m 5,1 km/h (1 Bft) N-NO 24 2 min 0,000 mm 0,9 UV-I 286 W/m 18,8 C 30,1 C 9,7 km/h (2 Bft) 93,62 %
18.08.2017 17:56 30,1 C 26,1 C 49 % 1010,2 hPa 0,0 l/m 7,4 km/h (2 Bft) NO 42 2 min 0,000 mm 0,8 UV-I 279 W/m 18,2 C 30,0 C 12,9 km/h (3 Bft) 98,00 %
18.08.2017 17:58 30,1 C 26,1 C 51 % 1010,2 hPa 0,0 l/m 4,8 km/h (1 Bft) NO 48 2 min 0,000 mm 0,8 UV-I 274 W/m 18,8 C 30,1 C 6,4 km/h (2 Bft) 98,11 %
18.08.2017 18:00 30,1 C 26,1 C 49 % 1010,1 hPa 0,0 l/m 6,3 km/h (2 Bft) O-NO 73 2 min 0,000 mm 0,8 UV-I 270 W/m 18,2 C 30,1 C 9,7 km/h (2 Bft) 97,44 %
18.08.2017 18:02 30,2 C 26,1 C 51 % 1010,1 hPa 0,0 l/m 6,7 km/h (2 Bft) O-NO 59 2 min 0,305 mm 0,8 UV-I 264 W/m 18,9 C 30,2 C 12,9 km/h (3 Bft) 96,00 %
18.08.2017 18:04 30,2 C 26,1 C 50 % 1010,0 hPa 0,0 l/m 5,1 km/h (1 Bft) O-NO 67 2 min 0,000 mm 0,7 UV-I 259 W/m 18,6 C 30,2 C 11,3 km/h (2 Bft) 95,74 %
18.08.2017 18:06 30,2 C 26,1 C 50 % 1010,0 hPa 0,0 l/m 7,5 km/h (2 Bft) O-NO 66 2 min 0,000 mm 0,7 UV-I 251 W/m 18,6 C 30,1 C 12,9 km/h (3 Bft) 95,74 %
18.08.2017 18:08 30,2 C 26,1 C 49 % 1009,9 hPa 0,0 l/m 7,2 km/h (2 Bft) O-NO 69 2 min 0,000 mm 0,7 UV-I 246 W/m 18,3 C 30,1 C 14,5 km/h (3 Bft) 95,92 %
18.08.2017 18:10 30,2 C 26,1 C 49 % 1009,9 hPa 0,0 l/m 6,3 km/h (2 Bft) NO 55 2 min 0,000 mm 0,7 UV-I 241 W/m 18,3 C 30,2 C 9,7 km/h (2 Bft) 91,84 %
18.08.2017 18:12 30,2 C 26,1 C 49 % 1009,8 hPa 0,0 l/m 9,6 km/h (2 Bft) NO 50 2 min 0,000 mm 0,6 UV-I 237 W/m 18,3 C 29,9 C 14,5 km/h (3 Bft) 91,49 %
18.08.2017 18:14 30,2 C 26,1 C 51 % 1009,8 hPa 0,0 l/m 6,5 km/h (2 Bft) O-NO 58 2 min 0,000 mm 0,6 UV-I 232 W/m 18,9 C 30,2 C 11,3 km/h (2 Bft) 93,62 %
18.08.2017 18:16 30,1 C 26,1 C 51 % 1009,8 hPa 0,0 l/m 7,9 km/h (2 Bft) O-NO 67 2 min 0,000 mm 0,6 UV-I 227 W/m 18,8 C 30,0 C 11,3 km/h (2 Bft) 95,74 %
18.08.2017 18:18 30,0 C 26,1 C 49 % 1009,7 hPa 0,0 l/m 6,0 km/h (2 Bft) NO 55 2 min 0,000 mm 0,6 UV-I 220 W/m 18,1 C 30,0 C 9,7 km/h (2 Bft) 93,62 %
18.08.2017 18:20 30,0 C 26,1 C 48 % 1009,7 hPa 0,0 l/m 7,2 km/h (2 Bft) NO 51 2 min 0,000 mm 0,5 UV-I 215 W/m 17,8 C 29,9 C 9,7 km/h (2 Bft) 94,59 %
18.08.2017 18:22 29,9 C 26,1 C 51 % 1009,7 hPa 0,0 l/m 7,7 km/h (2 Bft) N-NO 32 2 min 0,000 mm 0,5 UV-I 210 W/m 18,6 C 29,8 C 11,3 km/h (2 Bft) 95,74 %
18.08.2017 18:24 29,9 C 26,1 C 50 % 1009,7 hPa 0,0 l/m 7,3 km/h (2 Bft) NO 55 2 min 0,000 mm 0,5 UV-I 205 W/m 18,3 C 29,8 C 9,7 km/h (2 Bft) 97,87 %
18.08.2017 18:26 29,9 C 26,1 C 50 % 1009,6 hPa 0,0 l/m 5,1 km/h (1 Bft) O-NO 67 2 min 0,000 mm 0,5 UV-I 198 W/m 18,3 C 29,9 C 6,4 km/h (2 Bft) 98,00 %
18.08.2017 18:28 29,9 C 26,1 C 49 % 1009,6 hPa 0,0 l/m 8,6 km/h (2 Bft) O-NO 58 2 min 0,000 mm 0,4 UV-I 192 W/m 18,0 C 29,7 C 12,9 km/h (3 Bft) 98,00 %
18.08.2017 18:30 29,9 C 26,1 C 49 % 1009,5 hPa 0,0 l/m 8,1 km/h (2 Bft) O-NO 58 2 min 0,000 mm 0,0 UV-I 191 W/m 18,0 C 29,7 C 12,9 km/h (3 Bft) 95,74 %
18.08.2017 18:32 29,9 C 26,1 C 50 % 1009,5 hPa 0,0 l/m 5,9 km/h (2 Bft) O-NO 69 2 min 0,000 mm 0,0 UV-I 186 W/m 18,3 C 29,9 C 11,3 km/h (2 Bft) 97,87 %
18.08.2017 18:34 29,9 C 26,1 C 50 % 1009,5 hPa 0,0 l/m 6,4 km/h (2 Bft) O 96 2 min 0,000 mm 0,0 UV-I 181 W/m 18,3 C 29,9 C 9,7 km/h (2 Bft) 100,00 %
18.08.2017 18:36 29,8 C 26,1 C 51 % 1009,4 hPa 0,0 l/m 6,3 km/h (2 Bft) O-NO 71 2 min 0,000 mm 0,0 UV-I 175 W/m 18,5 C 29,8 C 12,9 km/h (3 Bft) 97,87 %
18.08.2017 18:38 29,8 C 26,1 C 51 % 1009,4 hPa 0,0 l/m 5,7 km/h (1 Bft) O 84 2 min 0,000 mm 0,0 UV-I 170 W/m 18,5 C 29,8 C 11,3 km/h (2 Bft) 100,00 %
18.08.2017 18:40 29,8 C 26,1 C 51 % 1009,3 hPa 0,0 l/m 5,1 km/h (1 Bft) O 83 2 min 0,000 mm 0,0 UV-I 164 W/m 18,5 C 29,8 C 11,3 km/h (2 Bft) 100,00 %
18.08.2017 18:42 29,8 C 26,1 C 52 % 1009,3 hPa 0,0 l/m 6,1 km/h (2 Bft) O-NO 74 2 min 0,000 mm 0,0 UV-I 158 W/m 18,9 C 29,8 C 11,3 km/h (2 Bft) 93,62 %
18.08.2017 18:44 29,7 C 26,1 C 52 % 1009,3 hPa 0,0 l/m 4,8 km/h (1 Bft) NO 43 2 min 0,000 mm 0,0 UV-I 153 W/m 18,8 C 29,7 C 6,4 km/h (2 Bft) 100,00 %
18.08.2017 18:46 29,7 C 26,1 C 53 % 1009,2 hPa 0,0 l/m 4,3 km/h (1 Bft) NO 52 2 min 0,000 mm 0,0 UV-I 147 W/m 19,1 C 29,7 C 6,4 km/h (2 Bft) 97,87 %
18.08.2017 18:48 29,7 C 26,1 C 53 % 1009,2 hPa 0,0 l/m 5,9 km/h (2 Bft) NO 54 2 min 0,000 mm 0,0 UV-I 142 W/m 19,1 C 29,7 C 11,3 km/h (2 Bft) 97,87 %
18.08.2017 18:50 29,7 C 26,1 C 52 % 1009,2 hPa 0,0 l/m 5,8 km/h (2 Bft) NO 53 2 min 0,000 mm 0,0 UV-I 135 W/m 18,8 C 29,7 C 8,0 km/h (2 Bft) 97,87 %
18.08.2017 18:52 29,6 C 26,1 C 53 % 1009,2 hPa 0,0 l/m 6,1 km/h (2 Bft) O-NO 74 2 min 0,000 mm 0,0 UV-I 130 W/m 19,0 C 29,6 C 9,7 km/h (2 Bft) 100,00 %
18.08.2017 18:54 29,6 C 26,1 C 53 % 1009,2 hPa 0,0 l/m 5,0 km/h (1 Bft) O-NO 69 2 min 0,000 mm 0,0 UV-I 126 W/m 19,0 C 29,6 C 8,0 km/h (2 Bft) 100,00 %
18.08.2017 18:56 29,6 C 26,1 C 54 % 1009,2 hPa 0,0 l/m 4,4 km/h (1 Bft) O-NO 61 2 min 0,000 mm 0,0 UV-I 122 W/m 19,3 C 29,6 C 6,4 km/h (2 Bft) 100,00 %
18.08.2017 18:58 29,5 C 26,1 C 54 % 1009,1 hPa 0,0 l/m 3,8 km/h (1 Bft) O-NO 60 2 min 0,000 mm 0,0 UV-I 118 W/m 19,2 C 29,5 C 6,4 km/h (2 Bft) 100,00 %
18.08.2017 19:00 29,4 C 26,1 C 54 % 1009,1 hPa 0,0 l/m 6,4 km/h (2 Bft) O-NO 63 2 min 0,000 mm 0,0 UV-I 112 W/m 19,1 C 29,4 C 11,3 km/h (2 Bft) 100,00 %
18.08.2017 19:02 29,4 C 26,1 C 54 % 1009,1 hPa 0,0 l/m 7,4 km/h (2 Bft) O-NO 61 2 min 0,177 mm 0,0 UV-I 107 W/m 19,1 C 29,3 C 12,9 km/h (3 Bft) 97,87 %
18.08.2017 19:04 29,4 C 26,1 C 55 % 1009,1 hPa 0,0 l/m 5,2 km/h (1 Bft) O-NO 69 2 min 0,000 mm 0,0 UV-I 105 W/m 19,4 C 29,4 C 8,0 km/h (2 Bft) 97,87 %
18.08.2017 19:06 29,3 C 26,1 C 55 % 1009,1 hPa 0,0 l/m 4,5 km/h (1 Bft) O-NO 73 2 min 0,000 mm 0,0 UV-I 101 W/m 19,3 C 29,3 C 6,4 km/h (2 Bft) 100,00 %
18.08.2017 19:08 29,2 C 26,1 C 55 % 1009,1 hPa 0,0 l/m 5,6 km/h (1 Bft) O-SO 112 2 min 0,000 mm 0,0 UV-I 97 W/m 19,2 C 29,2 C 8,0 km/h (2 Bft) 100,00 %
18.08.2017 19:10 29,1 C 26,1 C 56 % 1009,0 hPa 0,0 l/m 4,6 km/h (1 Bft) O-NO 63 2 min 0,000 mm 0,0 UV-I 93 W/m 19,4 C 29,1 C 8,0 km/h (2 Bft) 100,00 %
18.08.2017 19:12 29,1 C 26,1 C 56 % 1009,0 hPa 0,0 l/m 4,4 km/h (1 Bft) O-NO 66 2 min 0,000 mm 0,0 UV-I 89 W/m 19,4 C 29,1 C 6,4 km/h (2 Bft) 97,87 %
18.08.2017 19:14 29,0 C 26,1 C 56 % 1009,0 hPa 0,0 l/m 2,3 km/h (1 Bft) O-NO 66 2 min 0,000 mm 0,0 UV-I 84 W/m 19,3 C 29,0 C 3,2 km/h (1 Bft) 100,00 %
18.08.2017 19:16 28,9 C 26,1 C 57 % 1009,0 hPa 0,0 l/m 3,6 km/h (1 Bft) NO 48 2 min 0,000 mm 0,0 UV-I 81 W/m 19,5 C 28,9 C 4,8 km/h (1 Bft) 100,00 %
18.08.2017 19:18 28,9 C 26,1 C 58 % 1009,0 hPa 0,0 l/m 2,9 km/h (1 Bft) O-NO 71 2 min 0,000 mm 0,0 UV-I 77 W/m 19,8 C 28,9 C 4,8 km/h (1 Bft) 100,00 %
18.08.2017 19:20 28,8 C 26,1 C 58 % 1009,0 hPa 0,0 l/m 2,5 km/h (1 Bft) O-NO 71 2 min 0,000 mm 0,0 UV-I 74 W/m 19,7 C 28,8 C 4,8 km/h (1 Bft) 100,00 %
18.08.2017 19:22 28,8 C 26,1 C 58 % 1009,0 hPa 0,0 l/m 3,0 km/h (1 Bft) O-NO 71 2 min 0,000 mm 0,0 UV-I 70 W/m 19,7 C 28,8 C 4,8 km/h (1 Bft) 100,00 %
18.08.2017 19:24 28,7 C 26,1 C 58 % 1008,9 hPa 0,0 l/m 3,4 km/h (1 Bft) O-NO 71 2 min 0,000 mm 0,0 UV-I 66 W/m 19,6 C 28,7 C 6,4 km/h (2 Bft) 97,87 %
18.08.2017 19:26 28,7 C 26,1 C 59 % 1008,9 hPa 0,0 l/m 4,1 km/h (1 Bft) O 80 2 min 0,000 mm 0,0 UV-I 63 W/m 19,9 C 28,7 C 6,4 km/h (2 Bft) 97,87 %
18.08.2017 19:28 28,6 C 26,1 C 58 % 1008,9 hPa 0,0 l/m 5,1 km/h (1 Bft) O-NO 71 2 min 0,000 mm 0,0 UV-I 60 W/m 19,5 C 28,6 C 9,7 km/h (2 Bft) 100,00 %
18.08.2017 19:30 28,5 C 26,1 C 59 % 1008,8 hPa 0,0 l/m 3,0 km/h (1 Bft) O-NO 71 0 min 0,000 mm 0,0 UV-I 55 W/m 19,7 C 28,5 C 4,8 km/h (1 Bft) 100,00 %
18.08.2017 19:32 28,4 C 26,1 C 58 % 1008,8 hPa 0,0 l/m 3,5 km/h (1 Bft) O-NO 72 2 min 0,000 mm 0,0 UV-I 53 W/m 19,3 C 28,4 C 4,8 km/h (1 Bft) 100,00 %
18.08.2017 19:34 28,3 C 26,1 C 59 % 1008,8 hPa 0,0 l/m 3,3 km/h (1 Bft) O-NO 72 0 min 0,000 mm 0,0 UV-I 49 W/m 19,5 C 28,3 C 4,8 km/h (1 Bft) 97,87 %
18.08.2017 19:36 28,3 C 26,1 C 59 % 1008,8 hPa 0,0 l/m 3,5 km/h (1 Bft) O-NO 76 0 min 0,000 mm 0,0 UV-I 46 W/m 19,5 C 28,3 C 4,8 km/h (1 Bft) 97,87 %
18.08.2017 19:38 28,3 C 26,1 C 60 % 1008,7 hPa 0,0 l/m 2,9 km/h (1 Bft) O-NO 76 2 min 0,000 mm 0,0 UV-I 44 W/m 19,8 C 28,3 C 4,8 km/h (1 Bft) 100,00 %
18.08.2017 19:40 28,2 C 26,1 C 61 % 1008,7 hPa 0,0 l/m 2,2 km/h (1 Bft) O-NO 76 2 min 0,000 mm 0,0 UV-I 41 W/m 19,9 C 28,2 C 3,2 km/h (1 Bft) 100,00 %
18.08.2017 19:42 27,9 C 26,1 C 62 % 1008,7 hPa 0,0 l/m 2,4 km/h (1 Bft) O-NO 76 2 min 0,000 mm 0,0 UV-I 39 W/m 19,9 C 27,9 C 3,2 km/h (1 Bft) 97,87 %
18.08.2017 19:44 27,8 C 26,1 C 61 % 1008,7 hPa 0,0 l/m 3,5 km/h (1 Bft) O-NO 76 2 min 0,000 mm 0,0 UV-I 36 W/m 19,6 C 27,8 C 4,8 km/h (1 Bft) 100,00 %
18.08.2017 19:46 27,7 C 26,1 C 62 % 1008,6 hPa 0,0 l/m 2,7 km/h (1 Bft) O-NO 76 2 min 0,000 mm 0,0 UV-I 34 W/m 19,7 C 27,7 C 4,8 km/h (1 Bft) 100,00 %
18.08.2017 19:48 27,7 C 26,1 C 62 % 1008,6 hPa 0,0 l/m 3,4 km/h (1 Bft) O-NO 76 2 min 0,000 mm 0,0 UV-I 31 W/m 19,7 C 27,7 C 4,8 km/h (1 Bft) 97,37 %
18.08.2017 19:50 27,6 C 26,1 C 62 % 1008,6 hPa 0,0 l/m 3,8 km/h (1 Bft) O-NO 76 2 min 0,000 mm 0,0 UV-I 26 W/m 19,6 C 27,6 C 4,8 km/h (1 Bft) 97,87 %
18.08.2017 19:52 27,6 C 26,1 C 63 % 1008,5 hPa 0,0 l/m 2,9 km/h (1 Bft) O-NO 76 0 min 0,000 mm 0,0 UV-I 21 W/m 19,9 C 27,6 C 4,8 km/h (1 Bft) 97,87 %
18.08.2017 19:54 27,4 C 26,1 C 63 % 1008,5 hPa 0,0 l/m 3,1 km/h (1 Bft) O-NO 76 0 min 0,000 mm 0,0 UV-I 18 W/m 19,7 C 27,4 C 4,8 km/h (1 Bft) 98,00 %
18.08.2017 19:56 27,4 C 26,1 C 63 % 1008,4 hPa 0,0 l/m 2,8 km/h (1 Bft) O-NO 76 0 min 0,000 mm 0,0 UV-I 14 W/m 19,7 C 27,4 C 4,8 km/h (1 Bft) 95,74 %
18.08.2017 19:58 27,3 C 26,1 C 65 % 1008,4 hPa 0,0 l/m 1,6 km/h (1 Bft) O-NO 76 0 min 0,000 mm 0,0 UV-I 12 W/m 20,1 C 27,3 C 4,8 km/h (1 Bft) 95,83 %
18.08.2017 20:00 27,3 C 26,1 C 64 % 1008,4 hPa 0,0 l/m 3,8 km/h (1 Bft) O-NO 76 2 min 0,000 mm 0,0 UV-I 10 W/m 19,9 C 27,3 C 6,4 km/h (2 Bft) 95,74 %
18.08.2017 20:02 27,2 C 26,1 C 64 % 1008,4 hPa 0,0 l/m 3,7 km/h (1 Bft) O-NO 76 0 min 0,077 mm 0,0 UV-I 9 W/m 19,8 C 27,2 C 6,4 km/h (2 Bft) 97,87 %
18.08.2017 20:04 27,2 C 26,1 C 63 % 1008,3 hPa 0,0 l/m 2,9 km/h (1 Bft) O-NO 76 0 min 0,000 mm 0,0 UV-I 9 W/m 19,5 C 27,2 C 4,8 km/h (1 Bft) 97,87 %
18.08.2017 20:06 27,2 C 26,1 C 63 % 1008,3 hPa 0,0 l/m 1,0 km/h (0 Bft) O-NO 76 0 min 0,000 mm 0,0 UV-I 7 W/m 19,5 C 27,2 C 1,6 km/h (1 Bft) 98,00 %
18.08.2017 20:08 27,2 C 26,1 C 63 % 1008,3 hPa 0,0 l/m 1,1 km/h (1 Bft) O-NO 76 0 min 0,000 mm 0,0 UV-I 7 W/m 19,5 C 27,2 C 3,2 km/h (1 Bft) 97,96 %
18.08.2017 20:10 27,1 C 26,1 C 63 % 1008,4 hPa 0,0 l/m 0,7 km/h (0 Bft) O-NO 76 0 min 0,000 mm 0,0 UV-I 7 W/m 19,4 C 27,1 C 1,6 km/h (1 Bft) 97,87 %
18.08.2017 20:12 27,1 C 26,1 C 63 % 1008,3 hPa 0,0 l/m 1,2 km/h (1 Bft) O-NO 76 0 min 0,000 mm 0,0 UV-I 6 W/m 19,4 C 27,1 C 1,6 km/h (1 Bft) 95,74 %
18.08.2017 20:14 27,1 C 26,1 C 64 % 1008,3 hPa 0,0 l/m 1,1 km/h (1 Bft) O-NO 76 0 min 0,000 mm 0,0 UV-I 5 W/m 19,7 C 27,1 C 1,6 km/h (1 Bft) 95,74 %
18.08.2017 20:16 27,0 C 26,1 C 64 % 1008,2 hPa 0,0 l/m 0,8 km/h (0 Bft) O-NO 76 0 min 0,000 mm 0,0 UV-I 5 W/m 19,6 C 27,0 C 1,6 km/h (1 Bft) 97,14 %
18.08.2017 20:18 26,9 C 26,1 C 64 % 1008,2 hPa 0,0 l/m 0,7 km/h (0 Bft) O-NO 76 0 min 0,000 mm 0,0 UV-I 5 W/m 19,5 C 26,9 C 1,6 km/h (1 Bft) 95,74 %
18.08.2017 20:20 26,9 C 26,1 C 64 % 1008,1 hPa 0,0 l/m 0,3 km/h (0 Bft) O-NO 76 0 min 0,000 mm 0,0 UV-I 5 W/m 19,5 C 26,9 C 1,6 km/h (1 Bft) 100,00 %
18.08.2017 20:22 26,8 C 26,1 C 65 % 1008,1 hPa 0,0 l/m 0,0 km/h (0 Bft) O-NO 76 0 min 0,000 mm 0,0 UV-I 5 W/m 19,7 C 26,8 C 0,0 km/h (0 Bft) 97,87 %
18.08.2017 20:24 26,8 C 26,1 C 65 % 1008,2 hPa 0,0 l/m 0,0 km/h (0 Bft) O-NO 76 0 min 0,000 mm 0,0 UV-I 0 W/m 19,7 C 26,8 C 0,0 km/h (0 Bft) 100,00 %
18.08.2017 20:26 26,7 C 26,1 C 65 % 1008,2 hPa 0,0 l/m 0,0 km/h (0 Bft) O-NO 76 0 min 0,000 mm 0,0 UV-I 0 W/m 19,6 C 26,7 C 0,0 km/h (0 Bft) 100,00 %
18.08.2017 20:28 26,7 C 26,1 C 66 % 1008,2 hPa 0,0 l/m 0,0 km/h (0 Bft) O-NO 76 0 min 0,000 mm 0,0 UV-I 0 W/m 19,8 C 26,7 C 0,0 km/h (0 Bft) 94,00 %
18.08.2017 20:30 26,6 C 26,1 C 68 % 1008,1 hPa 0,0 l/m 0,2 km/h (0 Bft) O-NO 76 0 min 0,000 mm 0,0 UV-I 0 W/m 20,2 C 26,6 C 1,6 km/h (1 Bft) 100,00 %
18.08.2017 20:32 26,4 C 26,1 C 67 % 1008,1 hPa 0,0 l/m 1,1 km/h (1 Bft) O-NO 76 0 min 0,000 mm 0,0 UV-I 0 W/m 19,8 C 26,4 C 3,2 km/h (1 Bft) 95,74 %
18.08.2017 20:34 26,2 C 26,1 C 68 % 1008,1 hPa 0,0 l/m 1,3 km/h (1 Bft) O-NO 76 0 min 0,000 mm 0,0 UV-I 0 W/m 19,8 C 26,2 C 3,2 km/h (1 Bft) 100,00 %
18.08.2017 20:36 26,1 C 26,1 C 69 % 1008,0 hPa 0,0 l/m 2,3 km/h (1 Bft) O-NO 76 0 min 0,000 mm 0,0 UV-I 0 W/m 20,0 C 26,1 C 3,2 km/h (1 Bft) 97,92 %
18.08.2017 20:38 25,9 C 26,1 C 69 % 1008,1 hPa 0,0 l/m 1,8 km/h (1 Bft) O-NO 76 0 min 0,000 mm 0,0 UV-I 0 W/m 19,8 C 25,9 C 3,2 km/h (1 Bft) 100,00 %
18.08.2017 20:40 25,8 C 26,1 C 71 % 1008,0 hPa 0,0 l/m 2,3 km/h (1 Bft) O-NO 76 0 min 0,000 mm 0,0 UV-I 0 W/m 20,1 C 25,8 C 3,2 km/h (1 Bft) 100,00 %
18.08.2017 20:42 25,7 C 26,1 C 72 % 1008,0 hPa 0,0 l/m 2,6 km/h (1 Bft) O-NO 76 0 min 0,000 mm 0,0 UV-I 0 W/m 20,3 C 25,7 C 3,2 km/h (1 Bft) 100,00 %
18.08.2017 20:44 25,4 C 26,1 C 73 % 1007,9 hPa 0,0 l/m 3,4 km/h (1 Bft) O-NO 76 0 min 0,000 mm 0,0 UV-I 0 W/m 20,2 C 25,4 C 4,8 km/h (1 Bft) 97,96 %
18.08.2017 20:46 25,3 C 25,6 C 74 % 1007,9 hPa 0,0 l/m 4,5 km/h (1 Bft) O-NO 76 0 min 0,000 mm 0,0 UV-I 0 W/m 20,3 C 25,3 C 6,4 km/h (2 Bft) 100,00 %
18.08.2017 20:48 25,2 C 25,6 C 72 % 1007,9 hPa 0,0 l/m 4,1 km/h (1 Bft) O-NO 76 0 min 0,000 mm 0,0 UV-I 0 W/m 19,8 C 25,2 C 6,4 km/h (2 Bft) 100,00 %
18.08.2017 20:50 25,3 C 25,6 C 70 % 1007,8 hPa 0,0 l/m 5,7 km/h (1 Bft) O-NO 76 0 min 0,000 mm 0,0 UV-I 0 W/m 19,4 C 25,3 C 8,0 km/h (2 Bft) 97,87 %
18.08.2017 20:52 25,4 C 25,6 C 70 % 1007,8 hPa 0,0 l/m 6,1 km/h (2 Bft) O 79 0 min 0,000 mm 0,0 UV-I 0 W/m 19,5 C 25,4 C 8,0 km/h (2 Bft) 100,00 %
18.08.2017 20:54 25,5 C 25,6 C 70 % 1007,8 hPa 0,0 l/m 5,8 km/h (2 Bft) O-NO 72 0 min 0,000 mm 0,0 UV-I 0 W/m 19,6 C 25,5 C 11,3 km/h (2 Bft) 97,87 %
18.08.2017 20:56 25,5 C 25,6 C 69 % 1007,7 hPa 0,0 l/m 6,8 km/h (2 Bft) O-NO 74 0 min 0,000 mm 0,0 UV-I 0 W/m 19,4 C 25,4 C 11,3 km/h (2 Bft) 95,74 %
18.08.2017 20:58 25,6 C 25,6 C 68 % 1007,6 hPa 0,0 l/m 7,4 km/h (2 Bft) O-NO 71 0 min 0,000 mm 0,0 UV-I 0 W/m 19,2 C 25,4 C 12,9 km/h (3 Bft) 98,00 %
18.08.2017 21:00 25,7 C 25,6 C 67 % 1007,6 hPa 0,0 l/m 8,3 km/h (2 Bft) O-NO 71 0 min 0,000 mm 0,0 UV-I 0 W/m 19,1 C 25,3 C 12,9 km/h (3 Bft) 100,00 %
18.08.2017 21:02 25,8 C 25,6 C 66 % 1007,6 hPa 0,0 l/m 9,3 km/h (2 Bft) O-NO 76 0 min 0,025 mm 0,0 UV-I 0 W/m 19,0 C 25,2 C 12,9 km/h (3 Bft) 98,00 %
18.08.2017 21:04 25,9 C 25,6 C 66 % 1007,6 hPa 0,0 l/m 6,6 km/h (2 Bft) O-SO 107 0 min 0,000 mm 0,0 UV-I 0 W/m 19,0 C 25,9 C 11,3 km/h (2 Bft) 95,74 %
18.08.2017 21:06 26,0 C 25,6 C 66 % 1007,6 hPa 0,0 l/m 5,1 km/h (1 Bft) O-NO 73 0 min 0,000 mm 0,0 UV-I 0 W/m 19,1 C 26,0 C 8,0 km/h (2 Bft) 97,37 %
18.08.2017 21:08 26,1 C 25,6 C 66 % 1007,6 hPa 0,0 l/m 4,8 km/h (1 Bft) O-NO 76 0 min 0,000 mm 0,0 UV-I 0 W/m 19,2 C 26,1 C 8,0 km/h (2 Bft) 97,87 %
18.08.2017 21:10 26,1 C 25,6 C 65 % 1007,7 hPa 0,0 l/m 5,9 km/h (2 Bft) O-SO 109 0 min 0,000 mm 0,0 UV-I 0 W/m 19,0 C 26,1 C 11,3 km/h (2 Bft) 97,87 %
18.08.2017 21:12 26,1 C 25,6 C 65 % 1007,6 hPa 0,0 l/m 5,5 km/h (1 Bft) O-SO 105 0 min 0,000 mm 0,0 UV-I 0 W/m 19,0 C 26,1 C 9,7 km/h (2 Bft) 97,87 %
18.08.2017 21:14 26,1 C 25,6 C 65 % 1007,6 hPa 0,0 l/m 8,2 km/h (2 Bft) O 90 0 min 0,000 mm 0,0 UV-I 0 W/m 19,0 C 25,7 C 12,9 km/h (3 Bft) 93,75 %
18.08.2017 21:16 26,2 C 25,6 C 65 % 1007,6 hPa 0,0 l/m 6,1 km/h (2 Bft) O 92 0 min 0,000 mm 0,0 UV-I 0 W/m 19,1 C 26,2 C 11,3 km/h (2 Bft) 97,87 %
18.08.2017 21:18 26,1 C 25,6 C 65 % 1007,5 hPa 0,0 l/m 8,1 km/h (2 Bft) O 96 0 min 0,000 mm 0,0 UV-I 0 W/m 19,0 C 25,7 C 12,9 km/h (3 Bft) 98,00 %
18.08.2017 21:20 26,1 C 25,6 C 65 % 1007,5 hPa 0,0 l/m 8,7 km/h (2 Bft) O-SO 105 0 min 0,000 mm 0,0 UV-I 0 W/m 19,0 C 25,6 C 12,9 km/h (3 Bft) 95,74 %
18.08.2017 21:22 26,1 C 25,6 C 65 % 1007,5 hPa 0,0 l/m 5,6 km/h (1 Bft) O 82 0 min 0,000 mm 0,0 UV-I 0 W/m 19,0 C 26,1 C 9,7 km/h (2 Bft) 98,00 %
18.08.2017 21:24 26,0 C 25,6 C 65 % 1007,6 hPa 0,0 l/m 7,9 km/h (2 Bft) O 93 0 min 0,000 mm 0,0 UV-I 0 W/m 18,9 C 25,7 C 12,9 km/h (3 Bft) 95,74 %
18.08.2017 21:26 26,0 C 25,6 C 65 % 1007,7 hPa 0,0 l/m 8,1 km/h (2 Bft) O-NO 77 0 min 0,000 mm 0,0 UV-I 0 W/m 18,9 C 25,6 C 12,9 km/h (3 Bft) 97,87 %
18.08.2017 21:28 26,1 C 25,6 C 65 % 1007,7 hPa 0,0 l/m 5,7 km/h (1 Bft) O-SO 108 0 min 0,000 mm 0,0 UV-I 0 W/m 19,0 C 26,1 C 9,7 km/h (2 Bft) 97,56 %
18.08.2017 21:30 26,0 C 25,6 C 65 % 1007,7 hPa 0,0 l/m 4,0 km/h (1 Bft) O-SO 112 0 min 0,000 mm 0,0 UV-I 0 W/m 18,9 C 26,0 C 4,8 km/h (1 Bft) 96,00 %
18.08.2017 21:32 25,9 C 25,6 C 66 % 1007,7 hPa 0,0 l/m 4,5 km/h (1 Bft) SO 124 0 min 0,000 mm 0,0 UV-I 0 W/m 19,0 C 25,9 C 6,4 km/h (2 Bft) 95,74 %
18.08.2017 21:34 25,7 C 25,6 C 67 % 1007,7 hPa 0,0 l/m 4,8 km/h (1 Bft) SO 134 0 min 0,000 mm 0,0 UV-I 0 W/m 19,1 C 25,7 C 8,0 km/h (2 Bft) 95,74 %
18.08.2017 21:36 25,4 C 25,6 C 69 % 1007,7 hPa 0,0 l/m 6,0 km/h (2 Bft) O-SO 119 0 min 0,000 mm 0,0 UV-I 0 W/m 19,3 C 25,4 C 8,0 km/h (2 Bft) 95,74 %
18.08.2017 21:38 25,2 C 25,6 C 70 % 1007,6 hPa 0,0 l/m 5,8 km/h (2 Bft) O-SO 119 0 min 0,000 mm 0,0 UV-I 0 W/m 19,3 C 25,2 C 9,7 km/h (2 Bft) 97,87 %
18.08.2017 21:40 25,0 C 25,6 C 71 % 1007,6 hPa 0,0 l/m 5,1 km/h (1 Bft) O-SO 117 0 min 0,000 mm 0,0 UV-I 0 W/m 19,4 C 25,0 C 6,4 km/h (2 Bft) 95,74 %
18.08.2017 21:42 24,8 C 25,6 C 71 % 1007,6 hPa 0,0 l/m 5,2 km/h (1 Bft) O-SO 118 0 min 0,000 mm 0,0 UV-I 0 W/m 19,2 C 24,8 C 6,4 km/h (2 Bft) 93,62 %
18.08.2017 21:44 24,8 C 25,6 C 72 % 1007,7 hPa 0,0 l/m 4,6 km/h (1 Bft) O-SO 119 0 min 0,000 mm 0,0 UV-I 0 W/m 19,4 C 24,8 C 6,4 km/h (2 Bft) 95,74 %
18.08.2017 21:46 24,7 C 25,6 C 72 % 1007,7 hPa 0,0 l/m 4,3 km/h (1 Bft) O-SO 119 0 min 0,000 mm 0,0 UV-I 0 W/m 19,3 C 24,7 C 4,8 km/h (1 Bft) 93,88 %
18.08.2017 21:48 24,6 C 25,6 C 73 % 1007,7 hPa 0,0 l/m 4,0 km/h (1 Bft) O-SO 116 0 min 0,000 mm 0,0 UV-I 0 W/m 19,4 C 24,6 C 9,7 km/h (2 Bft) 97,30 %
18.08.2017 21:50 24,5 C 25,6 C 73 % 1007,7 hPa 0,0 l/m 5,3 km/h (1 Bft) SO 130 0 min 0,000 mm 0,0 UV-I 0 W/m 19,3 C 24,5 C 8,0 km/h (2 Bft) 93,62 %
18.08.2017 21:52 24,4 C 25,6 C 73 % 1007,6 hPa 0,0 l/m 4,2 km/h (1 Bft) O-SO 121 0 min 0,000 mm 0,0 UV-I 0 W/m 19,2 C 24,4 C 6,4 km/h (2 Bft) 95,83 %
18.08.2017 21:54 24,3 C 25,6 C 74 % 1007,6 hPa 0,0 l/m 3,8 km/h (1 Bft) O-SO 121 0 min 0,000 mm 0,0 UV-I 0 W/m 19,4 C 24,3 C 6,4 km/h (2 Bft) 95,74 %
18.08.2017 21:56 24,2 C 25,6 C 75 % 1007,7 hPa 0,0 l/m 3,6 km/h (1 Bft) O-SO 123 0 min 0,000 mm 0,0 UV-I 0 W/m 19,5 C 24,2 C 6,4 km/h (2 Bft) 93,62 %
18.08.2017 21:58 24,1 C 25,6 C 76 % 1007,7 hPa 0,0 l/m 4,1 km/h (1 Bft) SO 134 0 min 0,000 mm 0,0 UV-I 0 W/m 19,6 C 24,1 C 6,4 km/h (2 Bft) 93,62 %
18.08.2017 22:00 24,0 C 25,6 C 76 % 1007,7 hPa 0,0 l/m 3,5 km/h (1 Bft) SO 125 0 min 0,000 mm 0,0 UV-I 0 W/m 19,5 C 24,0 C 8,0 km/h (2 Bft) 94,74 %
18.08.2017 22:02 23,9 C 25,6 C 76 % 1007,7 hPa 0,0 l/m 3,6 km/h (1 Bft) S-SO 150 0 min 0,025 mm 0,0 UV-I 0 W/m 19,4 C 23,9 C 6,4 km/h (2 Bft) 95,16 %
18.08.2017 22:04 23,9 C 25,6 C 76 % 1007,8 hPa 0,0 l/m 3,5 km/h (1 Bft) O-SO 122 0 min 0,000 mm 0,0 UV-I 0 W/m 19,4 C 23,9 C 4,8 km/h (1 Bft) 93,88 %
18.08.2017 22:06 24,0 C 25,6 C 76 % 1007,8 hPa 0,0 l/m 1,9 km/h (1 Bft) SO 138 0 min 0,000 mm 0,0 UV-I 0 W/m 19,5 C 24,0 C 4,8 km/h (1 Bft) 94,59 %
18.08.2017 22:08 24,1 C 25,6 C 76 % 1007,9 hPa 0,0 l/m 0,3 km/h (0 Bft) SO 138 0 min 0,000 mm 0,0 UV-I 0 W/m 19,6 C 24,1 C 1,6 km/h (1 Bft) 96,15 %
18.08.2017 22:10 24,1 C 25,6 C 76 % 1007,9 hPa 0,0 l/m 0,4 km/h (0 Bft) SO 138 0 min 0,000 mm 0,0 UV-I 0 W/m 19,6 C 24,1 C 1,6 km/h (1 Bft) 94,00 %
18.08.2017 22:12 24,1 C 25,6 C 76 % 1007,9 hPa 0,0 l/m 1,0 km/h (0 Bft) SO 138 0 min 0,000 mm 0,0 UV-I 0 W/m 19,6 C 24,1 C 3,2 km/h (1 Bft) 97,87 %
18.08.2017 22:14 24,0 C 25,6 C 76 % 1008,0 hPa 0,0 l/m 0,0 km/h (0 Bft) SO 138 0 min 0,000 mm 0,0 UV-I 0 W/m 19,5 C 24,0 C 0,0 km/h (0 Bft) 97,50 %
18.08.2017 22:16 23,9 C 25,6 C 77 % 1008,0 hPa 0,0 l/m 0,1 km/h (0 Bft) SO 138 0 min 0,000 mm 0,0 UV-I 0 W/m 19,6 C 23,9 C 1,6 km/h (1 Bft) 100,00 %
18.08.2017 22:18 23,8 C 25,6 C 78 % 1008,0 hPa 0,0 l/m 0,0 km/h (0 Bft) SO 138 0 min 0,000 mm 0,0 UV-I 0 W/m 19,7 C 23,8 C 0,0 km/h (0 Bft) 100,00 %
18.08.2017 22:20 23,7 C 25,6 C 78 % 1008,0 hPa 0,0 l/m 0,0 km/h (0 Bft) SO 138 0 min 0,000 mm 0,0 UV-I 0 W/m 19,6 C 23,7 C 0,0 km/h (0 Bft) 100,00 %
18.08.2017 22:22 23,6 C 25,6 C 78 % 1008,0 hPa 0,0 l/m 0,0 km/h (0 Bft) SO 138 0 min 0,000 mm 0,0 UV-I 0 W/m 19,5 C 23,6 C 0,0 km/h (0 Bft) 100,00 %
18.08.2017 22:24 23,6 C 25,6 C 79 % 1008,1 hPa 0,0 l/m 0,0 km/h (0 Bft) SO 138 0 min 0,000 mm 0,0 UV-I 0 W/m 19,7 C 23,6 C 0,0 km/h (0 Bft) 100,00 %
18.08.2017 22:26 23,5 C 25,6 C 79 % 1008,1 hPa 0,0 l/m 0,0 km/h (0 Bft) SO 138 0 min 0,000 mm 0,0 UV-I 0 W/m 19,6 C 23,5 C 1,6 km/h (1 Bft) 100,00 %
18.08.2017 22:28 23,4 C 25,6 C 79 % 1008,2 hPa 0,0 l/m 1,0 km/h (0 Bft) SO 138 0 min 0,000 mm 0,0 UV-I 0 W/m 19,5 C 23,4 C 3,2 km/h (1 Bft) 100,00 %
18.08.2017 22:30 23,3 C 25,6 C 79 % 1008,2 hPa 0,0 l/m 1,2 km/h (1 Bft) SO 138 0 min 0,000 mm 0,0 UV-I 0 W/m 19,4 C 23,3 C 3,2 km/h (1 Bft) 100,00 %
18.08.2017 22:33 23,2 C 25,6 C 80 % 1008,2 hPa 0,0 l/m 0,5 km/h (0 Bft) SO 138 0 min 0,000 mm 0,0 UV-I 0 W/m 19,6 C 23,2 C 3,2 km/h (1 Bft) 100,00 %
18.08.2017 22:34 23,1 C 25,6 C 81 % 1008,2 hPa 0,0 l/m 0,1 km/h (0 Bft) SO 138 0 min 0,000 mm 0,0 UV-I 0 W/m 19,7 C 23,1 C 1,6 km/h (1 Bft) 100,00 %
18.08.2017 22:36 22,9 C 25,6 C 81 % 1008,2 hPa 0,0 l/m 0,2 km/h (0 Bft) SO 138 0 min 0,000 mm 0,0 UV-I 0 W/m 19,5 C 22,9 C 1,6 km/h (1 Bft) 100,00 %
18.08.2017 22:38 22,8 C 25,6 C 82 % 1008,2 hPa 0,0 l/m 0,7 km/h (0 Bft) SO 138 0 min 0,000 mm 0,0 UV-I 0 W/m 19,6 C 22,8 C 3,2 km/h (1 Bft) 100,00 %
18.08.2017 22:40 22,7 C 25,6 C 83 % 1008,3 hPa 0,0 l/m 0,0 km/h (0 Bft) SO 138 0 min 0,000 mm 0,0 UV-I 0 W/m 19,7 C 22,7 C 0,0 km/h (0 Bft) 100,00 %
18.08.2017 22:42 22,6 C 25,6 C 83 % 1008,3 hPa 0,0 l/m 0,0 km/h (0 Bft) SO 138 0 min 0,000 mm 0,0 UV-I 0 W/m 19,6 C 22,6 C 0,0 km/h (0 Bft) 100,00 %
18.08.2017 22:44 22,6 C 25,6 C 83 % 1008,4 hPa 0,0 l/m 0,2 km/h (0 Bft) SO 138 0 min 0,000 mm 0,0 UV-I 0 W/m 19,6 C 22,6 C 1,6 km/h (1 Bft) 100,00 %
18.08.2017 22:46 22,6 C 25,6 C 83 % 1008,5 hPa 0,0 l/m 0,0 km/h (0 Bft) SO 138 0 min 0,000 mm 0,0 UV-I 0 W/m 19,6 C 22,6 C 0,0 km/h (0 Bft) 100,00 %
18.08.2017 22:48 22,6 C 25,6 C 83 % 1008,6 hPa 0,0 l/m 0,0 km/h (0 Bft) SO 138 0 min 0,000 mm 0,0 UV-I 0 W/m 19,6 C 22,6 C 1,6 km/h (1 Bft) 100,00 %
18.08.2017 22:50 22,6 C 25,6 C 83 % 1008,6 hPa 0,0 l/m 0,0 km/h (0 Bft) SO 138 0 min 0,000 mm 0,0 UV-I 0 W/m 19,6 C 22,6 C 0,0 km/h (0 Bft) 100,00 %
18.08.2017 22:52 22,6 C 25,6 C 83 % 1008,6 hPa 0,0 l/m 0,0 km/h (0 Bft) SO 138 0 min 0,000 mm 0,0 UV-I 0 W/m 19,6 C 22,6 C 0,0 km/h (0 Bft) 100,00 %
18.08.2017 22:54 22,5 C 25,6 C 84 % 1008,6 hPa 0,0 l/m 0,5 km/h (0 Bft) SO 138 0 min 0,000 mm 0,0 UV-I 0 W/m 19,7 C 22,5 C 4,8 km/h (1 Bft) 100,00 %
18.08.2017 22:56 22,4 C 25,6 C 84 % 1008,6 hPa 0,0 l/m 2,5 km/h (1 Bft) SO 138 0 min 0,000 mm 0,0 UV-I 0 W/m 19,6 C 22,4 C 3,2 km/h (1 Bft) 93,62 %
18.08.2017 22:58 22,3 C 25,6 C 85 % 1008,6 hPa 0,0 l/m 1,1 km/h (1 Bft) SO 138 0 min 0,000 mm 0,0 UV-I 0 W/m 19,7 C 22,3 C 3,2 km/h (1 Bft) 97,87 %
18.08.2017 23:00 22,3 C 25,6 C 85 % 1008,7 hPa 0,0 l/m 1,4 km/h (1 Bft) SO 139 0 min 0,000 mm 0,0 UV-I 0 W/m 19,7 C 22,3 C 3,2 km/h (1 Bft) 100,00 %
18.08.2017 23:02 22,3 C 25,6 C 85 % 1008,8 hPa 0,0 l/m 3,0 km/h (1 Bft) SW 223 0 min 0,000 mm 0,0 UV-I 0 W/m 19,7 C 22,3 C 4,8 km/h (1 Bft) 100,00 %
18.08.2017 23:04 22,3 C 25,6 C 85 % 1008,9 hPa 0,0 l/m 5,1 km/h (1 Bft) SW 224 0 min 0,000 mm 0,0 UV-I 0 W/m 19,7 C 22,3 C 6,4 km/h (2 Bft) 100,00 %
18.08.2017 23:06 22,3 C 25,6 C 84 % 1009,2 hPa 0,0 l/m 7,3 km/h (2 Bft) SW 236 0 min 0,000 mm 0,0 UV-I 0 W/m 19,5 C 22,0 C 9,7 km/h (2 Bft) 100,00 %
18.08.2017 23:08 22,3 C 25,6 C 84 % 1009,7 hPa 0,0 l/m 21,8 km/h (4 Bft) W 263 0 min 0,000 mm 0,0 UV-I 0 W/m 19,5 C 18,9 C 46,7 km/h (6 Bft) 100,00 %
18.08.2017 23:10 22,4 C 25,6 C 79 % 1012,0 hPa 0,0 l/m 46,8 km/h (6 Bft) W-NW 283 0 min 0,000 mm 0,0 UV-I 0 W/m 18,6 C 16,9 C 66,0 km/h (8 Bft) 100,00 %
18.08.2017 23:12 22,6 C 25,6 C 74 % 1013,0 hPa 0,0 l/m 41,4 km/h (6 Bft) W-NW 283 0 min 0,000 mm 0,0 UV-I 0 W/m 17,7 C 17,5 C 72,4 km/h (8 Bft) 100,00 %
18.08.2017 23:14 22,5 C 25,6 C 67 % 1012,8 hPa 0,0 l/m 35,8 km/h (5 Bft) NW 309 0 min 0,000 mm 0,0 UV-I 0 W/m 16,1 C 17,7 C 66,0 km/h (8 Bft) 100,00 %
18.08.2017 23:16 22,2 C 25,6 C 65 % 1012,8 hPa 0,0 l/m 37,6 km/h (5 Bft) W-SW 251 0 min 0,000 mm 0,0 UV-I 0 W/m 15,3 C 17,2 C 74,0 km/h (8 Bft) 100,00 %
18.08.2017 23:18 21,8 C 25,6 C 66 % 1013,1 hPa 0,0 l/m 31,8 km/h (5 Bft) W-SW 257 0 min 0,000 mm 0,0 UV-I 0 W/m 15,2 C 17,1 C 53,1 km/h (7 Bft) 100,00 %
18.08.2017 23:20 21,4 C 25,6 C 67 % 1013,4 hPa 0,0 l/m 34,9 km/h (5 Bft) W-SW 254 0 min 0,000 mm 0,0 UV-I 0 W/m 15,0 C 16,2 C 59,5 km/h (7 Bft) 100,00 %
18.08.2017 23:22 21,1 C 25,6 C 69 % 1013,7 hPa 0,0 l/m 38,5 km/h (5 Bft) W 275 0 min 0,000 mm 0,0 UV-I 0 W/m 15,2 C 15,5 C 70,8 km/h (8 Bft) 100,00 %
18.08.2017 23:24 20,8 C 25,6 C 70 % 1014,0 hPa 0,0 l/m 37,4 km/h (5 Bft) NW 304 0 min 0,000 mm 0,0 UV-I 0 W/m 15,1 C 15,1 C 59,5 km/h (7 Bft) 100,00 %
18.08.2017 23:26 20,5 C 25,6 C 71 % 1014,0 hPa 0,0 l/m 26,9 km/h (4 Bft) W-SW 246 0 min 0,000 mm 0,0 UV-I 0 W/m 15,1 C 15,8 C 40,2 km/h (6 Bft) 98,00 %
18.08.2017 23:28 20,3 C 25,6 C 73 % 1014,2 hPa 0,0 l/m 22,2 km/h (4 Bft) W-SW 246 0 min 0,000 mm 0,0 UV-I 0 W/m 15,3 C 16,2 C 40,2 km/h (6 Bft) 100,00 %
18.08.2017 23:30 20,2 C 25,6 C 74 % 1014,3 hPa 0,0 l/m 20,9 km/h (4 Bft) W 267 0 min 0,000 mm 0,0 UV-I 0 W/m 15,4 C 16,3 C 49,9 km/h (6 Bft) 100,00 %
18.08.2017 23:32 20,0 C 25,6 C 75 % 1014,3 hPa 0,0 l/m 19,0 km/h (3 Bft) W-SW 256 0 min 0,000 mm 0,0 UV-I 0 W/m 15,4 C 16,4 C 30,6 km/h (5 Bft) 97,87 %
18.08.2017 23:34 19,8 C 25,6 C 75 % 1014,6 hPa 0,0 l/m 25,4 km/h (4 Bft) W-SW 257 0 min 0,000 mm 0,0 UV-I 0 W/m 15,2 C 15,1 C 41,8 km/h (6 Bft) 100,00 %
18.08.2017 23:36 19,7 C 25,6 C 76 % 1015,0 hPa 0,0 l/m 26,5 km/h (4 Bft) W-SW 246 0 min 0,000 mm 0,0 UV-I 0 W/m 15,3 C 14,8 C 43,5 km/h (6 Bft) 100,00 %
18.08.2017 23:40 19,5 C 25,6 C 77 % 1015,2 hPa 0,0 l/m 20,9 km/h (4 Bft) S-SW 202 0 min 0,000 mm 0,0 UV-I 0 W/m 15,4 C 15,4 C 35,4 km/h (5 Bft) 96,81 %
18.08.2017 23:42 19,4 C 25,6 C 77 % 1015,3 hPa 0,0 l/m 22,5 km/h (4 Bft) W-NW 284 0 min 0,000 mm 0,0 UV-I 0 W/m 15,3 C 15,0 C 38,6 km/h (5 Bft) 98,00 %
18.08.2017 23:44 19,3 C 25,6 C 78 % 1015,3 hPa 0,0 l/m 16,3 km/h (3 Bft) W 273 0 min 0,000 mm 0,0 UV-I 0 W/m 15,4 C 16,1 C 27,4 km/h (4 Bft) 94,00 %
18.08.2017 23:46 19,3 C 25,6 C 78 % 1015,2 hPa 0,0 l/m 21,6 km/h (4 Bft) W-NW 283 0 min 0,000 mm 0,0 UV-I 0 W/m 15,4 C 15,0 C 33,8 km/h (5 Bft) 97,87 %
18.08.2017 23:48 19,2 C 25,6 C 78 % 1015,1 hPa 0,0 l/m 21,9 km/h (4 Bft) W 270 0 min 0,000 mm 0,0 UV-I 0 W/m 15,3 C 14,8 C 35,4 km/h (5 Bft) 96,00 %
18.08.2017 23:50 19,1 C 25,6 C 78 % 1015,0 hPa 0,0 l/m 20,8 km/h (4 Bft) W-SW 239 0 min 0,000 mm 0,0 UV-I 0 W/m 15,2 C 14,9 C 32,2 km/h (5 Bft) 97,87 %
18.08.2017 23:52 19,0 C 25,6 C 78 % 1015,3 hPa 0,0 l/m 20,1 km/h (4 Bft) W-SW 246 0 min 0,000 mm 0,0 UV-I 0 W/m 15,1 C 14,9 C 33,8 km/h (5 Bft) 95,74 %
18.08.2017 23:54 18,9 C 25,6 C 79 % 1015,3 hPa 0,0 l/m 25,8 km/h (4 Bft) W-SW 247 0 min 0,000 mm 0,0 UV-I 0 W/m 15,2 C 13,8 C 43,5 km/h (6 Bft) 97,87 %
18.08.2017 23:56 18,9 C 25,6 C 79 % 1015,4 hPa 0,0 l/m 21,8 km/h (4 Bft) SW 225 0 min 0,000 mm 0,0 UV-I 0 W/m 15,2 C 14,4 C 32,2 km/h (5 Bft) 91,49 %
18.08.2017 23:58 18,8 C 25,6 C 79 % 1015,4 hPa 0,0 l/m 22,4 km/h (4 Bft) W 272 0 min 0,000 mm 0,0 UV-I 0 W/m 15,1 C 14,2 C 30,6 km/h (5 Bft) 97,22 %
_ Min-Zeit 06:30 02:10 16:56 21:18 - 00:44 - - - - - - 06:30 23:54 00:46 00:02
Minimum _ 15,9 C 23,9 C 47 % 1007,5 hPa - 0,0 km/h (0 Bft) - - - - - - 14,8 C 13,8 C 0,0 km/h (0 Bft) 9,52 %
_ Max-Zeit 16:28 16:44 06:42 06:42 00:00 23:10 - - 17:03 14:02 13:10 12:52 13:18 16:26 23:16 00:06
Maximum _ 30,7 C 26,1 C 94 % 1016,6 hPa 0,0 l/m 46,8 km/h
W-NW (6 Bft)
- - 3 min 0,584 mm 6,0 UV-I 803 W/m 20,4 C 30,6 C 74,0 km/h
W (8 Bft)
100,00 %
Durchschnitt _ 23,3 C 24,8 C 74 % 1013,5 hPa #0,0 l/m 4,4 km/h (1 Bft) O-NO - #13:02 h #4,597 mm 3,4 UV-I 435 W/m 17,8 C 23,1 C 7,7 km/h (2 Bft) 97,75 %